Date StartTime U_cm/s V_cm/s W_cm/s Ustd_cm/s Vstd_cm/s Wstd_cm/s Uvar_(cm/s)^2 Vvar_(cm/s)^2 Wvar_(cm/s)^2 KE_(m/s)^2 TurbulentKE_(m/s)^2 HorizWindSpeed_cm/s FrictionSpeec_cm/s DragCoef SpeedOfSound_m/s SonicTemperature_C Pressure_mb 
07/05/2014  00:00:00     -143.706      -68.203        6.084      109.889       97.863       46.244    12075.672     9577.114     2138.486        2.456        1.190      159.069       61.041        0.147      346.471       24.740      864.185
07/05/2014  00:01:00     -117.299      -48.799        6.087       89.829       92.927       54.104     8069.242     8635.391     2927.286        1.790        0.982      127.045       50.608        0.159      346.463       24.727      864.186
07/05/2014  00:02:00     -181.988      -67.379       -1.966       94.448       63.917       47.148     8920.424     4085.327     2222.898        2.644        0.761      194.061       51.747        0.071      346.471       24.741      864.182
07/05/2014  00:03:00     -230.293     -109.207        5.099      117.651       80.802       54.937    13841.840     6528.905     3018.085        4.418        1.169      254.875       63.617        0.062      346.476       24.749      864.184
07/05/2014  00:04:00     -214.380     -109.524       -3.109       94.341       77.654       51.253     8900.159     6030.210     2626.841        3.776        0.878      240.737       46.949        0.038      346.515       24.816      864.207
07/05/2014  00:05:00     -146.400      -45.678        3.550       99.151       63.364       40.461     9830.970     4015.020     1637.105        1.950        0.774      153.360       46.583        0.092      346.432       24.675      864.209
07/05/2014  00:06:00     -116.459      -33.086       -8.590       53.841       38.662       20.037     2898.842     1494.737      401.492        0.976        0.240      121.068       21.081        0.030      346.489       24.774      864.182
07/05/2014  00:07:00     -190.650     -142.789       -1.788      125.649      103.241       60.005    15787.584    10658.709     3600.613        4.339        1.502      238.193       55.843        0.055      346.502       24.794      864.159
07/05/2014  00:08:00     -126.217      -73.573       20.478      103.922       92.640       40.763    10799.791     8582.189     1661.588        2.140        1.052      146.095       47.631        0.106      346.438       24.684      864.168
07/05/2014  00:09:00     -226.198        4.796       -8.913      128.656       98.879       39.753    16552.287     9776.959     1580.338        3.958        1.395      226.249       37.775        0.028      346.400       24.618      864.180
07/05/2014  00:10:00     -175.104      -71.826       -8.906       96.930       75.542       41.649     9395.340     5706.627     1734.663        2.637        0.842      189.263       40.608        0.046      346.401       24.618      864.195
07/05/2014  00:11:00     -116.641      -89.973       -6.022       90.092       52.824       34.874     8116.524     2790.375     1216.199        1.693        0.606      147.310       29.310        0.040      346.425       24.660      864.201
07/05/2014  00:12:00     -191.511      -70.964       -2.532      112.212       75.988       52.344    12591.582     5774.210     2739.853        3.141        1.055      204.236       47.945        0.055      346.495       24.781      864.189
07/05/2014  00:13:00     -252.750      -78.154       -2.342      111.567       76.833       43.945    12447.260     5903.348     1931.169        4.514        1.014      264.557       41.314        0.024      346.534       24.847      864.186
07/05/2014  00:14:00     -115.994      -47.712       -2.064       73.450       60.116       32.755     5394.912     3613.953     1072.869        1.291        0.504      125.424       27.612        0.048      346.493       24.779      864.185
07/05/2014  00:15:00     -138.072      -63.083        4.071       60.747       44.100       34.549     3690.207     1944.846     1193.666        1.494        0.341      151.800       33.634        0.049      346.492       24.778      864.186
07/05/2014  00:16:00     -100.643      -77.701        3.329       59.955       57.171       35.012     3594.624     3268.571     1225.846        1.213        0.404      127.148       37.217        0.086      346.517       24.820      864.188
07/05/2014  00:17:00      -97.637      -58.368        0.455       48.646       39.561       24.061     2366.434     1565.087      578.944        0.872        0.226      113.753       20.030        0.031      346.464       24.730      864.199
07/05/2014  00:18:00      -69.269     -100.058        2.761       52.022       47.013       24.994     2706.282     2210.209      624.683        1.018        0.277      121.695       25.448        0.044      346.494       24.782      864.219
07/05/2014  00:19:00      -86.535      -77.122       -0.580       63.611       53.266       30.639     4046.417     2837.317      938.745        1.063        0.391      115.914       32.444        0.078      346.472       24.742      864.228
07/05/2014  00:20:00      -60.920      -46.854       15.123       92.204       52.479       32.751     8501.581     2754.050     1072.601        0.923        0.616       76.854       40.472        0.277      346.411       24.639      864.242
07/05/2014  00:21:00       -4.071      -84.235        7.892       41.210       42.349       30.244     1698.297     1793.401      914.699        0.579        0.220       84.334       26.683        0.100      346.442       24.691      864.251
07/05/2014  00:22:00       -1.821      -12.522       18.748       35.742       49.397       28.279     1277.460     2440.110      799.684        0.251        0.226       12.653       30.092        5.656      346.254       24.369      864.278
07/05/2014  00:23:00       -3.039       48.678       74.380       28.090       38.882       31.396      789.054     1511.848      985.730        0.560        0.164       48.773       29.073        0.355      345.975       23.892      864.290
07/05/2014  00:24:00       -7.954       62.206       97.456       23.935       48.826       28.261      572.862     2383.939      798.687        0.859        0.188       62.713       32.675        0.271      346.083       24.075      864.285
07/05/2014  00:25:00       49.258       55.326       88.524       71.962       67.801       36.123     5178.505     4597.004     1304.851        1.220        0.554       74.076       39.763        0.288      346.148       24.186      864.301
07/05/2014  00:26:00      124.816       66.445       24.643       75.667       67.276       63.850     5725.514     4526.095     4076.816        1.746        0.716      141.400       46.956        0.110      346.020       23.967      864.302
07/05/2014  00:27:00       80.496       43.832       71.742       51.226       53.823       41.619     2624.108     2896.922     1732.125        1.040        0.363       91.656       39.083        0.182      345.868       23.705      864.320
07/05/2014  00:28:00       69.932       61.059       82.608       50.708       44.926       40.223     2571.340     2018.306     1617.908        1.082        0.310       92.837       25.414        0.075      345.829       23.640      864.331
07/05/2014  00:29:00       37.139       92.799      100.268       56.610       46.362       39.570     3204.731     2149.444     1565.747        1.348        0.346       99.955       38.793        0.151      345.851       23.677      864.341
07/05/2014  00:30:00       50.319       42.210       69.212       72.072       53.718       42.112     5194.351     2885.654     1773.456        0.948        0.493       65.679       43.163        0.432      345.777       23.550      864.344
07/05/2014  00:31:00       76.531       79.406       81.486       72.586       44.544       52.343     5268.710     1984.141     2739.778        1.440        0.500      110.283       19.604        0.032      345.751       23.506      864.342
07/05/2014  00:32:00       -1.570        6.974       51.778       38.372       45.403       32.145     1472.378     2061.388     1033.320        0.365        0.228        7.148       31.338       19.218      345.690       23.401      864.344
07/05/2014  00:33:00       58.251      -70.289       -4.821       48.873       64.911       29.020     2388.616     4213.502      842.181        0.790        0.372       91.289       32.303        0.125      345.696       23.410      864.358
07/05/2014  00:34:00       71.434     -104.126       -5.601       52.766       57.562       29.883     2784.289     3313.347      892.987        1.148        0.350      126.274       31.687        0.063      345.659       23.348      864.377
07/05/2014  00:35:00       68.772        0.960       18.887       58.723       44.385       32.090     3448.378     1970.016     1029.748        0.577        0.322       68.779       31.088        0.204      345.509       23.092      864.389
07/05/2014  00:36:00       55.771       17.461       37.165       43.348       33.273       33.249     1879.058     1107.105     1105.465        0.444        0.205       58.441       28.230        0.233      345.477       23.034      864.382
07/05/2014  00:37:00       41.399       23.935       70.530       51.822       71.418       40.480     2685.557     5100.486     1638.644        0.834        0.471       47.820       42.003        0.772      345.467       23.018      864.353
07/05/2014  00:38:00       59.896       -1.989       55.369       64.624       64.563       47.130     4176.217     4168.436     2221.196        0.861        0.528       59.929       33.752        0.317      345.420       22.937      864.347
07/05/2014  00:39:00       92.806      -19.089       44.356       92.604       56.456       49.411     8575.554     3187.274     2441.470        1.257        0.710       94.749       37.346        0.155      345.467       23.018      864.340
07/05/2014  00:40:00       42.838      -55.468       30.267       46.651       79.564       49.079     2176.325     6330.389     2408.716        0.837        0.546       70.084       46.214        0.435      345.473       23.028      864.368
07/05/2014  00:41:00       20.389       28.065       58.842       44.565       73.451       43.367     1985.999     5395.039     1880.685        0.696        0.463       34.689       40.612        1.371      345.434       22.961      864.375
07/05/2014  00:42:00       25.104       25.926       67.913       48.378       72.751       44.560     2340.407     5292.677     1985.571        0.776        0.481       36.089       40.772        1.276      345.401       22.904      864.358
07/05/2014  00:43:00       49.503      -37.435       50.044       63.420       71.521       45.499     4022.062     5115.312     2070.186        0.878        0.560       62.063       50.434        0.660      345.387       22.881      864.357
07/05/2014  00:44:00      131.599     -142.889      -12.016       60.681       66.935       33.405     3682.126     4480.231     1115.903        2.358        0.464      194.256       32.540        0.028      345.547       23.153      864.359
07/05/2014  00:45:00       92.242      -77.796        2.331       43.892       57.458       42.613     1926.496     3301.425     1815.841        1.080        0.352      120.668       31.442        0.068      345.442       22.975      864.360
07/05/2014  00:46:00       85.448      -49.043       12.177       72.236       55.622       44.853     5218.056     3093.780     2011.762        1.009        0.516       98.522       39.716        0.163      345.380       22.869      864.374
07/05/2014  00:47:00       47.487      -53.684       19.796       51.270       67.734       38.358     2628.570     4587.919     1471.317        0.711        0.434       71.673       43.787        0.373      345.338       22.795      864.380
07/05/2014  00:48:00       37.309        8.301       59.456       50.799       64.351       45.518     2580.519     4141.026     2071.901        0.689        0.440       38.221       54.005        1.996      345.345       22.808      864.378
07/05/2014  00:49:00       50.334      -56.525       23.676       63.410       54.723       32.277     4020.881     2994.556     1041.828        0.717        0.403       75.688       40.667        0.289      345.387       22.881      864.379
07/05/2014  00:50:00       20.635       17.928       62.455       49.264       38.737       28.725     2426.948     1500.548      825.130        0.470        0.238       27.335       21.399        0.613      345.307       22.743      864.378
07/05/2014  00:51:00       49.272       55.031       75.156       64.467       43.940       38.141     4155.990     1930.685     1454.743        0.932        0.377       73.866       39.331        0.284      345.290       22.715      864.364
07/05/2014  00:52:00       29.192       43.661       59.489       37.355       53.386       31.619     1395.432     2850.053      999.731        0.577        0.262       52.521       35.181        0.449      345.171       22.512      864.378
07/05/2014  00:53:00       58.983       46.126       40.881       38.622       36.423       29.921     1491.686     1326.662      895.237        0.550        0.186       74.877       17.387        0.054      344.962       22.155      864.388
07/05/2014  00:54:00       51.068       16.630       12.493       27.004       30.387       18.338      729.208      923.363      336.271        0.251        0.099       53.707       11.575        0.046      344.923       22.087      864.420
07/05/2014  00:55:00       77.989       41.586       16.712       26.600       31.149       20.051      707.584      970.273      402.025        0.509        0.104       88.384       17.735        0.040      344.866       21.989      864.451
07/05/2014  00:56:00       63.076       43.699       20.869       28.034       20.105       17.497      785.921      404.204      306.162        0.391        0.075       76.734       15.026        0.038      344.828       21.923      864.463
07/05/2014  00:57:00       23.222       47.226       -0.784       18.544       26.704       16.167      343.878      713.114      261.366        0.204        0.066       52.626       14.420        0.075      344.896       22.041      864.469
07/05/2014  00:58:00       23.521       85.479       -4.711       20.319       22.322       14.006      412.861      498.257      196.179        0.449        0.055       88.656        6.584        0.006      345.034       22.277      864.476
07/05/2014  00:59:00       24.355       61.353        0.982       24.089       31.380       19.326      580.280      984.693      373.480        0.315        0.097       66.010       16.492        0.062      345.003       22.225      864.483
07/05/2014  01:00:00       19.185       43.188       -0.279       23.555       30.318       19.787      554.852      919.176      391.526        0.205        0.093       47.258       10.736        0.052      345.125       22.434      864.486
07/05/2014  01:01:00       37.051       59.904       -1.591       32.322       28.890       21.307     1044.713      834.612      454.004        0.365        0.117       70.436       18.878        0.072      345.157       22.486      864.490
07/05/2014  01:02:00       86.491       42.951       18.137       32.831       29.216       21.865     1077.869      853.593      478.082        0.603        0.120       96.569       20.616        0.046      345.166       22.503      864.487
07/05/2014  01:03:00       73.367       21.347       20.340       39.677       27.085       28.996     1574.265      733.601      840.747        0.470        0.157       76.410       18.632        0.059      344.993       22.206      864.474
07/05/2014  01:04:00       90.283       33.097        5.630       33.135       25.689       19.376     1097.961      659.932      375.419        0.571        0.107       96.158       19.687        0.042      345.144       22.465      864.479
07/05/2014  01:05:00       99.160       39.719       12.290       37.291       27.298       25.752     1390.624      745.193      663.167        0.718        0.140      106.819       17.845        0.028      345.154       22.483      864.482
07/05/2014  01:06:00       66.195       19.950       -0.520       30.764       26.061       22.849      946.419      679.179      522.073        0.346        0.107       69.135       10.357        0.022      345.075       22.347      864.488
07/05/2014  01:07:00       98.113       62.805       30.631       28.961       29.087       28.942      838.761      846.080      837.642        0.852        0.126      116.493       19.012        0.027      345.085       22.363      864.504
07/05/2014  01:08:00       77.797       27.620       19.983       31.010       23.825       25.113      961.645      567.648      630.669        0.469        0.108       82.554       16.879        0.042      344.994       22.209      864.525
07/05/2014  01:09:00       77.773       28.715       15.320       33.357       23.938       20.023     1112.710      573.005      400.923        0.460        0.104       82.905       13.240        0.026      344.991       22.203      864.547
07/05/2014  01:10:00       55.319       17.125        9.040       24.933       17.915       14.511      621.654      320.930      210.561        0.229        0.058       57.909       12.337        0.045      344.880       22.011      864.556
07/05/2014  01:11:00        5.102       -6.819        5.485       11.530       11.785        8.359      132.944      138.878       69.875        0.022        0.017        8.516        6.685        0.616      344.893       22.036      864.585
07/05/2014  01:12:00        2.156        9.929       -2.906       17.090       11.292        6.263      292.060      127.501       39.229        0.029        0.023       10.160        5.177        0.260      344.938       22.111      864.619
07/05/2014  01:13:00        1.034       -7.158        7.307        7.420        8.322        7.119       55.059       69.251       50.675        0.014        0.009        7.232        5.134        0.504      344.843       21.952      864.648
07/05/2014  01:14:00        9.845       16.633       21.651       18.045       22.912       20.108      325.616      524.957      404.351        0.105        0.063       19.328       22.268        1.327      344.679       21.668      864.651
07/05/2014  01:15:00       58.270       28.929       20.747       26.640       18.998       15.941      709.679      360.937      254.111        0.299        0.066       65.055       13.915        0.046      344.794       21.867      864.633
07/05/2014  01:16:00        9.976       23.430       36.952       23.928       19.548       14.987      572.557      382.124      224.616        0.160        0.059       25.466       14.580        0.328      344.678       21.668      864.621
07/05/2014  01:17:00       -0.833        1.439       20.478        7.628       20.218       11.974       58.182      408.757      143.369        0.052        0.031        1.663       12.731       58.600      344.648       21.616      864.623
07/05/2014  01:18:00       -4.136      -26.891       -1.989        8.601       12.371        6.937       73.983      153.038       48.125        0.051        0.014       27.207        3.835        0.020      344.895       22.038      864.633
07/05/2014  01:19:00       -0.445        4.941        4.221       10.603        4.619        5.941      112.422       21.339       35.294        0.011        0.008        4.961        5.416        1.192      344.764       21.814      864.624
07/05/2014  01:20:00       32.878       21.569       12.477       11.600       12.667       13.315      134.570      160.441      177.293        0.109        0.024       39.321        8.124        0.043      344.799       21.874      864.601
07/05/2014  01:21:00       11.184       12.669       17.826       10.479       17.627       14.709      109.815      310.708      216.350        0.062        0.032       16.899       10.963        0.421      344.736       21.767      864.591
07/05/2014  01:22:00       21.585       21.116        3.038       21.722       16.541       13.253      471.848      273.597      175.632        0.092        0.046       30.196        8.230        0.074      344.716       21.734      864.587
07/05/2014  01:23:00       33.398       28.753        4.032       16.217       17.340       10.458      262.991      300.676      109.364        0.132        0.034       44.070        9.444        0.046      344.667       21.648      864.576
07/05/2014  01:24:00       15.630      -22.518       -4.264       14.658       12.345        8.422      214.846      152.401       70.926        0.060        0.022       27.411        4.847        0.031      344.558       21.463      864.576
07/05/2014  01:25:00       32.686       -8.322        4.138       14.069       22.164       16.383      197.948      491.235      268.402        0.106        0.048       33.729       16.549        0.241      344.514       21.385      864.581
07/05/2014  01:26:00       56.229       -3.356       11.774       22.377       19.968       23.747      500.741      398.714      563.932        0.239        0.073       56.329        5.534        0.010      344.201       20.851      864.584
07/05/2014  01:27:00       43.892       20.199        5.436       16.167       18.598       24.788      261.356      345.875      614.439        0.179        0.061       48.317       11.607        0.058      344.294       21.011      864.594
07/05/2014  01:28:00       28.508       18.512       25.613       38.498       23.049       21.499     1482.109      531.252      462.224        0.214        0.124       33.991       10.800        0.101      344.106       20.690      864.584
07/05/2014  01:29:00       64.238       24.202        6.080       27.272       24.594       21.890      743.759      604.880      479.160        0.329        0.091       68.646        8.676        0.016      344.131       20.731      864.591
07/05/2014  01:30:00       77.293       54.366       10.550       21.389       20.215       23.540      457.489      408.665      554.131        0.523        0.071       94.498        9.355        0.010      344.455       21.285      864.593
07/05/2014  01:31:00       64.249       53.103       10.752       26.841       22.049       22.195      720.426      486.160      492.612        0.438        0.085       83.354       15.802        0.036      344.563       21.471      864.609
07/05/2014  01:32:00       54.224       51.180       10.155       33.193       26.534       24.157     1101.777      704.049      583.571        0.403        0.119       74.563       19.045        0.065      344.589       21.516      864.618
07/05/2014  01:33:00       54.897       47.011       15.683       30.748       21.762       21.121      945.454      473.606      446.088        0.367        0.093       72.275       12.224        0.029      344.732       21.760      864.622
07/05/2014  01:34:00       78.157       51.396       21.621       40.858       24.066       25.759     1669.376      579.161      663.545        0.606        0.146       93.541       14.397        0.024      344.646       21.612      864.622
07/05/2014  01:35:00       67.798       37.132       28.255       23.000       25.406       20.936      528.981      645.440      438.303        0.419        0.081       77.300       10.492        0.018      344.510       21.379      864.628
07/05/2014  01:36:00       62.524       37.814       21.517       29.773       21.663       23.355      886.407      469.273      545.447        0.385        0.095       73.069        8.295        0.013      344.253       20.941      864.629
07/05/2014  01:37:00       48.748       35.094       16.888       28.744       25.033       20.349      826.218      626.658      414.070        0.288        0.093       60.066       14.448        0.058      344.325       21.063      864.622
07/05/2014  01:38:00       37.198       40.323        7.410       32.044       20.992       26.136     1026.815      440.652      683.091        0.261        0.108       54.860       14.896        0.074      344.467       21.308      864.615
07/05/2014  01:39:00       -3.108       56.937       -5.236       22.287       21.155       13.208      496.716      447.520      174.460        0.220        0.056       57.022        6.934        0.015      344.711       21.724      864.618
07/05/2014  01:40:00      -22.751       39.539       -9.894       24.878       18.598       10.611      618.904      345.869      112.602        0.163        0.054       45.617        8.072        0.031      344.765       21.817      864.626
07/05/2014  01:41:00      -22.295       23.563       -5.384       15.315       12.450        7.347      234.537      154.993       53.980        0.076        0.022       32.439        6.695        0.043      344.640       21.603      864.622
07/05/2014  01:42:00       -1.706       47.439       -7.203       17.496       16.512        7.976      306.120      272.635       63.615        0.147        0.032       47.470        8.737        0.034      344.777       21.834      864.628
07/05/2014  01:43:00        8.267       26.528       -3.515       21.056       17.398        7.199      443.336      302.692       51.819        0.079        0.040       27.786        7.658        0.076      344.746       21.784      864.641
07/05/2014  01:44:00        5.991       50.152      -10.985       13.583       14.144        6.141      184.500      200.064       37.709        0.155        0.021       50.509        6.411        0.016      344.757       21.799      864.639
07/05/2014  01:45:00       19.085       59.332      -10.519       12.570       13.559        8.092      157.995      183.846       65.475        0.220        0.020       62.326        3.841        0.004      344.791       21.859      864.635
07/05/2014  01:46:00       29.812       42.222       -4.376       16.259       19.766       12.641      264.361      390.714      159.802        0.175        0.041       51.686        7.587        0.022      344.697       21.698      864.632
07/05/2014  01:47:00       20.578       19.694        7.935       20.187       16.774       15.898      407.505      281.362      252.760        0.091        0.047       28.483       13.626        0.229      344.533       21.419      864.624
07/05/2014  01:48:00       35.346       41.876       -4.373       24.185       26.014       19.337      584.923      676.732      373.926        0.233        0.082       54.799       17.588        0.103      344.545       21.439      864.605
07/05/2014  01:49:00       35.204       33.089       -1.488       23.554       22.596       20.419      554.772      510.597      416.946        0.191        0.074       48.314       17.463        0.131      344.525       21.406      864.611
07/05/2014  01:50:00       50.856       33.348       13.170       29.522       19.874       22.138      871.568      394.959      490.099        0.281        0.088       60.815       14.163        0.054      344.615       21.559      864.621
07/05/2014  01:51:00       60.228       39.811        2.850       18.556       21.971       18.838      344.339      482.738      354.884        0.320        0.059       72.196       13.314        0.034      344.647       21.614      864.627
07/05/2014  01:52:00       31.772       30.317       -0.814       23.388       18.260       15.906      546.986      333.430      253.002        0.153        0.057       43.915       12.349        0.079      344.570       21.483      864.634
07/05/2014  01:53:00       37.854       52.645       -1.190       24.090       23.252       17.850      580.322      540.652      318.631        0.282        0.072       64.842       13.004        0.040      344.611       21.551      864.645
07/05/2014  01:54:00       26.775       61.022       -1.367       23.615       31.494       19.448      557.690      991.855      378.214        0.318        0.096       66.637       18.091        0.074      344.509       21.378      864.646
07/05/2014  01:55:00       35.890       89.864       -4.669       23.751       32.904       23.627      564.094     1082.683      558.235        0.579        0.110       96.766       21.248        0.048      344.531       21.414      864.642
07/05/2014  01:56:00       31.845       68.499       -1.417       30.593       33.271       24.356      935.922     1106.990      593.210        0.417        0.132       75.539       17.137        0.051      344.470       21.311      864.648
07/05/2014  01:57:00       42.741       44.516        6.664       28.036       21.166       17.918      786.034      447.994      321.037        0.270        0.078       61.713       15.486        0.063      344.473       21.316      864.662
07/05/2014  01:58:00       36.408       46.791        2.121       28.673       22.842       20.202      822.140      521.759      408.133        0.264        0.088       59.287       17.166        0.084      344.544       21.438      864.678
07/05/2014  01:59:00       10.015       53.522       -3.632       22.227       15.958       10.327      494.027      254.670      106.655        0.192        0.043       54.451       11.438        0.044      344.589       21.515      864.694
07/05/2014  02:00:00        3.324       43.343       -6.641       22.197       14.746        6.581      492.726      217.452       43.306        0.134        0.038       43.471        6.136        0.020      344.580       21.500      864.719
07/05/2014  02:01:00      -32.673        5.346       -7.746       10.570        7.372        6.446      111.725       54.350       41.546        0.068        0.010       33.107        5.769        0.030      344.221       20.886      864.738
07/05/2014  02:02:00      -27.238       19.627       -3.003       19.515       22.606        7.422      380.846      511.024       55.083        0.104        0.047       33.573        2.974        0.008      344.356       21.115      864.744
07/05/2014  02:03:00      -19.310       63.464      -10.566       15.693       21.280        8.598      246.259      452.836       73.927        0.264        0.039       66.337        6.537        0.010      344.581       21.500      864.753
07/05/2014  02:04:00      -14.598       81.460       -6.784       14.882       11.306        9.244      221.480      127.829       85.448        0.366        0.022       82.758        7.545        0.008      344.647       21.616      864.764
07/05/2014  02:05:00      -31.378       34.989      -11.416       18.717       27.009        6.994      350.339      729.493       48.912        0.173        0.056       46.998        6.773        0.021      344.582       21.502      864.789
07/05/2014  02:06:00      -47.839      -32.859       -5.235       11.642       10.254        5.593      135.527      105.135       31.278        0.183        0.014       58.037        2.244        0.001      344.154       20.771      864.809
07/05/2014  02:07:00      -55.371      -11.436       -9.677        8.663        6.934        6.511       75.054       48.078       42.393        0.173        0.008       56.539        4.150        0.005      344.037       20.571      864.825
07/05/2014  02:08:00      -42.718      -14.847      -10.893       19.218        9.522        6.609      369.332       90.675       43.682        0.133        0.025       45.224        5.196        0.013      344.194       20.839      864.834
07/05/2014  02:09:00      -71.008       -8.858      -14.580       12.012       11.980        8.048      144.290      143.524       64.775        0.284        0.018       71.559        5.447        0.006      344.076       20.639      864.847
07/05/2014  02:10:00      -56.248      -15.411      -14.003        8.843        8.757        7.173       78.206       76.680       51.453        0.190        0.010       58.321        3.219        0.003      343.933       20.393      864.861
07/05/2014  02:11:00      -59.293       -7.321      -15.202        8.193        8.797        7.964       67.131       77.395       63.419        0.200        0.010       59.743        4.969        0.007      343.919       20.370      864.860
07/05/2014  02:12:00      -27.652       14.528       -6.283       18.966       17.678        5.958      359.704      312.511       35.492        0.086        0.035       31.236        4.452        0.020      344.292       21.006      864.853
07/05/2014  02:13:00       -8.112       24.533       -0.822       10.517       12.646        6.896      110.601      159.910       47.560        0.049        0.016       25.839        4.627        0.032      344.353       21.110      864.849
07/05/2014  02:14:00      -18.122       43.385       -7.356       22.863       15.270       11.053      522.696      233.186      122.175        0.157        0.044       47.018        7.186        0.023      344.502       21.366      864.865
07/05/2014  02:15:00      -34.818        4.670       -4.856       16.127       20.387       12.300      260.079      415.621      151.301        0.104        0.041       35.130        6.605        0.035      344.140       20.747      864.869
07/05/2014  02:16:00      -35.339       -5.725       -4.372       12.163       18.088       12.232      147.950      327.192      149.626        0.096        0.031       35.800        7.552        0.045      344.172       20.802      864.873
07/05/2014  02:17:00      -45.285      -15.150       -5.770       10.400        6.854        7.967      108.166       46.973       63.470        0.127        0.011       47.752        4.766        0.010      344.046       20.588      864.883
07/05/2014  02:18:00      -44.736      -23.529       -5.203       25.841       11.714       10.979      667.754      137.210      120.542        0.175        0.046       50.546       13.165        0.068      343.941       20.409      864.885
07/05/2014  02:19:00      -71.965      -33.288      -11.525        9.775       15.126       10.291       95.548      228.787      105.895        0.343        0.022       79.291        7.079        0.008      343.623       19.864      864.883
07/05/2014  02:20:00      -82.970      -22.911      -15.596       13.977       15.187       13.886      195.351      230.652      192.830        0.414        0.031       86.075       11.289        0.017      343.577       19.787      864.881
07/05/2014  02:21:00      -95.544      -29.091      -18.269       22.902       17.018       12.938      524.491      289.599      167.403        0.564        0.049       99.874       12.190        0.015      343.445       19.561      864.893
07/05/2014  02:22:00     -118.252      -17.346      -18.524       26.135       12.749       13.845      683.046      162.526      191.675        0.783        0.052      119.518        7.050        0.003      343.324       19.355      864.889
07/05/2014  02:23:00     -106.557      -23.527      -21.268       24.231       23.554       18.687      587.145      554.813      349.199        0.693        0.075      109.123        7.161        0.004      343.372       19.436      864.879
07/05/2014  02:24:00      -71.523      -43.680      -14.628       28.755       27.871       17.972      826.844      776.791      323.011        0.458        0.096       83.806       10.250        0.015      343.369       19.432      864.874
07/05/2014  02:25:00      -68.756      -47.782      -16.167       23.496       21.975       17.881      552.048      482.888      319.715        0.431        0.068       83.728        8.109        0.009      343.391       19.469      864.887
07/05/2014  02:26:00      -87.923      -33.450      -21.485       21.215       25.285       21.022      450.059      639.333      441.937        0.542        0.077       94.070       10.917        0.013      343.447       19.566      864.892
07/05/2014  02:27:00      -76.306      -49.248       -9.813       29.800       31.997       24.091      888.023     1023.830      580.372        0.542        0.125       90.819       16.849        0.034      343.418       19.515      864.899
07/05/2014  02:28:00      -88.858      -61.810      -12.797       41.342       27.759       20.799     1709.125      770.567      432.596        0.740        0.146      108.241       17.485        0.026      343.342       19.385      864.917
07/05/2014  02:29:00      -44.511      -67.230        2.640       63.098       38.588       35.494     3981.304     1489.002     1259.854        0.662        0.337       80.630       41.361        0.263      343.284       19.287      864.943
07/05/2014  02:30:00      -75.428      -20.998        1.291       39.141       23.193       23.262     1532.005      537.936      541.115        0.437        0.131       78.296       20.674        0.070      343.168       19.090      864.957
07/05/2014  02:31:00     -104.308      -16.708       -4.201       43.192       31.841       21.137     1865.519     1013.822      446.780        0.725        0.166      105.638       20.320        0.037      343.116       19.000      864.969
07/05/2014  02:32:00      -93.224       -2.905        0.937       44.677       35.591       28.401     1996.018     1266.746      806.645        0.638        0.203       93.269       28.602        0.094      343.045       18.880      864.973
07/05/2014  02:33:00      -98.185        6.225       -1.055       44.588       28.028       24.393     1988.134      785.573      595.038        0.652        0.168       98.382       23.549        0.057      343.168       19.091      864.972
07/05/2014  02:34:00      -58.384      -22.015       -0.164       31.061       23.739       13.511      964.769      563.552      182.542        0.280        0.086       62.397       14.733        0.056      343.206       19.155      864.978
07/05/2014  02:35:00      -73.694      -35.857        0.259       23.194       33.355       16.462      537.967     1112.527      270.984        0.432        0.096       81.954       15.042        0.034      343.295       19.307      864.977
07/05/2014  02:36:00      -86.647       -6.018        2.855       51.345       33.722       23.492     2636.325     1137.174      551.880        0.594        0.216       86.856       22.107        0.065      343.222       19.182      864.986
07/05/2014  02:37:00      -42.783       -6.811       -1.498       57.212       38.418       23.847     3273.231     1475.976      568.675        0.360        0.266       43.322       19.013        0.193      343.246       19.223      865.001
07/05/2014  02:38:00     -104.303       13.399       -6.187       52.373       43.287       26.903     2742.880     1873.744      723.748        0.822        0.267      105.160       10.531        0.010      343.346       19.392      865.009
07/05/2014  02:39:00     -136.200       10.222      -14.470       45.798       43.125       25.599     2097.457     1859.756      655.329        1.174        0.231      136.583       18.821        0.019      343.275       19.272      865.019
07/05/2014  02:40:00     -113.154       11.363      -16.793       50.779       41.692       28.770     2578.541     1738.244      827.730        0.918        0.257      113.723       24.632        0.047      343.260       19.245      865.040
07/05/2014  02:41:00      -67.962       -8.921        6.548       52.655       40.992       25.866     2772.514     1680.365      669.026        0.493        0.256       68.545       23.536        0.118      343.136       19.035      865.041
07/05/2014  02:42:00      -57.474      -26.433       -5.881       29.242       29.428       20.201      855.071      866.000      408.080        0.308        0.106       63.261       15.916        0.063      343.167       19.088      865.053
07/05/2014  02:43:00      -25.824      -14.204      -12.611       28.638       16.487       12.400      820.157      271.814      153.757        0.114        0.062       29.472       12.610        0.183      343.146       19.052      865.060
07/05/2014  02:44:00      -47.329      -42.049       -9.103       51.391       21.209       18.485     2641.029      449.827      341.690        0.376        0.172       63.311       19.789        0.098      343.188       19.124      865.071
07/05/2014  02:45:00      -97.995      -46.465      -26.407       29.787       29.852       16.686      887.250      891.153      278.414        0.726        0.103      108.453        8.105        0.006      343.280       19.281      865.091
07/05/2014  02:46:00     -140.512      -45.566      -22.418       36.583       20.533       15.526     1338.345      421.616      241.048        1.216        0.100      147.716        9.893        0.004      343.135       19.034      865.094
07/05/2014  02:47:00     -177.017      -25.001      -26.261       17.598       20.789       11.546      309.694      432.185      133.319        1.676        0.044      178.773        9.259        0.003      343.181       19.111      865.099
07/05/2014  02:48:00     -135.258      -19.585      -19.334       24.301       19.850       16.539      590.555      394.040      273.536        1.015        0.063      136.668       13.012        0.009      343.223       19.182      865.102
07/05/2014  02:49:00     -126.588      -23.978      -19.028       27.309       15.554       14.073      745.804      241.921      198.040        0.907        0.059      128.839       10.512        0.007      343.221       19.180      865.090
07/05/2014  02:50:00     -105.395       -2.481      -23.511       26.440       15.177       15.914      699.100      230.347      253.254        0.642        0.059      105.424        5.630        0.003      343.174       19.099      865.084
07/05/2014  02:51:00      -68.288      -13.111       -8.596       21.826       15.907       13.308      476.393      253.048      177.103        0.291        0.045       69.535       13.189        0.036      343.204       19.151      865.092
07/05/2014  02:52:00      -67.838      -35.375       -7.895       18.176       14.007       10.139      330.362      196.191      102.798        0.327        0.031       76.507        5.202        0.005      343.225       19.187      865.099
07/05/2014  02:53:00      -68.074      -30.550       -5.405       23.640       21.921       14.411      558.854      480.526      207.688        0.342        0.062       74.615        9.719        0.017      343.198       19.140      865.125
07/05/2014  02:54:00     -105.300      -42.908      -10.410       33.334       29.387       15.809     1111.187      863.607      249.916        0.763        0.111      113.706       11.387        0.010      343.164       19.083      865.137
07/05/2014  02:55:00     -217.983       22.195      -20.842       68.053       48.104       37.629     4631.164     2313.956     1415.938        2.840        0.418      219.110       38.627        0.031      343.134       19.028      865.158
07/05/2014  02:56:00     -221.297       24.215      -22.755       66.725       64.527       30.652     4452.173     4163.670      939.561        2.981        0.478      222.618       30.705        0.019      343.155       19.064      865.177
07/05/2014  02:57:00     -194.659        1.146      -16.273       72.309       48.827       28.807     5228.577     2384.108      829.834        2.330        0.422      194.662       32.838        0.028      343.180       19.107      865.185
07/05/2014  02:58:00     -185.200       22.556      -13.721       53.086       51.085       29.528     2818.075     2609.666      871.908        2.065        0.315      186.569       22.056        0.014      343.260       19.245      865.196
07/05/2014  02:59:00     -143.456       29.477       -9.504       63.436       38.857       29.382     4024.116     1509.840      863.318        1.397        0.320      146.454       30.492        0.043      343.343       19.388      865.194
07/05/2014  03:00:00      -89.239      -20.685       -9.800       27.824       36.037       16.672      774.198     1298.678      277.947        0.542        0.118       91.605       10.320        0.013      343.248       19.228      865.194
07/05/2014  03:01:00      -61.054      -14.638       -8.312       25.402       21.600       21.023      645.252      466.543      441.957        0.278        0.078       62.784       11.330        0.033      343.198       19.141      865.199
07/05/2014  03:02:00      -72.163      -40.766       -7.295       27.963       24.865       16.876      781.939      618.259      284.814        0.430        0.084       82.882       14.168        0.029      343.110       18.990      865.204
07/05/2014  03:03:00      -62.723      -51.614        3.360       42.471       37.391       21.144     1803.778     1398.052      447.083        0.513        0.182       81.229       24.065        0.088      343.032       18.858      865.208
07/05/2014  03:04:00     -106.102      -27.222       -1.193       36.795       28.907       19.848     1353.904      835.607      393.963        0.729        0.129      109.538       13.186        0.014      343.067       18.918      865.196
07/05/2014  03:05:00     -127.316      -20.692       -8.457       55.432       40.391       29.421     3072.660     1631.433      865.624        1.114        0.278      128.987       29.803        0.053      343.034       18.862      865.204
07/05/2014  03:06:00      -81.520       -2.097       -4.836       57.936       41.445       32.132     3356.580     1717.709     1032.456        0.639        0.305       81.547       28.347        0.121      342.980       18.769      865.201
07/05/2014  03:07:00     -107.031        2.671      -13.004       53.530       39.714       27.607     2865.444     1577.168      762.158        0.842        0.260      107.065       28.617        0.071      342.996       18.798      865.194
07/05/2014  03:08:00     -158.580       25.072       -8.977       58.493       43.380       36.115     3421.461     1881.803     1304.275        1.623        0.330      160.550       25.878        0.026      343.168       19.088      865.204
07/05/2014  03:09:00     -187.997       33.174      -14.961       49.095       45.202       36.069     2410.302     2043.207     1300.975        2.121        0.288      190.902       20.307        0.011      343.112       18.992      865.217
07/05/2014  03:10:00      -84.923       33.011       -8.706       44.312       45.352       32.593     1963.588     2056.766     1062.307        0.673        0.254       91.113       20.240        0.049      343.026       18.847      865.216
07/05/2014  03:11:00     -149.001        8.441      -13.476       51.819       45.232       28.120     2685.211     2045.899      790.715        1.399        0.276      149.240       23.652        0.025      342.991       18.788      865.235
07/05/2014  03:12:00      -75.058        1.122       -8.024       47.028       44.235       21.814     2211.629     1956.760      475.866        0.517        0.232       75.067       21.688        0.083      342.952       18.723      865.236
07/05/2014  03:13:00     -105.482      -11.627      -13.005       51.558       44.592       27.825     2658.235     1988.408      774.210        0.842        0.271      106.121       24.100        0.052      342.945       18.710      865.237
07/05/2014  03:14:00     -155.382       -5.498      -22.457       36.735       48.032       25.762     1349.473     2307.049      663.659        1.450        0.216      155.480       23.362        0.023      342.999       18.801      865.254
07/05/2014  03:15:00     -104.228      -65.255      -10.505       46.452       53.153       33.012     2157.785     2825.239     1089.814        1.065        0.304      122.970       26.974        0.048      342.854       18.555      865.251
07/05/2014  03:16:00      -43.948      -12.349        7.665       44.740       25.527       23.157     2001.687      651.607      536.232        0.267        0.159       45.650       23.549        0.266      342.798       18.458      865.242
07/05/2014  03:17:00      -68.386      -13.347       -5.175       31.142       23.828       15.247      969.829      567.761      232.485        0.333        0.089       69.676        4.396        0.004      342.818       18.495      865.246
07/05/2014  03:18:00      -68.570      -25.275       -9.968       28.859       27.815       20.160      832.821      773.680      406.443        0.373        0.101       73.080       13.980        0.037      342.916       18.661      865.231
07/05/2014  03:19:00      -61.312       -2.907       -9.429       17.671       20.873       14.751      312.264      435.676      217.588        0.241        0.048       61.381        9.328        0.023      342.888       18.612      865.226
07/05/2014  03:20:00      -60.083        4.464      -11.785       20.397       22.691       13.320      416.047      514.864      177.422        0.244        0.055       60.249        5.715        0.009      343.077       18.934      865.237
07/05/2014  03:21:00      -67.974       -3.117      -11.649       20.211       15.925       12.555      408.504      253.621      157.632        0.279        0.041       68.046        5.440        0.006      343.198       19.142      865.232
07/05/2014  03:22:00      -56.789      -37.162      -14.826       18.835       21.657       11.820      354.772      469.028      139.703        0.289        0.048       67.868        9.137        0.018      342.928       18.681      865.233
07/05/2014  03:23:00      -39.589      -13.780       -8.077       23.898       18.465        9.604      571.096      340.939       92.246        0.141        0.050       41.919        8.801        0.044      342.840       18.532      865.248
07/05/2014  03:24:00     -101.114       14.247       -8.014       53.582       34.898       24.405     2871.046     1217.850      595.609        0.759        0.234      102.113       19.942        0.038      342.837       18.526      865.254
07/05/2014  03:25:00      -87.991        1.877      -13.020       53.863       33.001       27.705     2901.170     1089.053      767.545        0.634        0.238       88.011       27.886        0.100      342.803       18.469      865.264
07/05/2014  03:26:00     -117.267      -23.925      -12.949       45.896       33.187       25.942     2106.444     1101.393      673.002        0.919        0.194      119.682       23.262        0.038      342.705       18.303      865.272
07/05/2014  03:27:00     -153.702      -21.478      -21.440       38.030       27.861       18.856     1446.247      776.226      355.546        1.356        0.129      155.195       15.945        0.011      342.586       18.100      865.291
07/05/2014  03:28:00     -105.953      -23.729       -9.001       38.210       45.719       20.813     1460.015     2090.193      433.193        0.793        0.199      108.578       15.431        0.020      342.641       18.193      865.303
07/05/2014  03:29:00     -179.768      -39.872       -9.478       53.838       45.532       24.591     2898.500     2073.143      604.707        1.979        0.279      184.137       25.470        0.019      342.634       18.179      865.305
07/05/2014  03:30:00     -153.998      -30.058      -10.397       48.606       52.565       28.761     2362.591     2763.079      827.220        1.534        0.298      156.904       24.742        0.025      342.673       18.246      865.302
07/05/2014  03:31:00     -170.446       -8.596      -10.564       67.675       44.021       26.906     4579.963     1937.816      723.931        1.824        0.362      170.663       31.246        0.034      342.629       18.171      865.294
07/05/2014  03:32:00     -160.610       13.278      -13.458       53.279       51.641       30.177     2838.615     2666.839      910.666        1.628        0.321      161.158       21.332        0.018      342.663       18.231      865.278
07/05/2014  03:33:00     -180.244       44.669      -20.476       71.037       49.682       30.485     5046.212     2468.262      929.340        2.167        0.422      185.696       24.003        0.017      342.772       18.414      865.254
07/05/2014  03:34:00      -83.360       10.149       -4.557       54.458       50.505       32.368     2965.694     2550.788     1047.674        0.682        0.328       83.976       28.829        0.118      342.656       18.220      865.239
07/05/2014  03:35:00      -67.746       -2.466       -4.114       50.871       31.453       26.355     2587.839      989.281      694.588        0.444        0.214       67.791       26.913        0.158      342.674       18.249      865.241
07/05/2014  03:36:00      -29.908       13.433        8.880       39.055       31.116       19.804     1525.322      968.213      392.200        0.202        0.144       32.786       20.251        0.382      342.513       17.975      865.237
07/05/2014  03:37:00     -112.536       -9.243      -11.057       46.052       33.767       24.414     2120.772     1140.193      596.020        0.836        0.193      112.915       20.059        0.032      342.650       18.208      865.238
07/05/2014  03:38:00     -156.816       -7.069      -33.615       29.912       39.761       21.112      894.737     1580.921      445.720        1.435        0.146      156.975       11.513        0.005      342.743       18.366      865.248
07/05/2014  03:39:00     -167.624       15.704      -21.320       45.715       33.706       28.403     2089.870     1136.120      806.715        1.642        0.202      168.358       26.798        0.025      342.757       18.388      865.259
07/05/2014  03:40:00     -170.307        5.008      -19.816       48.614       44.508       26.753     2363.324     1980.983      715.723        1.724        0.253      170.380       16.642        0.010      342.630       18.173      865.260
07/05/2014  03:41:00     -169.286       38.994      -19.041       61.856       32.662       23.990     3826.169     1066.833      575.502        1.800        0.273      173.719       25.164        0.021      342.617       18.150      865.263
07/05/2014  03:42:00      -83.829       -9.836       -3.915       49.058       32.527       23.758     2406.647     1057.999      564.457        0.558        0.201       84.405       24.647        0.085      342.502       17.957      865.287
07/05/2014  03:43:00      -91.335      -32.066      -10.549       24.402       39.061       18.287      595.477     1525.724      334.404        0.597        0.123       96.800       15.951        0.027      342.489       17.934      865.296
07/05/2014  03:44:00      -74.929      -46.452       -0.840       41.827       34.467       26.189     1749.480     1188.006      685.886        0.570        0.181       88.159       19.084        0.047      342.499       17.951      865.305
07/05/2014  03:45:00      -76.472      -43.122        2.758       51.005       40.147       22.766     2601.544     1611.818      518.281        0.622        0.237       87.792       21.249        0.059      342.525       17.995      865.309
07/05/2014  03:46:00     -161.840      -49.547       -2.355       25.009       21.508       16.382      625.434      462.611      268.368        1.500        0.068      169.255        7.379        0.002      342.614       18.147      865.292
07/05/2014  03:47:00     -134.885       -2.358       -1.549       57.723       34.353       26.647     3331.891     1180.156      710.055        1.171        0.261      134.906       29.149        0.047      342.701       18.295      865.277
07/05/2014  03:48:00     -129.295        7.998       -4.736       58.315       34.533       27.002     3400.641     1192.532      729.083        1.106        0.266      129.542       30.363        0.055      342.659       18.224      865.270
07/05/2014  03:49:00      -56.505        9.980        9.334       35.122       29.105       28.042     1233.566      847.112      786.340        0.312        0.143       57.380       24.135        0.177      342.490       17.936      865.255
07/05/2014  03:50:00      -38.998       -3.437        4.874       31.295       14.490       13.449      979.372      209.974      180.885        0.146        0.069       39.149       10.580        0.073      342.516       17.982      865.249
07/05/2014  03:51:00       10.255      -15.729       12.795       24.503       21.256       16.129      600.404      451.812      260.146        0.091        0.066       18.777        8.137        0.188      342.170       17.392      865.262
07/05/2014  03:52:00      -31.185      -23.462       -2.005       36.131       21.083       15.492     1305.485      444.492      239.992        0.176        0.099       39.025       18.230        0.218      342.454       17.875      865.274
07/05/2014  03:53:00      -80.911      -49.578      -10.561       25.470       21.043       12.555      648.716      442.794      157.616        0.518        0.062       94.892        4.676        0.002      342.608       18.137      865.277
07/05/2014  03:54:00     -122.456      -59.412       -6.161       34.965       19.079       17.940     1222.521      364.002      321.857        1.024        0.095      136.107       12.755        0.009      342.547       18.033      865.291
07/05/2014  03:55:00     -125.642      -44.951        6.911       84.732       34.988       29.273     7179.443     1224.182      856.937        1.356        0.463      133.441       33.484        0.063      342.488       17.932      865.312
07/05/2014  03:56:00     -111.945      -80.353       -0.535       82.094       45.636       30.578     6739.418     2082.686      934.989        1.437        0.488      137.798       29.668        0.046      342.562       18.057      865.337
07/05/2014  03:57:00     -206.863      -97.455       -1.871       77.386       43.253       34.371     5988.558     1870.793     1181.380        3.067        0.452      228.669       34.112        0.022      342.479       17.913      865.336
07/05/2014  03:58:00     -135.053      -10.430       -2.548       66.728       29.775       26.113     4452.681      886.575      681.895        1.219        0.301      135.455       29.243        0.047      342.479       17.918      865.335
07/05/2014  03:59:00      -73.598      -32.930        0.691       28.447       33.122       17.816      809.206     1097.098      317.422        0.436        0.111       80.629       13.314        0.027      342.444       17.858      865.331
07/05/2014  04:00:00       -8.501       -8.817       27.776       34.285       36.056       24.853     1175.477     1300.055      617.665        0.201        0.155       12.247       23.347        3.634      342.150       17.358      865.324
07/05/2014  04:01:00       10.116      -30.202       -5.176       23.598       22.836       19.955      556.855      521.490      398.185        0.126        0.074       31.851       15.934        0.250      342.127       17.319      865.303
07/05/2014  04:02:00      -79.401      -41.351       -7.423       27.020       30.872       17.366      730.099      953.055      301.589        0.503        0.099       89.523       13.987        0.024      342.442       17.854      865.297
07/05/2014  04:03:00     -132.329      -56.961      -14.999       25.427       19.004       17.475      646.508      361.154      305.379        1.115        0.066      144.067        9.724        0.005      342.453       17.875      865.303
07/05/2014  04:04:00     -149.810      -80.533      -16.091       24.380       29.000       20.698      594.379      841.022      428.413        1.553        0.093      170.084       13.916        0.007      342.361       17.716      865.314
07/05/2014  04:05:00     -174.555      -65.912       -4.435       41.399       42.046       28.130     1713.869     1767.906      791.297        1.955        0.214      186.585       20.550        0.012      342.393       17.771      865.317
07/05/2014  04:06:00     -132.603      -93.139       -0.155       64.163       44.820       31.182     4116.877     2008.849      972.333        1.668        0.355      162.045       19.370        0.014      342.420       17.816      865.315
07/05/2014  04:07:00     -182.228      -61.420      -10.749       52.766       31.875       24.148     2784.253     1016.028      583.103        2.074        0.219      192.300       17.458        0.008      342.497       17.947      865.322
07/05/2014  04:08:00     -175.567      -65.442      -15.526       36.588       39.424       19.531     1338.710     1554.225      381.454        1.931        0.164      187.367       16.086        0.007      342.374       17.738      865.314
07/05/2014  04:09:00     -142.777       19.114      -10.992       58.806       44.325       26.753     3458.151     1964.666      715.706        1.350        0.307      144.050       27.689        0.037      342.329       17.661      865.304
07/05/2014  04:10:00     -152.291       45.645      -15.393       64.093       55.659       39.626     4107.917     3097.939     1570.247        1.714        0.439      158.984       31.123        0.038      342.309       17.627      865.305
07/05/2014  04:11:00     -154.303       22.252      -21.324       51.268       39.825       28.800     2628.436     1586.039      829.425        1.490        0.252      155.899       23.333        0.022      342.339       17.678      865.310
07/05/2014  04:12:00      -95.262      -22.382       -8.699       76.397       39.290       25.937     5836.529     1543.669      672.706        0.885        0.403       97.857       30.776        0.099      342.315       17.637      865.311
07/05/2014  04:13:00      -18.928        6.967       20.324       44.765       27.754       21.981     2003.938      770.289      483.159        0.204        0.163       20.170       19.228        0.909      342.163       17.380      865.334
07/05/2014  04:14:00        6.955       13.853        3.587       40.075       30.067       23.365     1605.990      904.035      545.903        0.165        0.153       15.500       18.636        1.445      342.043       17.177      865.352
07/05/2014  04:15:00      -61.676      -19.051        4.184       38.982       30.204       22.119     1519.582      912.307      489.271        0.355        0.146       64.552       22.159        0.118      342.220       17.477      865.358
07/05/2014  04:16:00     -107.542      -64.224       -5.262       49.200       31.467       20.637     2420.616      990.164      425.885        0.978        0.192      125.259       17.705        0.020      342.363       17.719      865.364
07/05/2014  04:17:00     -111.080      -74.683        6.146       69.273       47.549       34.498     4798.733     2260.933     1190.138        1.310        0.412      133.852       29.581        0.049      342.383       17.753      865.387
07/05/2014  04:18:00      -97.384      -62.135       -1.486       54.199       44.286       29.752     2937.572     1961.223      885.159        0.956        0.289      115.518       28.737        0.062      342.407       17.794      865.385
07/05/2014  04:19:00      -92.796      -25.298       -7.241       20.723       21.750       16.825      429.456      473.058      283.081        0.524        0.059       96.182        6.127        0.004      342.450       17.869      865.380
07/05/2014  04:20:00      -76.600      -47.936        0.920       42.354       32.167       21.225     1793.824     1034.685      450.496        0.572        0.164       90.363       19.628        0.047      342.319       17.646      865.375
07/05/2014  04:21:00     -111.800      -55.917       -9.342       19.438       20.111       15.789      377.852      404.440      249.292        0.837        0.052      125.004        7.673        0.004      342.329       17.660      865.379
07/05/2014  04:22:00     -103.933      -63.944       -2.884       30.179       22.120       15.879      910.793      489.316      252.127        0.828        0.083      122.028       17.137        0.020      342.329       17.661      865.378
07/05/2014  04:23:00      -96.765      -57.682       -2.928       31.812       30.669       18.002     1012.003      940.563      324.075        0.749        0.114      112.653       14.259        0.016      342.302       17.616      865.385
07/05/2014  04:24:00     -150.393      -45.723      -14.226       27.764       19.806       14.221      770.838      392.283      202.242        1.314        0.068      157.190       13.534        0.007      342.285       17.588      865.401
07/05/2014  04:25:00     -156.542      -41.865      -10.762       24.393       21.626       17.364      595.036      467.688      301.504        1.387        0.068      162.044       13.887        0.007      342.212       17.464      865.424
07/05/2014  04:26:00     -123.912      -76.575        6.032       42.603       32.285       21.674     1815.036     1042.309      469.742        1.229        0.166      145.664       22.525        0.024      342.239       17.509      865.447
07/05/2014  04:27:00      -83.797      -80.878        2.946       46.847       41.511       26.771     2194.635     1723.168      716.695        0.910        0.232      116.461       27.445        0.056      342.171       17.394      865.480
07/05/2014  04:28:00      -65.672      -60.561       12.471       58.441       31.117       25.618     3415.293      968.249      656.307        0.659        0.252       89.334       28.020        0.098      342.220       17.477      865.514
07/05/2014  04:29:00     -101.769      -87.750       -2.874       62.994       38.398       29.708     3968.194     1474.415      882.575        1.219        0.316      134.376       30.432        0.051      342.241       17.514      865.522
07/05/2014  04:30:00     -131.567      -89.179       -3.850       33.172       31.280       20.377     1100.395      978.463      415.208        1.389        0.125      158.943       17.217        0.012      342.243       17.517      865.507
07/05/2014  04:31:00      -89.023      -51.229        3.370       40.278       29.288       21.657     1622.357      857.780      469.007        0.675        0.147      102.711       21.261        0.043      342.187       17.421      865.499
07/05/2014  04:32:00      -99.926      -52.696        1.759       37.987       32.993       24.540     1443.032     1088.535      602.197        0.795        0.157      112.970       19.875        0.031      342.191       17.429      865.493
07/05/2014  04:33:00     -110.108      -62.652       -1.398       33.944       26.701       17.530     1152.211      712.952      307.298        0.911        0.109      126.685       13.609        0.012      342.160       17.376      865.479
07/05/2014  04:34:00      -95.066      -49.348       -2.108       20.161       18.589       13.950      406.478      345.542      194.614        0.621        0.047      107.111        9.668        0.008      342.164       17.380      865.483
07/05/2014  04:35:00      -96.620      -63.360       -0.456       29.333       28.453       20.688      860.402      809.599      428.002        0.772        0.105      115.541       18.160        0.025      342.105       17.282      865.487
07/05/2014  04:36:00     -136.401      -34.421       -7.402       19.377       17.976       11.658      375.470      323.140      135.920        1.034        0.042      140.678        4.949        0.001      342.102       17.278      865.493
07/05/2014  04:37:00     -128.183      -77.766       -9.670       25.087       23.771       18.745      629.335      565.045      351.387        1.206        0.077      149.928       16.099        0.012      342.078       17.235      865.498
07/05/2014  04:38:00     -111.779      -90.595       -1.999       42.595       36.698       24.122     1814.366     1346.733      581.894        1.222        0.187      143.882       21.637        0.023      342.049       17.188      865.516
07/05/2014  04:39:00     -124.005      -64.145       -4.854       40.548       37.723       22.057     1644.103     1423.034      486.498        1.153        0.178      139.614       20.044        0.021      342.065       17.214      865.533
07/05/2014  04:40:00     -137.379      -24.687       -3.872       33.000       31.711       18.468     1088.967     1005.615      341.074        1.097        0.122      139.579       15.307        0.012      342.029       17.152      865.549
07/05/2014  04:41:00     -131.350      -35.184       -3.928       28.226       29.545       16.538      796.681      872.923      273.511        1.022        0.097      135.981       16.626        0.015      342.099       17.271      865.553
07/05/2014  04:42:00     -121.030      -19.063       -9.357       27.923       24.232       16.810      779.673      587.191      282.560        0.837        0.082      122.523       13.355        0.012      342.067       17.216      865.566
07/05/2014  04:43:00     -108.274      -14.857       -6.527       32.666       20.240       17.207     1067.098      409.662      296.080        0.688        0.089      109.288       18.561        0.029      341.996       17.098      865.584
07/05/2014  04:44:00      -80.757      -28.529       -9.841       26.315       26.760       14.615      692.460      716.092      213.584        0.453        0.081       85.648       12.931        0.023      341.938       16.997      865.599
07/05/2014  04:45:00      -92.082      -16.674       -7.697       23.631       23.155       15.690      558.425      536.160      246.191        0.508        0.067       93.579       12.330        0.017      341.904       16.941      865.598
07/05/2014  04:46:00      -65.727      -12.936       -7.601       25.434       23.065        9.914      646.899      532.004       98.287        0.291        0.064       66.988       11.292        0.028      341.946       17.012      865.598
07/05/2014  04:47:00      -87.002        5.722      -12.929       21.285       16.982       14.416      453.045      288.378      207.826        0.436        0.047       87.190        7.498        0.007      341.905       16.943      865.602
07/05/2014  04:48:00      -93.829        5.425      -10.935       11.789        9.154        8.938      138.975       83.799       79.887        0.463        0.015       93.985        5.636        0.004      341.940       17.000      865.594
07/05/2014  04:49:00      -93.313       -9.844      -10.833       21.682       15.211       13.394      470.097      231.388      179.407        0.490        0.044       93.831        6.946        0.005      341.955       17.027      865.594
07/05/2014  04:50:00     -118.383      -25.873      -13.086       22.525       14.538       12.723      507.379      211.351      161.876        0.787        0.044      121.177       10.389        0.007      341.882       16.902      865.590
07/05/2014  04:51:00      -79.166      -41.636       -4.728       25.406       27.698       17.272      645.490      767.187      298.316        0.487        0.086       89.447       11.338        0.016      341.774       16.720      865.600
07/05/2014  04:52:00      -80.391      -59.979       -5.344       31.613       21.870       19.203      999.360      478.311      368.749        0.597        0.092      100.301       18.055        0.032      341.797       16.758      865.606
07/05/2014  04:53:00     -102.548      -38.144      -11.381       37.988       26.522       17.795     1443.097      703.394      316.672        0.728        0.123      109.412       17.354        0.025      341.773       16.719      865.608
07/05/2014  04:54:00     -123.238      -42.176      -14.924       24.850       25.645       18.596      617.518      657.687      345.797        0.940        0.081      130.255        8.368        0.004      341.726       16.640      865.620
07/05/2014  04:55:00      -96.878      -57.607        0.771       45.341       29.530       22.110     2055.821      872.007      488.858        0.806        0.171      112.711       24.955        0.049      341.715       16.618      865.643
07/05/2014  04:56:00     -104.391      -45.594       -2.239       49.622       34.437       18.705     2462.366     1185.907      349.879        0.849        0.200      113.913       19.953        0.031      341.779       16.730      865.667
07/05/2014  04:57:00      -70.942       -6.306       -0.080       28.973       19.048       15.086      839.451      362.843      227.592        0.325        0.071       71.222       17.626        0.061      341.854       16.855      865.672
07/05/2014  04:58:00      -87.593       -2.746      -11.004       13.102       13.505        9.844      171.673      182.393       96.910        0.413        0.023       87.636        4.692        0.003      341.916       16.961      865.669
07/05/2014  04:59:00     -102.690      -14.090      -12.193       14.106       10.865        9.800      198.984      118.049       96.049        0.565        0.021      103.652        7.185        0.005      341.861       16.866      865.665
07/05/2014  05:00:00      -98.341      -31.386      -16.330       16.796       16.031        7.797      282.100      257.006       60.791        0.576        0.030      103.228        6.439        0.004      341.802       16.769      865.685
07/05/2014  05:01:00      -82.327      -39.741       -5.745       17.110       23.160       12.844      292.736      536.376      164.974        0.469        0.050       91.417        6.278        0.005      341.770       16.715      865.698
07/05/2014  05:02:00      -72.467      -31.133       -5.052       13.366        9.040        8.024      178.659       81.724       64.385        0.329        0.016       78.871        6.951        0.008      341.746       16.673      865.716
07/05/2014  05:03:00      -64.558      -35.834       -9.441       15.340       15.230       11.891      235.328      231.961      141.387        0.307        0.030       73.836        9.551        0.017      341.724       16.635      865.716
07/05/2014  05:04:00      -56.890      -16.694      -10.706       11.994       10.335        6.849      143.855      106.805       46.903        0.196        0.015       59.289        6.328        0.011      341.785       16.738      865.716
07/05/2014  05:05:00      -52.982      -11.711       -8.546       10.204       11.192        7.468      104.116      125.254       55.778        0.165        0.014       54.261        6.227        0.013      341.760       16.696      865.707
07/05/2014  05:06:00      -66.731      -35.459       -9.259       27.199       24.671       16.413      739.811      608.642      269.402        0.371        0.081       75.567       11.681        0.024      341.809       16.779      865.718
07/05/2014  05:07:00      -99.823      -68.150       -4.917       23.308       19.756       14.959      543.279      390.282      223.779        0.790        0.058      120.868       12.071        0.010      341.690       16.577      865.728
07/05/2014  05:08:00     -118.374      -35.370      -15.826       23.731       16.801       14.652      563.169      282.265      214.672        0.829        0.053      123.545       15.333        0.015      341.656       16.521      865.722
07/05/2014  05:09:00     -114.903      -14.440      -10.840       25.713       23.376       15.376      661.134      546.416      236.407        0.749        0.072      115.807       14.633        0.016      341.643       16.498      865.713
07/05/2014  05:10:00     -111.454      -12.819      -12.175       28.563       25.954       18.801      815.831      673.631      353.468        0.729        0.092      112.188       15.309        0.019      341.561       16.361      865.705
07/05/2014  05:11:00     -136.902      -26.041       -3.154       36.201       25.343       19.957     1310.527      642.288      398.289        1.089        0.118      139.357       19.676        0.020      341.473       16.208      865.721
07/05/2014  05:12:00      -77.190      -28.284        3.262       40.706       31.960       21.708     1657.018     1021.461      471.256        0.496        0.157       82.209       14.886        0.033      341.473       16.210      865.733
07/05/2014  05:13:00      -71.990      -43.159        3.907       36.183       30.997       20.679     1309.231      960.805      427.618        0.488        0.135       83.936       19.133        0.052      341.431       16.139      865.735
07/05/2014  05:14:00      -64.918      -33.497       -1.306       33.519       20.055       14.800     1123.522      402.195      219.051        0.354        0.087       73.051       12.600        0.030      341.437       16.148      865.733
07/05/2014  05:15:00      -46.599      -46.050       -0.275       40.946       19.347       19.901     1676.569      374.292      396.047        0.337        0.122       65.514       21.104        0.104      341.460       16.188      865.733
07/05/2014  05:16:00      -85.682      -31.005       -2.938       24.689       22.651       14.113      609.550      513.067      199.163        0.482        0.066       91.119       12.841        0.020      341.449       16.168      865.736
07/05/2014  05:17:00      -96.583      -20.291      -12.731       15.414       12.538        9.016      237.582      157.210       81.280        0.519        0.024       98.692        6.838        0.005      341.490       16.237      865.742
07/05/2014  05:18:00      -97.241      -45.304      -14.085       10.095       15.054        9.328      101.917      226.625       87.008        0.606        0.021      107.277        6.154        0.003      341.497       16.250      865.745
07/05/2014  05:19:00      -81.527      -37.690       -8.854       29.198       30.031       15.471      852.548      901.872      239.337        0.507        0.100       89.818       11.738        0.017      341.545       16.332      865.755
07/05/2014  05:20:00      -72.170      -64.126        1.044       45.576       27.058       22.922     2077.211      732.140      525.432        0.633        0.167       96.543       24.309        0.063      341.421       16.122      865.788
07/05/2014  05:21:00     -101.615      -48.092       -4.575       38.988       29.868       17.012     1520.042      892.078      289.404        0.768        0.135      112.421       15.226        0.018      341.383       16.058      865.816
07/05/2014  05:22:00     -101.969      -47.531       -6.512       37.737       25.666       17.555     1424.113      658.729      308.184        0.754        0.120      112.502       18.825        0.028      341.435       16.144      865.827
07/05/2014  05:23:00      -84.594      -27.796       -1.365       25.611       24.024       14.869      655.940      577.164      221.086        0.469        0.073       89.043        9.005        0.010      341.536       16.316      865.831
07/05/2014  05:24:00     -109.514      -28.020       -1.342       20.982       22.082       11.335      440.232      487.594      128.486        0.692        0.053      113.042        6.706        0.004      341.542       16.326      865.830
07/05/2014  05:25:00     -108.646      -33.719       -6.535       17.426       16.323       13.264      303.666      266.441      175.943        0.686        0.037      113.758       10.248        0.008      341.543       16.328      865.842
07/05/2014  05:26:00      -94.250      -37.851       -6.980       17.737       22.829       13.252      314.612      521.170      175.604        0.569        0.051      101.566       11.619        0.013      341.547       16.335      865.843
07/05/2014  05:27:00      -83.348      -26.457       -7.803       20.446       18.869       10.434      418.056      356.049      108.858        0.430        0.044       87.447        9.534        0.012      341.538       16.320      865.839
07/05/2014  05:28:00      -54.129      -13.256       -3.494       19.068       12.786       12.249      363.600      163.490      150.033        0.190        0.034       55.729       10.906        0.038      341.491       16.239      865.841
07/05/2014  05:29:00      -70.002      -12.902       -3.115       26.953       17.383       12.637      726.483      302.164      159.705        0.313        0.059       71.181       12.913        0.033      341.504       16.262      865.850
07/05/2014  05:30:00      -33.001      -29.595        4.362       34.434       22.337       16.788     1185.696      498.938      281.822        0.197        0.098       44.328       20.242        0.209      341.416       16.111      865.869
07/05/2014  05:31:00      -31.182      -28.594        1.096       33.987       26.797       19.094     1155.093      718.098      364.583        0.201        0.112       42.308       22.682        0.287      341.422       16.124      865.889
07/05/2014  05:32:00      -41.086      -31.218        8.175       42.247       36.369       23.034     1784.831     1322.722      530.556        0.318        0.182       51.600       26.342        0.261      341.399       16.084      865.897
07/05/2014  05:33:00      -80.035      -60.976       -0.719       39.191       23.706       16.813     1535.958      561.972      282.668        0.625        0.119      100.617       15.027        0.022      341.380       16.054      865.908
07/05/2014  05:34:00     -102.242      -59.898        0.155       35.992       27.997       20.466     1295.400      783.835      418.854        0.827        0.125      118.496       22.445        0.036      341.350       16.002      865.916
07/05/2014  05:35:00      -87.309      -57.132        0.413       33.473       22.591       21.501     1120.463      510.335      462.294        0.649        0.105      104.340       17.381        0.028      341.474       16.212      865.909
07/05/2014  05:36:00      -90.602      -32.674       -9.487       15.161       18.098       11.318      229.857      327.527      128.094        0.503        0.034       96.313       10.332        0.012      341.467       16.200      865.889
07/05/2014  05:37:00      -57.303       -4.449       -4.821       11.499       13.861       10.649      132.218      192.118      113.395        0.188        0.022       57.475        5.956        0.011      341.469       16.203      865.883
07/05/2014  05:38:00      -47.444        7.782       -1.168       11.286       16.241       10.965      127.365      263.768      120.237        0.141        0.026       48.078        7.652        0.025      341.471       16.206      865.874
07/05/2014  05:39:00      -45.777      -11.243        0.993       10.343       11.860        9.308      106.987      140.651       86.642        0.128        0.017       47.137        6.963        0.022      341.546       16.333      865.883
07/05/2014  05:40:00      -11.533      -25.076       -0.326       14.775        7.854        8.450      218.287       61.685       71.410        0.056        0.018       27.601        7.684        0.077      341.519       16.286      865.892
07/05/2014  05:41:00      -21.404      -17.245        2.936       25.341       10.834        9.752      642.165      117.370       95.102        0.081        0.043       27.487       13.372        0.237      341.455       16.180      865.898
07/05/2014  05:42:00      -38.113      -19.141       -2.161       37.119       17.285       14.508     1377.785      298.770      210.475        0.186        0.094       42.649       17.953        0.177      341.341       15.987      865.912
07/05/2014  05:43:00      -63.985      -28.331       -0.704       19.144       21.874       16.094      366.487      478.493      259.007        0.300        0.055       69.977       14.555        0.043      341.391       16.072      865.941
07/05/2014  05:44:00      -27.246      -24.429        3.370       21.819       14.413       14.449      476.060      207.724      208.780        0.112        0.045       36.594       11.468        0.098      341.399       16.085      865.960
07/05/2014  05:45:00      -63.389      -25.007       -4.791       14.145       12.272       10.186      200.088      150.603      103.758        0.256        0.023       68.143       10.063        0.022      341.421       16.123      865.975
07/05/2014  05:46:00      -56.557       -0.745       -3.927       20.243       14.940        9.485      409.780      223.214       89.967        0.197        0.036       56.562       11.828        0.044      341.433       16.142      865.967
07/05/2014  05:47:00      -59.785        4.922      -10.487       15.311       11.109       10.745      234.419      123.418      115.446        0.209        0.024       59.987        9.138        0.023      341.361       16.022      865.962
07/05/2014  05:48:00      -52.568       -9.022       -7.257       13.305       12.664       10.516      177.016      160.388      110.596        0.167        0.022       53.336        8.885        0.028      341.366       16.030      865.969
07/05/2014  05:49:00       -4.518      -20.099       -5.825        9.741       15.354        7.400       94.888      235.748       54.763        0.042        0.019       20.601        6.896        0.112      341.385       16.060      865.992
07/05/2014  05:50:00       13.330      -44.471       -3.131       14.303       24.907       17.698      204.567      620.370      313.219        0.165        0.057       46.426       14.138        0.093      341.378       16.049      866.024
07/05/2014  05:51:00      -67.917      -48.256      -10.603       22.387       23.871       13.204      501.182      569.840      174.352        0.415        0.062       83.315       12.869        0.024      341.358       16.014      866.033
07/05/2014  05:52:00      -73.391      -44.438       -3.686       21.289       15.830       12.086      453.205      250.587      146.072        0.411        0.042       85.796        5.628        0.004      341.389       16.068      866.031
07/05/2014  05:53:00      -38.703      -29.169       -4.084       28.752       17.619       11.046      826.669      310.446      122.007        0.181        0.063       48.464        6.165        0.016      341.396       16.079      866.021
07/05/2014  05:54:00      -49.106       -9.007       -6.196        9.694       13.894        8.328       93.965      193.033       69.361        0.144        0.018       49.925        5.419        0.012      341.413       16.108      866.006
07/05/2014  05:55:00      -19.749      -41.823       -6.175       33.392       15.487        6.773     1115.035      239.842       45.872        0.179        0.070       46.251       10.874        0.055      341.494       16.243      866.016
07/05/2014  05:56:00      -16.078      -35.875       -2.641       28.950       28.584       16.470      838.095      817.032      271.277        0.174        0.096       39.313       10.689        0.074      341.382       16.055      866.036
07/05/2014  05:57:00      -69.247      -77.518        7.061       53.909       39.608       26.961     2906.203     1568.807      726.910        0.803        0.260      103.943       28.383        0.075      341.412       16.107      866.050
07/05/2014  05:58:00     -101.399      -81.367       -3.922       26.836       22.718       17.031      720.195      516.116      290.054        0.922        0.076      130.010       15.713        0.015      341.502       16.259      866.069
07/05/2014  05:59:00     -120.056      -67.467       -3.136       20.879       21.319       14.189      435.924      454.506      201.332        1.003        0.055      137.714        7.523        0.003      341.567       16.370      866.079
07/05/2014  06:00:00      -80.591      -48.566        4.337       44.662       32.040       19.439     1994.722     1026.589      377.874        0.614        0.170       94.093       15.328        0.027      341.524       16.295      866.078
07/05/2014  06:01:00      -79.394      -39.650       -1.935       29.801       27.529       19.199      888.124      757.858      368.608        0.495        0.101       88.744       17.036        0.037      341.488       16.233      866.083
07/05/2014  06:02:00      -92.884      -31.704       -6.938       22.020       26.916       15.268      484.866      724.498      233.124        0.556        0.072       98.146       12.480        0.016      341.484       16.228      866.085
07/05/2014  06:03:00      -94.897      -10.679       -2.854       36.466       24.874       19.034     1329.778      618.722      362.296        0.572        0.116       95.496       21.951        0.053      341.355       16.010      866.097
07/05/2014  06:04:00      -98.798      -16.683       -4.107       17.661       21.258       16.504      311.909      451.893      272.396        0.555        0.052      100.197       10.051        0.010      341.265       15.859      866.105
07/05/2014  06:05:00      -57.397        0.089       -0.101       28.136       27.341       15.210      791.620      747.555      231.341        0.253        0.089       57.397       12.609        0.048      341.284       15.890      866.114
07/05/2014  06:06:00     -111.339      -16.439       -5.268       29.815       21.761       20.340      888.920      473.534      413.719        0.723        0.089      112.546       18.892        0.028      341.267       15.862      866.126
07/05/2014  06:07:00      -99.949      -16.391       -2.004       38.064       21.159       16.363     1448.906      447.707      267.745        0.621        0.108      101.284       16.766        0.027      341.269       15.864      866.127
07/05/2014  06:08:00     -125.438      -27.964       -3.962       27.602       23.086       20.588      761.868      532.978      423.845        0.913        0.086      128.517       19.039        0.022      341.282       15.887      866.136
07/05/2014  06:09:00     -115.573      -61.263       -5.865       29.626       26.508       22.289      877.705      702.652      496.820        0.961        0.104      130.806        9.507        0.005      341.327       15.963      866.155
07/05/2014  06:10:00     -121.016      -70.741        4.881       47.769       39.101       25.765     2281.871     1528.889      663.836        1.207        0.224      140.176       24.791        0.031      341.379       16.050      866.170
07/05/2014  06:11:00     -141.398      -41.929        2.051       42.083       30.712       21.756     1770.979      943.234      473.333        1.247        0.159      147.483       20.115        0.019      341.364       16.027      866.188
07/05/2014  06:12:00     -120.826      -28.109        1.319       41.789       35.192       20.147     1746.360     1238.451      405.888        0.939        0.170      124.053       18.271        0.022      341.388       16.066      866.201
07/05/2014  06:13:00      -78.424      -50.507        0.579       46.722       29.724       20.814     2182.960      883.490      433.204        0.610        0.175       93.281       23.762        0.065      341.435       16.145      866.208
07/05/2014  06:14:00      -92.512      -43.144       -2.731       29.737       20.390       17.056      884.309      415.744      290.917        0.601        0.080      102.078       12.927        0.016      341.527       16.301      866.216
07/05/2014  06:15:00      -77.292      -51.688       -6.905       23.669       17.479       12.517      560.242      305.524      156.668        0.486        0.051       92.982       13.353        0.021      341.657       16.521      866.209
07/05/2014  06:16:00      -43.694      -33.117        7.702       35.085       18.133       14.117     1230.941      328.808      199.300        0.241        0.088       54.826       16.453        0.090      341.603       16.430      866.211
07/05/2014  06:17:00      -22.932      -27.962        8.561       37.598       19.525       14.425     1413.635      381.216      208.070        0.169        0.100       36.163       16.388        0.205      341.654       16.518      866.217
07/05/2014  06:18:00      -37.414      -22.030        7.546       26.000       18.941       14.211      676.017      358.775      201.942        0.159        0.062       43.418       12.229        0.079      341.628       16.471      866.226
07/05/2014  06:19:00      -43.923      -46.620       -1.806       32.973       28.637       16.454     1087.243      820.093      270.743        0.314        0.109       64.052       15.053        0.055      341.654       16.518      866.224
07/05/2014  06:20:00      -51.313      -44.745        5.429       29.860       29.993       17.510      891.637      899.583      306.604        0.338        0.105       68.082       14.953        0.048      341.645       16.502      866.226
07/05/2014  06:21:00      -70.867      -34.115        4.318       35.026       25.137       16.855     1226.818      631.891      284.101        0.417        0.107       78.651        9.136        0.013      341.628       16.473      866.243
07/05/2014  06:22:00     -109.016      -45.004        1.788       31.932       21.286       16.970     1019.676      453.113      287.997        0.784        0.088      117.940       16.203        0.019      341.666       16.537      866.255
07/05/2014  06:23:00      -61.165      -38.547        9.099       30.705       25.482       15.502      942.792      649.357      240.299        0.357        0.092       72.298       15.360        0.045      341.661       16.528      866.270
07/05/2014  06:24:00      -26.650      -29.759        9.787       27.372       27.658       18.380      749.236      764.976      337.812        0.177        0.093       39.948       21.305        0.284      341.966       17.046      866.276
07/05/2014  06:25:00      -45.567      -22.743       -3.224       21.895       14.939       11.299      479.381      223.178      127.666        0.172        0.042       50.927        8.970        0.031      341.802       16.768      866.278
07/05/2014  06:26:00      -50.934      -20.880       -3.378       10.387       11.846        7.015      107.880      140.317       49.207        0.167        0.015       55.048        2.170        0.002      341.767       16.710      866.293
07/05/2014  06:27:00      -58.968       -6.762       -2.701       11.087       12.719        9.275      122.913      161.765       86.031        0.195        0.019       59.354        7.743        0.017      341.759       16.696      866.295
07/05/2014  06:28:00      -82.696      -33.838       -4.517       13.576       13.480        7.507      184.307      181.709       56.352        0.421        0.021       89.351        4.607        0.003      341.749       16.678      866.302
07/05/2014  06:29:00      -36.391      -35.152        9.744       38.517       34.416       22.791     1483.559     1184.459      519.443        0.292        0.159       50.596       20.463        0.164      341.805       16.774      866.328
07/05/2014  06:30:00      -99.331     -101.174      -13.964       49.680       53.315       36.451     2468.065     2842.515     1328.641        1.347        0.332      141.785       22.864        0.026      341.658       16.524      866.339
07/05/2014  06:31:00     -133.748     -110.346        3.259       51.265       46.613       34.322     2628.065     2172.755     1177.997        1.803        0.299      173.392       29.098        0.028      341.588       16.404      866.347
07/05/2014  06:32:00     -134.919      -77.557       -2.867       33.743       34.143       20.129     1138.579     1165.737      405.173        1.347        0.135      155.622       15.144        0.009      341.655       16.517      866.354
07/05/2014  06:33:00      -82.701      -62.937        0.775       52.596       33.949       23.997     2766.386     1152.531      575.878        0.765        0.225      103.925       30.780        0.088      341.708       16.608      866.359
07/05/2014  06:34:00      -77.923      -74.489        6.700       45.560       38.484       29.598     2075.728     1481.014      876.039        0.805        0.222      107.799       29.073        0.073      341.721       16.631      866.366
07/05/2014  06:35:00      -73.834      -43.054        0.553       28.579       26.596       20.963      816.764      707.329      439.434        0.463        0.098       85.470       17.137        0.040      341.776       16.722      866.355
07/05/2014  06:36:00      -41.958      -16.906       -3.490       16.814       15.054       10.548      282.705      226.619      111.268        0.134        0.031       45.236       11.299        0.062      341.776       16.723      866.357
07/05/2014  06:37:00      -41.390      -22.407       -3.455       10.264       10.571        9.297      105.341      111.754       86.438        0.127        0.015       47.066        3.682        0.006      341.843       16.837      866.360
07/05/2014  06:38:00        4.687      -39.349        1.760       19.838       18.973       15.864      393.546      359.975      251.678        0.129        0.050       39.627        7.116        0.032      341.782       16.733      866.359
07/05/2014  06:39:00      -25.907      -67.577        3.559       29.842       19.716       15.800      890.554      388.722      249.626        0.339        0.076       72.373       13.306        0.034      341.930       16.983      866.380
07/05/2014  06:40:00      -45.880      -66.789        5.228       63.340       58.940       26.299     4011.938     3473.892      691.639        0.738        0.409       81.029       39.108        0.233      341.977       17.065      866.385
07/05/2014  06:41:00      -73.662      -83.190        3.507       54.155       48.628       25.980     2932.738     2364.664      674.978        0.916        0.299      111.116       29.658        0.071      341.827       16.810      866.397
07/05/2014  06:42:00     -121.606      -95.253       -2.309       57.241       57.069       26.561     3276.527     3256.924      705.472        1.555        0.362      154.470       27.621        0.032      341.780       16.729      866.405
07/05/2014  06:43:00     -109.410      -68.410        4.696       51.500       33.631       21.941     2652.287     1131.074      481.412        1.047        0.213      129.037       21.876        0.029      341.859       16.865      866.415
07/05/2014  06:44:00     -107.406      -79.942       -5.796       38.205       33.570       20.182     1459.620     1126.939      407.330        1.048        0.150      133.891       17.036        0.016      341.880       16.899      866.439
07/05/2014  06:45:00     -126.290      -80.686       -4.830       63.404       37.878       20.138     4020.072     1434.731      405.553        1.417        0.293      149.864       22.603        0.023      341.838       16.830      866.446
07/05/2014  06:46:00      -89.191      -81.280        0.551       43.982       41.630       22.524     1934.438     1733.029      507.329        0.937        0.209      120.671       21.069        0.030      341.850       16.849      866.460
07/05/2014  06:47:00      -57.348      -61.653       10.539       37.004       32.966       27.395     1369.295     1086.763      750.481        0.520        0.160       84.201       20.230        0.058      341.913       16.957      866.468
07/05/2014  06:48:00      -41.629      -42.620        6.629       31.178       27.860       19.656      972.077      776.161      386.341        0.286        0.107       59.577       18.425        0.096      341.936       16.995      866.493
07/05/2014  06:49:00      -68.456      -73.012        0.553       39.524       28.407       18.629     1562.186      806.974      347.039        0.637        0.136      100.085       20.278        0.041      341.919       16.967      866.509
07/05/2014  06:50:00      -55.764      -90.151        0.950       28.999       31.641       23.684      840.916     1001.163      560.921        0.682        0.120      106.004       16.835        0.025      341.939       16.999      866.536
07/05/2014  06:51:00      -81.215      -80.117       -2.132       28.033       39.746       20.587      785.872     1579.773      423.845        0.790        0.139      114.081       17.238        0.023      341.977       17.065      866.545
07/05/2014  06:52:00     -104.683      -38.577       -4.825       16.711       33.120       14.129      279.257     1096.912      199.633        0.702        0.079      111.564       14.377        0.017      342.008       17.116      866.559
07/05/2014  06:53:00      -88.203      -50.398       -0.607       40.151       27.529       20.758     1612.093      757.856      430.874        0.656        0.140      101.587       23.230        0.052      342.053       17.194      866.570
07/05/2014  06:54:00      -35.195      -19.066       -2.290       29.458       21.033       15.674      867.769      442.380      245.689        0.158        0.078       40.027       16.812        0.176      342.180       17.409      866.563
07/05/2014  06:55:00      -14.468      -14.945       13.443       23.649       17.749       12.873      559.281      315.038      165.723        0.083        0.052       20.801       11.008        0.280      342.398       17.780      866.579
07/05/2014  06:56:00      -52.112      -66.740        4.631       33.992       40.112       22.852     1155.453     1608.998      522.220        0.524        0.164       84.675       21.320        0.063      342.275       17.570      866.579
07/05/2014  06:57:00      -60.480      -51.539        5.305       24.045       27.243       16.597      578.167      742.202      275.447        0.397        0.080       79.462       14.010        0.031      342.208       17.456      866.593
07/05/2014  06:58:00      -54.194      -40.459        4.139       20.956       16.796       12.766      439.163      282.098      162.982        0.274        0.044       67.631        8.660        0.016      342.212       17.463      866.593
07/05/2014  06:59:00      -33.675      -46.697        0.832       10.096       16.930        9.217      101.938      286.614       84.957        0.189        0.024       57.573        7.782        0.018      342.192       17.431      866.591
07/05/2014  07:00:00       -7.016      -36.903        4.193       12.072       10.990       10.291      145.732      120.780      105.899        0.090        0.019       37.564        2.720        0.005      342.295       17.604      866.585
07/05/2014  07:01:00       -2.999      -11.085      -11.663       19.914       17.759       19.999      396.559      315.398      399.966        0.069        0.056       11.483       14.675        1.633      342.398       17.780      866.577
07/05/2014  07:02:00       19.106       -0.797       16.927       23.587       17.126       22.085      556.341      293.297      487.727        0.099        0.067       19.123        7.702        0.162      342.451       17.871      866.585
07/05/2014  07:03:00        0.746       -6.477       15.260       17.474       14.450       15.949      305.352      208.796      254.376        0.052        0.038        6.520        9.226        2.002      342.526       17.998      866.579
07/05/2014  07:04:00      -25.286      -15.355       14.973       24.430       21.783       12.022      596.845      474.483      144.538        0.116        0.061       29.583       14.979        0.256      342.859       18.563      866.593
07/05/2014  07:05:00        0.634      -14.979       18.069       17.488       18.139       16.246      305.833      329.026      263.928        0.072        0.045       14.992       10.674        0.507      342.558       18.051      866.587
07/05/2014  07:06:00      -19.828      -17.312       14.042       35.805       27.231       14.925     1281.972      741.508      222.765        0.157        0.112       26.322       18.619        0.500      342.842       18.534      866.598
07/05/2014  07:07:00      -49.767      -42.143        9.369       29.629       31.393       19.727      877.880      985.547      389.153        0.330        0.113       65.213       18.648        0.082      342.541       18.024      866.601
07/05/2014  07:08:00      -30.336      -14.289       10.169       21.342       17.383       15.580      455.472      302.170      242.732        0.111        0.050       33.533       12.593        0.141      342.669       18.240      866.620
07/05/2014  07:09:00      -33.376      -11.791        2.613       16.403       12.519        6.231      269.044      156.727       38.828        0.086        0.023       35.398        5.459        0.024      342.577       18.085      866.628
07/05/2014  07:10:00      -36.692      -35.213        0.893       20.430       17.064       10.600      417.390      291.164      112.369        0.170        0.041       50.855        5.313        0.011      342.593       18.110      866.646
07/05/2014  07:11:00      -18.396      -33.377       -5.527       25.238       10.432       10.201      636.969      108.828      104.070        0.117        0.042       38.111       11.331        0.088      342.571       18.074      866.657
07/05/2014  07:12:00       10.421      -30.457       -5.343       19.517       21.827       19.502      380.896      476.432      380.317        0.115        0.062       32.190       14.762        0.210      342.302       17.616      866.658
07/05/2014  07:13:00       -6.270      -31.387        7.458        9.373       14.319       13.304       87.851      205.021      177.008        0.077        0.023       32.007        8.483        0.070      342.771       18.413      866.644
07/05/2014  07:14:00      -34.849      -11.476        6.977       19.865       14.982       10.147      394.607      224.466      102.971        0.106        0.036       36.690        9.433        0.066      342.823       18.501      866.619
07/05/2014  07:15:00      -33.044      -30.211        9.017       28.323       20.086       17.973      802.184      403.467      323.011        0.181        0.076       44.772       16.767        0.140      343.025       18.847      866.594
07/05/2014  07:16:00      -58.970      -27.682        3.211       44.033       19.807       21.521     1938.877      392.332      463.135        0.352        0.140       65.144       29.144        0.200      343.022       18.841      866.569
07/05/2014  07:17:00      -31.673        1.440       13.707       26.892       22.013       16.830      723.204      484.575      283.253        0.134        0.075       31.705       16.379        0.267      343.073       18.928      866.568
07/05/2014  07:18:00      -11.059        4.964        5.677       22.052       20.160       17.328      486.290      406.427      300.258        0.069        0.060       12.122       11.254        0.862      343.108       18.989      866.565
07/05/2014  07:19:00      -19.913      -16.661        1.632       24.227       18.473       23.690      586.937      341.268      561.203        0.108        0.074       25.964       14.729        0.322      343.053       18.894      866.577
07/05/2014  07:20:00       -5.780       -5.336       13.917       21.890       14.418       17.753      479.194      207.869      315.178        0.063        0.050        7.867       15.449        3.856      343.264       19.255      866.589
07/05/2014  07:21:00       21.066      -40.322        7.315       26.591       28.624       27.321      707.092      819.341      746.412        0.220        0.114       45.493       19.563        0.185      342.634       18.181      866.593
07/05/2014  07:22:00        4.039        9.271       15.681       14.833       20.143       19.557      220.015      405.733      382.463        0.068        0.050       10.113       11.103        1.205      343.312       19.336      866.601
07/05/2014  07:23:00      -17.584      -17.536        7.266       22.193       11.197       13.594      492.528      125.373      184.792        0.074        0.040       24.833       10.572        0.181      343.189       19.125      866.609
07/05/2014  07:24:00      -24.309       -3.818       16.553       20.063       18.436       13.009      402.510      339.886      169.225        0.090        0.046       24.607       11.380        0.214      343.534       19.714      866.618
07/05/2014  07:25:00      -46.837      -15.866        1.662       41.445       27.468       16.307     1717.699      754.500      265.922        0.259        0.137       49.451       13.706        0.077      343.120       19.008      866.634
07/05/2014  07:26:00      -53.148      -19.431        6.405       20.628       17.616       10.110      425.514      310.320      102.207        0.204        0.042       56.588        8.309        0.022      343.069       18.921      866.652
07/05/2014  07:27:00      -14.194        2.681       30.549       16.795       20.414       17.670      282.070      416.741      312.228        0.108        0.051       14.445       11.571        0.642      343.858       20.267      866.677
07/05/2014  07:28:00       26.713      -14.209        6.913       18.274       17.722       19.964      333.949      314.071      398.568        0.100        0.052       30.257       14.287        0.223      342.991       18.788      866.688
07/05/2014  07:29:00       20.268       -3.438       14.002       18.296       14.658       23.000      334.751      214.848      528.980        0.085        0.054       20.557       12.440        0.366      343.294       19.305      866.694
07/05/2014  07:30:00        6.427       -0.463       29.036       21.761       18.726       20.583      473.536      350.680      423.668        0.107        0.062        6.444       17.894        7.711      343.793       20.157      866.696
07/05/2014  07:31:00       20.128       -3.808        5.173       13.173       14.102       14.813      173.532      198.856      219.438        0.052        0.030       20.485        7.546        0.136      343.199       19.142      866.696
07/05/2014  07:32:00       26.453        8.137       13.505       16.462       12.748       16.573      270.992      162.516      274.658        0.083        0.035       27.676        6.069        0.048      343.102       18.979      866.699
07/05/2014  07:33:00       35.258        6.267       38.603       30.547       14.335       15.961      933.105      205.504      254.756        0.208        0.070       35.810        5.841        0.027      343.285       19.290      866.704
07/05/2014  07:34:00       22.015        6.334       11.955       31.045       29.202       28.085      963.810      852.772      788.739        0.164        0.130       22.909       21.703        0.898      343.287       19.292      866.724
07/05/2014  07:35:00       47.666      -16.347        8.882       22.637       21.059       23.234      512.419      443.477      539.836        0.206        0.075       50.391        7.369        0.021      342.989       18.785      866.747
07/05/2014  07:36:00        8.228       11.513       32.812       41.913       41.538       28.991     1756.706     1725.407      840.480        0.280        0.216       14.151       24.856        3.085      343.268       19.260      866.755
07/05/2014  07:37:00      -33.288        8.186       14.070       18.641       23.155       15.451      347.498      536.140      238.723        0.125        0.056       34.280       11.715        0.117      343.481       19.622      866.759
07/05/2014  07:38:00      -26.158        8.613       10.097       38.959       22.805       28.805     1517.836      520.090      829.703        0.186        0.143       27.540       19.930        0.524      343.822       20.206      866.746
07/05/2014  07:39:00      -33.587       -6.731        5.642       23.125       23.062       17.552      534.782      531.872      308.066        0.129        0.069       34.255       13.485        0.155      343.536       19.717      866.737
07/05/2014  07:40:00      -46.541      -21.574        2.104       17.245       13.734        9.508      297.389      188.635       90.396        0.161        0.029       51.298        7.720        0.023      343.399       19.483      866.725
07/05/2014  07:41:00      -29.688        6.899        6.101        8.457       12.560       12.503       71.513      157.766      156.316        0.068        0.019       30.479        7.862        0.067      343.553       19.745      866.726
07/05/2014  07:42:00        3.313       -7.221       15.769       21.248       17.706       29.403      451.471      313.512      864.532        0.097        0.081        7.944       19.915        6.284      344.250       20.938      866.723
07/05/2014  07:43:00       20.234       -9.509       13.064       23.783       22.144       25.514      565.628      490.340      650.976        0.119        0.085       22.357       15.382        0.473      343.573       19.780      866.721
07/05/2014  07:44:00       12.438       -5.908       20.426       20.943       19.267       23.361      438.602      371.226      545.750        0.098        0.068       13.770       19.085        1.921      344.081       20.649      866.720
07/05/2014  07:45:00       32.519       12.445       16.543       24.862       13.793       24.871      618.117      190.260      618.590        0.146        0.071       34.819       20.609        0.350      343.618       19.856      866.734
07/05/2014  07:46:00       33.248        5.156       10.099       22.665       21.278       22.619      513.718      452.732      511.640        0.136        0.074       33.645       10.563        0.099      343.247       19.224      866.740
07/05/2014  07:47:00       12.199        3.454       23.609       23.856       15.257       25.206      569.121      232.764      635.341        0.108        0.072       12.679       17.929        2.000      344.083       20.651      866.741
07/05/2014  07:48:00       16.385       11.187        0.886       19.531       21.376       21.998      381.465      456.929      483.895        0.086        0.066       19.840       12.165        0.376      343.751       20.084      866.755
07/05/2014  07:49:00       26.934      -19.283       16.601       43.688       20.883       31.009     1908.667      436.088      961.544        0.234        0.165       33.125       29.592        0.798      343.941       20.410      866.762
07/05/2014  07:50:00       62.488      -16.348       12.479       50.775       49.217       41.932     2578.132     2422.312     1758.307        0.554        0.338       64.591       33.703        0.272      343.300       19.313      866.769
07/05/2014  07:51:00       46.506      -29.092       27.335       52.431       44.190       29.198     2748.968     1952.767      852.524        0.465        0.278       54.855       30.696        0.313      343.651       19.914      866.768
07/05/2014  07:52:00       31.235      -25.434       31.843       39.321       33.751       30.942     1546.124     1139.153      957.428        0.314        0.182       40.280       25.109        0.389      343.731       20.051      866.760
07/05/2014  07:53:00       31.869      -38.822       22.316       29.339       39.729       35.305      860.763     1578.406     1246.409        0.335        0.184       50.227       24.275        0.234      343.542       19.728      866.756
07/05/2014  07:54:00       53.000      -75.098       -5.778       45.314       42.285       32.101     2053.356     1788.044     1030.479        0.668        0.244       91.917       29.738        0.105      343.408       19.497      866.752
07/05/2014  07:55:00       10.883      -27.291       17.652       34.686       62.220       40.377     1203.124     3871.314     1630.313        0.394        0.335       29.381       40.903        1.938      344.056       20.604      866.750
07/05/2014  07:56:00       10.833       10.960       41.591       43.163       35.005       32.765     1863.031     1225.322     1073.548        0.306        0.208       15.410       28.937        3.526      344.081       20.649      866.757
07/05/2014  07:57:00       25.254      -11.954       16.912       40.381       38.589       26.218     1630.643     1489.101      687.398        0.244        0.190       27.940       17.470        0.391      344.005       20.518      866.763
07/05/2014  07:58:00       52.251       22.995       52.649       40.335       43.268       26.365     1626.906     1872.078      695.137        0.511        0.210       57.087       17.340        0.092      343.963       20.445      866.773
07/05/2014  07:59:00      114.285       65.134       13.881       36.496       37.388       31.756     1331.964     1397.876     1008.413        1.062        0.187      131.543       20.070        0.023      343.988       20.488      866.790
07/05/2014  08:00:00      142.167       84.797       38.803       33.296       26.401       33.743     1108.632      696.991     1138.603        1.593        0.147      165.535       22.920        0.019      343.783       20.137      866.806
07/05/2014  08:01:00      116.731       47.930       24.444       48.191       35.699       33.821     2322.369     1274.413     1143.846        1.063        0.237      126.188       22.449        0.032      343.930       20.389      866.816
07/05/2014  08:02:00      143.540       95.477       46.816       41.124       36.727       43.565     1691.163     1348.872     1897.933        1.842        0.247      172.394       21.277        0.015      343.802       20.169      866.833
07/05/2014  08:03:00       87.377       68.616       29.608       33.751       37.065       34.655     1139.161     1373.812     1200.965        0.847        0.186      111.098       19.616        0.031      344.116       20.707      866.834
07/05/2014  08:04:00       32.240        9.747       20.917       37.581       46.232       27.667     1412.358     2137.428      765.469        0.294        0.216       33.681       12.660        0.141      344.437       21.254      866.835
07/05/2014  08:05:00      149.439      101.227        4.116       49.338       34.042       36.828     2434.214     1158.831     1356.298        1.877        0.247      180.496        5.063        0.001      344.053       20.598      866.828
07/05/2014  08:06:00       97.966       63.876        2.999       58.497       38.329       32.399     3421.957     1469.117     1049.707        0.981        0.297      116.951       24.982        0.046      344.077       20.639      866.827
07/05/2014  08:07:00      120.653       50.272       44.145       58.405       50.087       34.395     3411.191     2508.740     1182.994        1.307        0.355      130.708       29.632        0.051      344.030       20.561      866.812
07/05/2014  08:08:00       42.106       46.741       29.251       51.679       35.589       30.409     2670.743     1266.581      924.730        0.484        0.243       62.910       19.023        0.091      344.274       20.978      866.817
07/05/2014  08:09:00      175.362       94.762       27.968       56.037       55.654       40.715     3140.189     3097.382     1657.710        2.420        0.395      199.328       37.121        0.035      344.077       20.637      866.820
07/05/2014  08:10:00       91.076       59.826       44.254       47.517       60.260       43.191     2257.864     3631.269     1865.441        1.079        0.388      108.968       19.595        0.032      344.320       21.054      866.825
07/05/2014  08:11:00       73.557       60.462       37.145       66.706       39.054       47.926     4449.700     1525.189     2296.896        0.936        0.414       95.217       30.939        0.106      344.266       20.963      866.823
07/05/2014  08:12:00      129.267       86.661       19.829       69.169       48.991       50.275     4784.313     2400.093     2527.612        1.716        0.486      155.628       25.361        0.027      344.141       20.747      866.829
07/05/2014  08:13:00      144.674       86.265       15.224       61.367       51.855       34.710     3765.851     2688.895     1204.802        1.813        0.383      168.441       16.653        0.010      344.157       20.775      866.828
07/05/2014  08:14:00      150.503       90.536       23.732       60.174       42.700       39.618     3620.953     1823.322     1569.580        1.921        0.351      175.636       26.977        0.024      344.183       20.818      866.842
07/05/2014  08:15:00      143.328      112.731       60.188       67.039       48.478       55.186     4494.212     2350.140     3045.550        2.338        0.494      182.349       42.787        0.055      344.059       20.606      866.849
07/05/2014  08:16:00      110.625       64.517       23.478       82.959       42.675       50.360     6882.119     1821.167     2536.082        1.409        0.562      128.064       38.131        0.089      344.153       20.767      866.874
07/05/2014  08:17:00       74.894       46.110       33.888       84.252       65.216       33.152     7098.400     4253.153     1099.072        1.067        0.623       87.951       15.669        0.032      344.191       20.835      866.881
07/05/2014  08:18:00       46.248       46.028       41.629       58.233       38.553       36.760     3391.054     1486.328     1351.288        0.611        0.311       65.249       26.956        0.171      344.280       20.988      866.895
07/05/2014  08:19:00      158.798      102.942       -1.376       68.201       44.157       49.992     4651.433     1949.830     2499.160        2.246        0.455      189.246       27.616        0.021      344.056       20.601      866.908
07/05/2014  08:20:00       82.562       70.616       17.833       53.862       35.700       35.476     2901.121     1274.459     1258.515        0.878        0.272      108.642       13.722        0.016      344.364       21.130      866.919
07/05/2014  08:21:00      181.196      111.256       17.731       57.446       39.466       43.205     3300.001     1557.537     1866.710        2.612        0.336      212.626       24.961        0.014      344.073       20.631      866.919
07/05/2014  08:22:00      125.187       88.136       42.980       37.329       39.376       38.266     1393.423     1550.450     1464.319        1.485        0.220      153.100       22.393        0.021      344.064       20.618      866.923
07/05/2014  08:23:00       52.974       25.707       27.906       37.041       24.107       24.301     1372.010      581.143      590.548        0.339        0.127       58.882       19.470        0.109      344.702       21.710      866.925
07/05/2014  08:24:00       94.668       69.494        8.397       65.083       57.466       35.591     4235.802     3302.336     1266.698        1.133        0.440      117.437       28.981        0.061      344.605       21.541      866.931
07/05/2014  08:25:00       84.099       78.268       18.690       45.680       34.759       44.462     2086.631     1208.195     1976.880        0.941        0.264      114.885       30.412        0.070      344.450       21.279      866.927
07/05/2014  08:26:00       53.948       61.577       11.762       50.727       59.420       51.177     2573.201     3530.687     2619.061        0.778        0.436       81.866       41.798        0.261      344.432       21.247      866.918
07/05/2014  08:27:00       92.699       68.956       16.451       57.687       37.809       30.822     3327.842     1429.509      949.989        0.966        0.285      115.533       16.801        0.021      344.464       21.302      866.913
07/05/2014  08:28:00       73.636       52.946       12.117       38.447       37.663       35.769     1478.198     1418.523     1279.442        0.627        0.209       90.695       12.953        0.020      344.454       21.284      866.912
07/05/2014  08:29:00       39.140       33.242        6.505       44.667       28.788       25.715     1995.127      828.768      661.254        0.308        0.174       51.351       26.571        0.268      344.686       21.680      866.923
07/05/2014  08:30:00       33.542       32.737       10.373       51.321       27.568       24.156     2633.822      760.006      583.504        0.314        0.199       46.870        9.061        0.037      344.380       21.158      866.923
07/05/2014  08:31:00       14.435       35.266        9.557       26.262       30.591       25.769      689.672      935.835      664.023        0.192        0.114       38.105       16.623        0.190      344.726       21.749      866.933
07/05/2014  08:32:00       -5.544       -7.382        5.963       23.419       16.481       18.409      548.442      271.634      338.892        0.064        0.058        9.233        8.437        0.835      344.715       21.731      866.930
07/05/2014  08:33:00      -36.869        2.212       -6.096       12.717       24.964       14.397      161.715      623.187      207.262        0.120        0.050       36.935       12.985        0.124      344.346       21.100      866.925
07/05/2014  08:34:00      -52.205        2.755       -5.148       23.058       26.329       10.961      531.672      693.210      120.150        0.205        0.067       52.277       10.686        0.042      344.330       21.072      866.921
07/05/2014  08:35:00      -10.692       46.397        6.365       26.756       40.873       25.640      715.859     1670.569      657.420        0.268        0.152       47.613       24.616        0.267      345.119       22.422      866.947
07/05/2014  08:36:00       24.950       43.471        1.882       24.697       38.878       30.689      609.942     1511.483      941.805        0.279        0.153       50.122       10.533        0.044      344.875       22.006      866.971
07/05/2014  08:37:00      -40.069       21.970        0.421       33.632       19.366       22.005     1131.122      375.033      484.198        0.204        0.100       45.697       22.667        0.246      344.870       21.995      866.986
07/05/2014  08:38:00      -56.358       -3.618       -3.637       14.153       15.938       10.310      200.298      254.012      106.302        0.188        0.028       56.474        4.905        0.008      344.485       21.337      866.978
07/05/2014  08:39:00      -32.975       13.373       10.086       17.073       17.667       19.235      291.486      312.134      369.974        0.117        0.049       35.584       10.528        0.088      344.907       22.058      866.989
07/05/2014  08:40:00      -24.027       -4.629       21.830       10.127       12.492        7.716      102.558      156.042       59.534        0.070        0.016       24.469        6.422        0.069      345.068       22.334      866.992
07/05/2014  08:41:00      -24.809       -6.523        5.773       12.921        9.619        8.753      166.949       92.520       76.611        0.051        0.017       25.653        4.592        0.032      344.795       21.867      867.002
07/05/2014  08:42:00      -19.801       -2.832        2.972       18.724       11.912       15.476      350.584      141.903      239.494        0.057        0.037       20.003        7.353        0.135      345.247       22.642      867.003
07/05/2014  08:43:00      -13.215       -0.856       22.022       15.526       12.907       17.093      241.051      166.578      292.176        0.068        0.035       13.243       10.337        0.609      345.639       23.313      867.007
07/05/2014  08:44:00        4.943       27.092       48.602       18.345       26.324       14.597      336.546      692.949      213.064        0.218        0.062       27.539       10.000        0.132      345.848       23.672      867.015
07/05/2014  08:45:00       -2.967       17.310       50.325       19.100       29.500       27.248      364.819      870.255      742.457        0.241        0.099       17.562       24.982        2.023      345.968       23.879      867.004
07/05/2014  08:46:00       28.003        9.689       31.373       28.850       41.856       25.012      832.351     1751.931      625.624        0.254        0.160       29.632       23.218        0.614      345.549       23.159      867.000
07/05/2014  08:47:00       41.116       50.405       -0.174       31.098       24.050       25.116      967.116      578.396      630.801        0.320        0.109       65.047       22.539        0.120      345.505       23.083      866.996
07/05/2014  08:48:00       16.799       32.576       26.485       26.161       29.113       27.898      684.404      847.566      778.283        0.218        0.116       36.652       20.381        0.309      345.804       23.598      866.993
07/05/2014  08:49:00       13.853       47.160       38.916       33.603       23.651       45.787     1129.177      559.383     2096.412        0.386        0.189       49.152       31.199        0.403      345.605       23.255      866.997
07/05/2014  08:50:00       62.234       45.598       43.692       36.014       33.318       32.837     1297.015     1110.057     1078.242        0.567        0.174       77.151       26.086        0.114      345.222       22.598      867.001
07/05/2014  08:51:00       54.059       45.458       26.786       33.948       41.319       34.698     1152.461     1707.284     1203.968        0.488        0.203       70.631       28.410        0.162      345.171       22.513      866.996
07/05/2014  08:52:00       14.447       21.136        8.505       32.690       21.001       25.595     1068.665      441.055      655.113        0.145        0.108       25.601        4.363        0.029      345.581       23.214      866.998
07/05/2014  08:53:00        0.145       23.683       23.657       23.159       28.255       21.035      536.353      798.346      442.465        0.145        0.089       23.684       15.400        0.423      346.038       23.997      866.997
07/05/2014  08:54:00        6.964       16.318       29.948       20.352       23.530       23.657      414.200      553.663      559.670        0.137        0.076       17.742       17.914        1.020      346.221       24.313      866.993
07/05/2014  08:55:00        1.900       10.590       31.060       16.955       24.221       15.297      287.459      586.663      234.011        0.109        0.055       10.759       12.289        1.305      346.547       24.872      866.991
07/05/2014  08:56:00       44.195       26.303       17.593       52.480       38.012       30.657     2754.119     1444.877      939.826        0.405        0.257       51.430       23.988        0.218      345.729       23.468      866.993
07/05/2014  08:57:00       -0.966       27.295       40.758       27.610       26.022       24.543      762.312      677.126      602.370        0.222        0.102       27.312       22.894        0.703      346.567       24.909      866.991
07/05/2014  08:58:00       23.098       45.620        7.112       24.785       35.285       29.754      614.292     1245.019      885.272        0.270        0.137       51.135       27.411        0.287      346.004       23.941      866.978
07/05/2014  08:59:00       27.444       40.273       11.109       27.415       37.302       24.168      751.600     1391.446      584.070        0.261        0.136       48.735       20.094        0.170      346.037       23.996      866.978
07/05/2014  09:00:00        6.582       15.220       13.380       20.960       25.508       24.096      439.336      650.651      580.594        0.106        0.084       16.582       15.124        0.832      346.312       24.469      866.964
07/05/2014  09:01:00       16.689       40.269       22.272       31.547       35.986       20.384      995.229     1295.022      415.497        0.255        0.135       43.591       16.855        0.150      346.394       24.611      866.953
07/05/2014  09:02:00       36.174       69.205        5.046       33.010       45.933       27.792     1089.650     2109.822      772.397        0.505        0.199       78.089       21.248        0.074      346.084       24.077      866.942
07/05/2014  09:03:00       21.676       77.234       28.218       44.214       55.789       36.416     1954.874     3112.423     1326.095        0.681        0.320       80.218       33.574        0.175      346.407       24.632      866.942
07/05/2014  09:04:00       51.262       61.161       44.153       41.505       42.477       31.956     1722.692     1804.321     1021.211        0.643        0.227       79.803       13.159        0.027      346.231       24.332      866.939
07/05/2014  09:05:00       22.778       14.950       38.181       24.897       43.446       29.079      619.881     1887.535      845.564        0.278        0.168       27.246       28.333        1.081      346.000       23.932      866.936
07/05/2014  09:06:00        0.854      -63.195       -0.445       17.144       37.067       28.248      293.933     1373.999      797.945        0.323        0.123       63.200       12.641        0.040      345.665       23.358      866.934
07/05/2014  09:07:00       37.735       28.426        2.823       38.374       21.347       36.798     1472.535      455.679     1354.086        0.276        0.164       47.244       19.201        0.165      345.738       23.484      866.931
07/05/2014  09:08:00      -12.150       -6.819       18.825       16.553       15.677       16.546      274.018      245.771      273.761        0.067        0.040       13.933       10.680        0.588      346.423       24.660      866.929
07/05/2014  09:09:00       -6.972       14.186       18.315       35.736       23.113       24.200     1277.097      534.204      585.618        0.149        0.120       15.807       28.031        3.145      346.213       24.300      866.930
07/05/2014  09:10:00       -1.182        7.784       25.424       17.953       16.182       16.523      322.318      261.846      273.016        0.078        0.043        7.873        9.764        1.538      347.066       25.767      866.935
07/05/2014  09:11:00       74.368       39.629       33.106       41.410       26.955       34.251     1714.782      726.545     1173.120        0.591        0.181       84.268       19.627        0.054      346.350       24.533      866.945
07/05/2014  09:12:00       28.365       65.209        6.475       31.371       47.592       29.260      984.170     2264.976      856.171        0.460        0.205       71.111       31.602        0.197      346.399       24.620      866.946
07/05/2014  09:13:00       21.714       68.747        2.266       33.566       36.919       29.515     1126.699     1363.030      871.142        0.428        0.168       72.094       22.425        0.097      346.404       24.627      866.952
07/05/2014  09:14:00       44.648       86.808       -6.329       28.134       39.618       32.849      791.531     1569.577     1079.062        0.650        0.172       97.617       27.350        0.079      346.236       24.338      866.948
07/05/2014  09:15:00       45.486       66.935      -12.766       26.557       30.996       23.914      705.251      960.738      571.863        0.447        0.112       80.928       10.735        0.018      346.043       24.007      866.939
07/05/2014  09:16:00       47.584       18.447       12.752       17.202       20.556       18.907      295.923      422.534      357.460        0.192        0.054       51.034        7.228        0.020      346.114       24.130      866.936
07/05/2014  09:17:00       18.226       28.089       41.033       26.175       32.451       18.457      685.147     1053.098      340.650        0.244        0.104       33.484        4.658        0.019      346.733       25.193      866.934
07/05/2014  09:18:00       43.661       34.851        4.128       41.322       51.471       34.574     1707.545     2649.216     1195.383        0.434        0.278       55.865       24.157        0.187      346.651       25.051      866.928
07/05/2014  09:19:00       76.699       55.728       19.886       53.745       32.298       39.025     2888.531     1043.180     1522.988        0.742        0.273       94.807       38.203        0.162      346.270       24.398      866.923
07/05/2014  09:20:00       68.952       70.029       33.410       25.539       20.618       23.905      652.235      425.090      571.437        0.621        0.082       98.277       17.548        0.032      346.102       24.109      866.914
07/05/2014  09:21:00       49.977       71.977      -11.288       31.386       24.014       24.086      985.075      576.669      580.132        0.497        0.107       87.626       11.020        0.016      346.429       24.670      866.912
07/05/2014  09:22:00       57.389       38.725       46.105       39.277       44.808       27.135     1542.698     2007.737      736.309        0.560        0.214       69.233       16.317        0.056      346.589       24.947      866.902
07/05/2014  09:23:00       49.561       52.324       40.602       38.102       45.343       32.768     1451.757     2056.029     1073.728        0.571        0.229       72.070       13.949        0.037      346.642       25.035      866.893
07/05/2014  09:24:00       30.251       44.597       51.336       34.279       33.383       29.759     1175.033     1114.403      885.601        0.436        0.159       53.889       18.368        0.116      347.035       25.713      866.884
07/05/2014  09:25:00       17.256       25.746       26.361       29.050       32.919       31.755      843.879     1083.648     1008.359        0.230        0.147       30.994       23.756        0.587      347.256       26.094      866.881
07/05/2014  09:26:00       49.840       42.705       12.796       25.796       32.979       30.521      665.449     1087.616      931.524        0.358        0.134       65.633       22.307        0.116      346.772       25.261      866.880
07/05/2014  09:27:00       74.471       64.999       21.175       27.447       26.206       28.825      753.314      686.762      830.876        0.624        0.114       98.847       16.998        0.030      346.495       24.783      866.873
07/05/2014  09:28:00        1.228       12.238       40.475       25.322       28.556       28.662      641.205      815.419      821.516        0.203        0.114       12.299       16.119        1.718      347.370       26.291      866.866
07/05/2014  09:29:00       30.775       44.767       60.358       37.820       50.643       42.007     1430.358     2564.671     1764.627        0.618        0.288       54.324       26.123        0.231      346.888       25.461      866.860
07/05/2014  09:30:00       62.386       59.633       39.361       60.619       31.294       47.387     3674.683      979.294     2245.568        0.795        0.345       86.303       34.384        0.159      346.616       24.992      866.848
07/05/2014  09:31:00       79.701       43.828        4.002       30.358       19.331       34.664      921.613      373.697     1201.593        0.539        0.125       90.957       21.606        0.056      346.469       24.740      866.848
07/05/2014  09:32:00       77.307      -12.914       -4.426       31.767       29.267       32.424     1009.172      856.568     1051.319        0.454        0.146       78.378       19.186        0.060      346.597       24.959      866.844
07/05/2014  09:33:00      -16.004       51.663       19.758       29.516       48.152       42.697      871.193     2318.601     1823.043        0.416        0.251       54.085       28.242        0.273      346.996       25.648      866.839
07/05/2014  09:34:00        1.111       37.335       10.110       20.589       41.294       32.694      423.921     1705.231     1068.904        0.235        0.160       37.352       29.552        0.626      346.994       25.644      866.843
07/05/2014  09:35:00       22.143       30.422       24.854       29.087       26.598       26.457      846.080      707.446      699.947        0.214        0.113       37.627       18.918        0.253      346.947       25.561      866.840
07/05/2014  09:36:00       -3.358       16.437       29.339       22.773       18.760       19.425      518.591      351.927      377.323        0.119        0.062       16.776       14.854        0.784      347.348       26.252      866.839
07/05/2014  09:37:00       20.398       48.684        9.717       38.147       41.552       32.802     1455.224     1726.528     1075.947        0.357        0.213       52.784       28.209        0.286      346.958       25.580      866.827
07/05/2014  09:38:00       62.105       67.320        7.243       54.308       55.305       43.235     2949.409     3058.670     1869.257        0.816        0.394       91.591       35.241        0.148      346.961       25.587      866.819
07/05/2014  09:39:00      113.392      120.912        7.979       42.000       35.518       38.649     1764.004     1261.538     1493.755        1.603        0.226      165.763       25.677        0.024      346.521       24.828      866.807
07/05/2014  09:40:00       15.217        9.155       19.453       52.655       62.488       28.528     2772.544     3904.809      813.866        0.409        0.375       17.758       13.322        0.563      346.677       25.097      866.803
07/05/2014  09:41:00       20.602       12.686       26.616       59.683       37.526       32.718     3562.048     1408.227     1070.477        0.367        0.302       24.195       26.816        1.228      347.385       26.318      866.800
07/05/2014  09:42:00       55.858       54.977       25.723       39.623       30.029       38.154     1570.013      901.766     1455.745        0.537        0.196       78.375       14.759        0.035      346.670       25.084      866.782
07/05/2014  09:43:00       80.159       78.421       34.239       51.581       32.602       39.348     2660.602     1062.918     1548.300        0.951        0.264      112.140       33.133        0.087      346.898       25.478      866.768
07/05/2014  09:44:00       22.369      -48.712       24.331       32.006       56.304       26.358     1024.355     3170.089      694.767        0.418        0.244       53.602       27.082        0.255      346.908       25.495      866.767
07/05/2014  09:45:00       19.012        1.866       32.353       26.312       58.968       29.555      692.337     3477.249      873.470        0.323        0.252       19.103       26.262        1.890      347.078       25.787      866.760
07/05/2014  09:46:00       35.818       33.170       14.891       31.160       33.872       28.459      970.946     1147.281      809.932        0.277        0.146       48.818       17.905        0.135      347.158       25.924      866.757
07/05/2014  09:47:00        7.628       62.541       -5.049       19.351       36.523       34.515      374.468     1333.904     1191.317        0.345        0.145       63.005       29.186        0.215      346.958       25.582      866.749
07/05/2014  09:48:00       16.742       40.921       15.949       30.241       40.112       36.149      914.516     1609.009     1306.750        0.302        0.192       44.213       32.296        0.534      347.384       26.315      866.734
07/05/2014  09:49:00      -16.957       37.201        2.607       20.913       24.455       26.238      437.336      598.066      688.417        0.170        0.086       40.883       13.407        0.108      347.202       26.002      866.724
07/05/2014  09:50:00      -41.532       27.405        3.427       27.624       41.113       25.701      763.098     1690.297      660.536        0.280        0.156       49.759       19.784        0.158      347.075       25.783      866.715
07/05/2014  09:51:00      -63.220      -30.622      -22.981       28.448       20.220       11.636      809.276      408.843      135.399        0.341        0.068       70.246       11.095        0.025      346.610       24.981      866.700
07/05/2014  09:52:00      -30.867      -45.602       -4.188       23.997       26.266       19.770      575.864      689.879      390.860        0.235        0.083       55.066       13.400        0.059      346.670       25.085      866.698
07/05/2014  09:53:00      -28.478      -67.404      -12.284       23.127       22.193       19.479      534.867      492.520      379.445        0.346        0.070       73.173        2.962        0.002      346.682       25.104      866.695
07/05/2014  09:54:00        1.337      -27.821       -3.218       32.805       17.721       25.267     1076.176      314.041      638.419        0.141        0.101       27.853       22.015        0.625      347.036       25.715      866.685
07/05/2014  09:55:00       -2.864       -0.915       17.100       27.176       23.549       22.942      738.534      554.538      526.341        0.106        0.091        3.007       15.239       25.686      347.958       27.306      866.675
07/05/2014  09:56:00        3.106      -46.949       -7.287       35.216       25.435       21.487     1240.163      646.927      461.692        0.231        0.117       47.051       15.143        0.104      347.296       26.162      866.664
07/05/2014  09:57:00      -17.258      -11.657        9.831       20.486       19.009       22.397      419.684      361.332      501.641        0.091        0.064       20.826       16.466        0.625      347.856       27.131      866.660
07/05/2014  09:58:00       -9.197        0.151       35.943       13.882       12.350       11.503      192.701      152.513      132.324        0.093        0.024        9.199        7.869        0.732      348.802       28.765      866.660
07/05/2014  09:59:00      -39.095       10.333       20.263       25.683       15.941       20.009      659.605      254.103      400.375        0.168        0.066       40.437       20.476        0.256      347.821       27.070      866.658
07/05/2014  10:00:00      -33.075        2.982       11.459       14.376       19.696       19.221      206.672      387.937      369.445        0.110        0.048       33.209       16.696        0.253      347.518       26.547      866.661
07/05/2014  10:01:00      -15.448      -18.146       19.141       16.900       20.752       20.095      285.620      430.635      403.819        0.103        0.056       23.831       15.331        0.414      347.923       27.245      866.662
07/05/2014  10:02:00      -39.879      -30.846        7.283       38.033       36.614       20.082     1446.542     1340.606      403.301        0.289        0.160       50.416       23.171        0.211      347.760       26.963      866.663
07/05/2014  10:03:00      -27.792      -32.601        1.895       57.024       28.159       20.764     3251.756      792.909      431.130        0.316        0.224       42.839       24.805        0.335      347.409       26.357      866.676
07/05/2014  10:04:00      -20.386      -19.361        8.135       26.702       24.676       15.266      712.995      608.893      233.039        0.121        0.078       28.115       10.369        0.136      347.636       26.751      866.676
07/05/2014  10:05:00      -11.427      -20.813       -0.173       15.134       13.804       15.448      229.037      190.548      238.630        0.061        0.033       23.743        4.837        0.042      347.428       26.391      866.677
07/05/2014  10:06:00      -24.842       16.828       16.173       13.403       17.346       14.379      179.637      300.890      206.743        0.092        0.034       30.006        4.102        0.019      347.932       27.260      866.678
07/05/2014  10:07:00        8.013       50.323       50.364       37.113       36.803       37.647     1377.341     1354.469     1417.298        0.464        0.207       50.957       25.890        0.258      348.170       27.673      866.663
07/05/2014  10:08:00       59.322       37.065       37.097       41.071       39.443       38.915     1686.822     1555.776     1514.340        0.551        0.238       69.950       30.696        0.193      347.566       26.628      866.647
07/05/2014  10:09:00       93.291      101.528       74.426       39.845       24.954       39.479     1587.655      622.717     1558.600        1.416        0.188      137.881       23.982        0.030      347.371       26.290      866.638
07/05/2014  10:10:00       98.198       84.881       61.032       41.452       31.555       39.111     1718.289      995.732     1529.679        1.241        0.212      129.798       30.448        0.055      347.267       26.113      866.632
07/05/2014  10:11:00       -1.568       25.475       33.222       35.805       43.585       31.896     1281.992     1899.628     1017.365        0.298        0.210       25.523       21.203        0.690      347.854       27.126      866.634
07/05/2014  10:12:00       35.198       23.460       44.245       38.209       51.630       38.322     1459.914     2665.656     1468.574        0.467        0.280       42.300       28.317        0.448      347.772       26.983      866.637
07/05/2014  10:13:00      -26.476       12.472       -3.998       28.330       14.511       18.583      802.588      210.557      345.316        0.112        0.068       29.267       13.876        0.225      347.590       26.670      866.634
07/05/2014  10:14:00       -8.359      -17.779       22.998       22.577       52.924       31.679      509.724     2800.959     1003.590        0.261        0.216       19.646       33.686        2.940      348.367       28.012      866.623
07/05/2014  10:15:00       28.878      -10.113       33.084       37.825       67.409       40.879     1430.754     4544.026     1671.077        0.484        0.382       30.597       51.213        2.802      348.028       27.427      866.608
07/05/2014  10:16:00        9.010      -13.956       27.703       23.834       49.996       39.775      568.066     2499.595     1582.076        0.285        0.232       16.611       33.064        3.962      348.263       27.831      866.593
07/05/2014  10:17:00      -24.573      -31.821        3.406       31.551       22.999       19.731      995.446      528.938      389.313        0.177        0.096       40.204       11.183        0.077      347.794       27.020      866.588
07/05/2014  10:18:00      -44.493      -50.228        4.437       39.972       40.175       18.649     1597.765     1614.010      347.790        0.404        0.178       67.100       17.787        0.070      347.869       27.151      866.573
07/05/2014  10:19:00      -66.785      -23.319       -3.452       28.066       31.418       20.789      787.674      987.079      432.164        0.361        0.110       70.739       15.214        0.046      347.568       26.632      866.560
07/05/2014  10:20:00      -26.934       -5.062       18.798       26.106       30.692       18.724      681.529      942.029      350.584        0.154        0.099       27.406       15.638        0.326      348.367       28.012      866.541
07/05/2014  10:21:00      -42.116      -47.806       -2.684       20.273       19.510       16.156      410.986      380.651      261.026        0.256        0.053       63.712        7.730        0.015      347.346       26.249      866.532
07/05/2014  10:22:00        0.583      -25.411       18.415        9.501       22.792       17.834       90.278      519.486      318.038        0.096        0.046       25.418       11.059        0.189      347.970       27.328      866.521
07/05/2014  10:23:00        7.626       23.225       30.339       31.433       35.953       29.242      988.010     1292.637      855.121        0.233        0.157       24.445       20.245        0.686      348.811       28.780      866.508
07/05/2014  10:24:00      116.691      105.804       37.359       60.592       54.500       56.449     3671.421     2970.253     3186.501        1.802        0.491      157.516       39.332        0.062      348.054       27.469      866.496
07/05/2014  10:25:00       10.612       50.953       88.976       44.068       72.099       50.343     1941.971     5198.221     2534.445        1.015        0.484       52.046       48.708        0.876      348.494       28.230      866.469
07/05/2014  10:26:00       89.521      125.629       84.579       65.013       67.778       73.145     4226.634     4593.874     5350.124        2.256        0.709      154.262       59.082        0.147      347.884       27.173      866.456
07/05/2014  10:27:00       66.578       85.632      112.927       70.100       51.308       38.903     4913.993     2632.548     1513.467        1.679        0.453      108.469       37.771        0.121      348.098       27.545      866.459
07/05/2014  10:28:00       16.875        5.052       38.068       61.358       52.842       30.782     3764.832     2792.271      947.550        0.463        0.375       17.615       20.237        1.320      348.751       28.675      866.460
07/05/2014  10:29:00        6.142       52.430       78.713       33.079       50.543       35.592     1094.251     2554.609     1266.819        0.695        0.246       52.789       31.755        0.362      348.749       28.672      866.476
07/05/2014  10:30:00       23.459       69.517       75.127       38.682       43.614       29.342     1496.295     1902.221      860.971        0.764        0.213       73.368       19.908        0.074      348.148       27.634      866.492
07/05/2014  10:31:00        7.467      -25.477       15.101       60.140       47.950       39.125     3616.876     2299.193     1530.763        0.419        0.372       26.548       37.259        1.970      348.199       27.723      866.492
07/05/2014  10:32:00       72.899       63.836       69.953       71.995       57.338       46.600     5183.338     3287.702     2171.577        1.246        0.532       96.898       37.255        0.148      348.185       27.698      866.473
07/05/2014  10:33:00       27.665      -14.277       52.543       50.764       82.525       53.159     2576.990     6810.420     2825.878        0.797        0.611       31.132       48.987        2.476      348.456       28.165      866.454
07/05/2014  10:34:00       34.527      -33.769       43.263       54.699       84.226       55.158     2991.971     7093.953     3042.373        0.866        0.656       48.296       59.136        1.499      348.665       28.526      866.440
07/05/2014  10:35:00       19.519       51.949       70.231       46.699       60.379       43.808     2180.766     3645.615     1919.148        0.788        0.387       55.495       45.106        0.661      348.538       28.308      866.434
07/05/2014  10:36:00      127.572       95.170       21.693       70.857       58.824       57.814     5020.783     3460.239     3342.409        1.881        0.591      159.160       47.635        0.090      348.147       27.629      866.438
07/05/2014  10:37:00       83.346       69.642       16.420       58.660       45.471       38.134     3441.012     2067.640     1454.169        0.951        0.348      108.612       29.734        0.075      348.541       28.313      866.439
07/05/2014  10:38:00       37.003      -40.962       25.324       31.795       68.611       36.470     1010.899     4707.408     1330.091        0.537        0.352       55.201       22.753        0.170      348.748       28.669      866.449
07/05/2014  10:39:00       -8.131       33.717       70.204       27.287       50.973       33.902      744.570     2598.255     1149.362        0.531        0.225       34.683       30.459        0.771      349.068       29.226      866.443
07/05/2014  10:40:00      102.240       72.176       21.696       66.948       46.266       43.528     4482.006     2140.550     1894.662        1.232        0.426      125.150       26.360        0.044      348.255       27.818      866.462
07/05/2014  10:41:00       73.565       89.519       50.449       77.859       50.743       48.202     6062.043     2574.884     2323.461        1.346        0.548      115.868       45.820        0.156      348.313       27.919      866.463
07/05/2014  10:42:00       80.111      121.607      129.583       91.048       58.358       55.982     8289.705     3405.659     3133.931        2.641        0.741      145.623       56.962        0.153      348.114       27.572      866.461
07/05/2014  10:43:00      117.676       55.780       18.301       73.809       62.733       41.096     5447.840     3935.420     1688.922        1.418        0.554      130.227       30.229        0.054      347.953       27.295      866.473
07/05/2014  10:44:00       31.933       65.500        4.019       63.458       37.036       31.592     4026.963     1371.684      998.046        0.586        0.320       72.870       20.481        0.079      348.228       27.770      866.460
07/05/2014  10:45:00        1.328       34.025        5.024       48.871       36.190       41.639     2388.422     1309.738     1733.768        0.331        0.272       34.051       13.785        0.164      348.355       27.991      866.461
07/05/2014  10:46:00       36.164        9.747        8.196       22.569       21.597       20.419      509.370      466.417      416.918        0.143        0.070       37.455        8.932        0.057      348.136       27.612      866.439
07/05/2014  10:47:00        1.743       12.936       41.044       22.122       45.108       55.508      489.405     2034.697     3081.149        0.373        0.280       13.053       46.840       12.877      348.934       28.994      866.433
07/05/2014  10:48:00       68.877       71.748      102.198       60.772       54.750       39.567     3693.224     2997.598     1565.572        1.429        0.413       99.458       35.906        0.130      348.372       28.020      866.414
07/05/2014  10:49:00      110.811      102.830      109.322       64.791       60.761       53.608     4197.908     3691.839     2873.785        2.278        0.538      151.172       32.739        0.047      348.154       27.642      866.398
07/05/2014  10:50:00       89.547       77.324       53.261       51.729       39.008       56.743     2675.888     1521.607     3219.732        1.212        0.371      118.311       33.164        0.079      348.006       27.388      866.394
07/05/2014  10:51:00       61.597       75.650       27.669       39.673       26.500       33.846     1573.982      702.252     1145.553        0.685        0.171       97.556       16.319        0.028      348.175       27.680      866.383
07/05/2014  10:52:00      114.211       54.796       22.268       90.819       42.978       42.820     8248.136     1847.130     1833.528        1.423        0.596      126.676       12.067        0.009      348.500       28.240      866.381
07/05/2014  10:53:00      121.671      117.243       11.161       86.015       60.343       45.893     7398.560     3641.310     2106.158        2.091        0.657      168.967       25.959        0.024      348.367       28.010      866.373
07/05/2014  10:54:00      126.541       93.774       13.953       68.277       49.482       46.167     4661.785     2448.483     2131.399        1.712        0.462      157.500       38.943        0.061      348.250       27.808      866.384
07/05/2014  10:55:00      125.522       58.310       21.846       47.432       42.987       36.890     2249.768     1847.871     1360.870        1.254        0.273      138.404       23.414        0.029      348.146       27.628      866.377
07/05/2014  10:56:00       52.274      121.508      -15.822       52.157       88.064       50.022     2720.394     7755.315     2502.177        1.536        0.649      132.275       45.641        0.119      348.344       27.970      866.376
07/05/2014  10:57:00       28.468      141.187      -49.241       60.685       96.422       40.315     3682.698     9297.178     1625.271        1.888        0.730      144.029       38.974        0.073      348.077       27.507      866.365
07/05/2014  10:58:00       47.032       49.207       41.981       41.575       48.640       53.475     1728.495     2365.872     2859.545        0.667        0.348       68.069       41.872        0.378      348.575       28.371      866.361
07/05/2014  10:59:00      134.647      112.293      105.050      119.894       79.138       73.374    14374.577     6262.902     5383.743        3.389        1.301      175.327       79.690        0.207      348.502       28.241      866.352
07/05/2014  11:00:00      114.194       80.392       46.286       76.920       51.430       57.700     5916.762     2645.070     3329.320        1.677        0.595      139.653       35.928        0.066      348.286       27.870      866.372
07/05/2014  11:01:00      133.184       86.918       13.080       41.905       41.794       36.078     1756.061     1746.728     1301.612        1.513        0.240      159.037       11.893        0.006      348.315       27.921      866.382
07/05/2014  11:02:00       79.679       40.759       -1.116       45.664       38.848       21.714     2085.161     1509.176      471.513        0.604        0.203       89.499       25.377        0.080      348.126       27.594      866.379
07/05/2014  11:03:00        9.064      -22.857      -11.560       16.006       17.799       16.293      256.197      316.816      265.468        0.079        0.042       24.589       14.390        0.343      348.459       28.172      866.363
07/05/2014  11:04:00        3.770      -19.992       34.976       27.934       37.574       22.548      780.306     1411.774      508.400        0.217        0.135       20.344       17.928        0.777      349.323       29.668      866.352
07/05/2014  11:05:00        1.553      -21.253       26.423       29.212       57.996       34.771      853.317     3363.562     1209.012        0.329        0.271       21.310       36.568        2.945      349.241       29.525      866.327
07/05/2014  11:06:00        0.939        3.262       53.110       18.157       47.690       40.116      329.660     2274.368     1609.279        0.352        0.211        3.395       40.803      144.470      349.183       29.425      866.321
07/05/2014  11:07:00      -44.111        3.619       15.416       34.888       32.804       28.737     1217.207     1076.090      825.835        0.266        0.156       44.260       13.285        0.090      348.926       28.979      866.317
07/05/2014  11:08:00      -25.889      -31.246       42.425       31.791       48.892       20.591     1010.643     2390.453      424.005        0.364        0.191       40.578       15.474        0.145      349.267       29.571      866.309
07/05/2014  11:09:00      -59.778      -21.681       -0.114       38.591       42.876       27.453     1489.242     1838.373      753.666        0.406        0.204       63.589       14.224        0.050      348.349       27.980      866.300
07/05/2014  11:10:00     -101.904      -36.080       -5.771       47.958       43.043       26.799     2299.989     1852.700      718.171        0.829        0.244      108.103       28.856        0.071      348.561       28.348      866.278
07/05/2014  11:11:00      -69.274      -53.136       10.295       55.871       47.807       29.002     3121.579     2285.489      841.114        0.699        0.312       87.306       28.838        0.109      348.673       28.540      866.274
07/05/2014  11:12:00      -54.716     -108.390       -8.474       59.883       49.193       43.443     3585.973     2419.973     1887.306        1.135        0.395      121.418       42.609        0.123      348.380       28.034      866.267
07/05/2014  11:13:00      -48.553      -37.048       -6.841       22.892       38.060       28.207      524.061     1448.568      795.627        0.327        0.138       61.073       24.461        0.160      348.455       28.164      866.255
07/05/2014  11:14:00     -102.622      -24.356       -8.743       49.593       35.516       22.879     2459.512     1261.411      523.430        0.772        0.212      105.473       12.714        0.015      348.458       28.168      866.245
07/05/2014  11:15:00      -86.416     -114.115        3.216       64.699       69.072       42.445     4185.994     4770.887     1801.597        1.563        0.538      143.143       45.425        0.101      348.673       28.540      866.241
07/05/2014  11:16:00     -125.936     -177.006      -20.042       66.631       57.617       32.058     4439.726     3319.741     1027.708        2.819        0.439      217.235       33.748        0.024      348.222       27.756      866.246
07/05/2014  11:17:00     -165.923     -109.142       -8.718       63.545       48.320       29.470     4037.950     2334.791      868.489        2.338        0.362      198.601       25.306        0.016      348.300       27.892      866.227
07/05/2014  11:18:00      -78.580     -102.985       -2.005       47.979       37.639       29.831     2301.946     1416.680      889.876        1.070        0.230      129.540       22.424        0.030      348.392       28.054      866.239
07/05/2014  11:19:00      -62.371     -120.415       -9.550       37.818       60.736       24.615     1430.217     3688.836      605.907        1.210        0.286      135.610       24.750        0.033      348.451       28.158      866.241
07/05/2014  11:20:00      -63.939      -83.872      -13.893       32.403       23.928       22.077     1049.930      572.571      487.375        0.671        0.105      105.464       20.702        0.039      348.342       27.970      866.246
07/05/2014  11:21:00      -65.994      -64.580        0.705       29.522       20.790       21.046      871.565      432.228      442.927        0.514        0.087       92.335       13.366        0.021      348.454       28.163      866.240
07/05/2014  11:22:00      -85.934      -57.363        2.843       41.630       33.028       23.172     1733.068     1090.875      536.920        0.702        0.168      103.321       24.601        0.057      348.633       28.473      866.243
07/05/2014  11:23:00     -103.522      -67.442       -3.970       33.553       21.313       17.738     1125.779      454.227      314.633        0.859        0.095      123.553       10.073        0.007      348.378       28.031      866.239
07/05/2014  11:24:00      -28.425      -34.572        5.088       34.893       34.285       27.444     1217.543     1175.451      753.168        0.259        0.157       44.757       26.696        0.356      348.760       28.692      866.240
07/05/2014  11:25:00        6.517       28.955       31.078       35.872       22.548       25.163     1286.813      508.405      633.169        0.214        0.121       29.679       15.935        0.288      349.392       29.786      866.219
07/05/2014  11:26:00      -28.130        5.563       46.128       31.074       57.186       42.761      965.610     3270.230     1828.496        0.451        0.303       28.675       31.448        1.203      349.616       30.175      866.220
07/05/2014  11:27:00       16.284       17.013       77.823       70.929       74.589       51.789     5030.956     5563.520     2682.072        0.994        0.664       23.550       64.133        7.416      349.530       30.026      866.210
07/05/2014  11:28:00       93.201      -81.481       10.250       66.286       79.389       56.974     4393.824     6302.573     3246.036        1.468        0.697      123.797       45.209        0.133      348.977       29.065      866.215
07/05/2014  11:29:00       33.681      -13.018       52.506       44.267       50.023       32.401     1959.588     2502.258     1049.854        0.479        0.276       36.110       28.450        0.621      349.318       29.657      866.222
07/05/2014  11:30:00        5.991       29.547       74.617       27.376       30.643       22.477      749.450      939.024      505.215        0.433        0.110       30.148       22.170        0.541      349.274       29.582      866.212
07/05/2014  11:31:00       32.425      -31.092       26.732       60.090       68.281       43.757     3610.866     4662.250     1914.698        0.646        0.509       44.923       34.393        0.586      349.064       29.219      866.200
07/05/2014  11:32:00       32.047      -23.353       28.309       38.092       61.668       42.420     1451.025     3802.983     1799.484        0.471        0.353       39.653       40.184        1.027      349.485       29.948      866.206
07/05/2014  11:33:00       17.228       66.287       88.341       34.461       59.954       24.538     1187.566     3594.470      602.092        0.894        0.269       68.489       30.610        0.200      348.894       28.924      866.205
07/05/2014  11:34:00       61.951       56.741       65.624       39.890       32.330       31.972     1591.224     1045.236     1022.218        0.751        0.183       84.009       19.510        0.054      348.778       28.723      866.209
07/05/2014  11:35:00       -1.102       19.800       38.125       28.850       22.360       16.653      832.304      499.982      277.325        0.173        0.080       19.830       15.989        0.650      349.387       29.778      866.202
07/05/2014  11:36:00      -27.265      -15.829       22.765       32.554       22.509       19.867     1059.791      506.668      394.693        0.174        0.098       31.527       20.717        0.432      349.129       29.332      866.183
07/05/2014  11:37:00      -41.763       91.053        2.836       33.672       63.477       26.720     1133.796     4029.304      713.977        0.796        0.294      100.174       11.723        0.014      349.218       29.486      866.173
07/05/2014  11:38:00      -19.135       73.372       -9.770       73.551       67.634       42.334     5409.819     4574.318     1792.155        0.881        0.589       75.826       29.960        0.156      348.833       28.818      866.166
07/05/2014  11:39:00     -139.201       34.849      -20.918       48.935       35.977       25.406     2394.638     1294.357      645.472        1.268        0.217      143.497       11.842        0.007      348.590       28.397      866.143
07/05/2014  11:40:00     -187.521       48.812       -7.004       80.433       41.890       31.567     6469.479     1754.783      996.492        2.341        0.461      193.770       19.182        0.010      348.707       28.597      866.122
07/05/2014  11:41:00      -95.322        3.169       12.757       66.572       74.530       43.863     4431.797     5554.782     1923.937        1.058        0.596       95.374       44.130        0.214      349.279       29.592      866.111
07/05/2014  11:42:00      -28.357     -106.550       -1.195       66.502       68.742       36.957     4422.535     4725.487     1365.814        1.133        0.526      110.259       27.129        0.061      349.302       29.630      866.113
07/05/2014  11:43:00       60.961        7.049       49.007       67.571       88.027       42.376     4565.835     7748.802     1795.729        1.014        0.706       61.367       43.010        0.491      349.524       30.015      866.110
07/05/2014  11:44:00       30.476       88.221       96.658       43.215       51.223       42.559     1867.540     2623.795     1811.239        1.218        0.315       93.337       37.925        0.165      349.409       29.817      866.113
07/05/2014  11:45:00      125.138       84.187       68.728       90.677       87.036       63.465     8222.382     7575.205     4027.857        2.364        0.991      150.821       47.077        0.097      349.143       29.354      866.095
07/05/2014  11:46:00      118.791       99.912       66.106       98.974       72.411       69.966     9795.890     5243.421     4895.204        2.420        0.997      155.222       69.084        0.198      349.277       29.584      866.088
07/05/2014  11:47:00       41.963       85.974      120.568       67.799       79.694       52.375     4596.672     6351.129     2743.109        1.869        0.685       95.669       47.889        0.251      349.596       30.139      866.089
07/05/2014  11:48:00       98.918       81.895       87.906       93.117       76.838       59.343     8670.719     5904.092     3521.625        2.115        0.905      128.420       64.126        0.249      349.039       29.172      866.089
07/05/2014  11:49:00       22.697      -31.397       18.782       43.812       48.346       44.420     1919.510     2337.377     1973.178        0.404        0.312       38.742       21.577        0.310      349.260       29.558      866.090
07/05/2014  11:50:00       62.936       40.288       40.540       65.735       65.901       42.111     4321.156     4342.948     1773.354        0.883        0.522       74.726       33.814        0.205      349.146       29.360      866.067
07/05/2014  11:51:00       48.950       81.463       96.125       67.307       78.007       50.438     4530.255     6085.058     2544.026        1.571        0.658       95.039       53.044        0.312      349.293       29.613      866.039
07/05/2014  11:52:00       73.504       93.073      122.801      107.441      121.543       71.315    11543.624    14772.805     5085.836        3.027        1.570      118.598       68.927        0.338      349.469       29.918      866.022
07/05/2014  11:53:00      100.566       41.358       16.930      140.543       88.466       61.835    19752.404     7826.246     3823.585        2.175        1.570      108.738       66.027        0.369      349.024       29.148      866.041
07/05/2014  11:54:00      -35.511      -29.017        5.014       33.441       49.557       34.022     1118.328     2455.884     1157.515        0.343        0.237       45.859       20.149        0.193      349.090       29.263      866.028
07/05/2014  11:55:00        5.507       28.934      -15.635       86.662       75.906       34.086     7510.289     5761.727     1161.856        0.777        0.722       29.453       34.057        1.337      349.427       29.846      866.016
07/05/2014  11:56:00        3.754       78.134        5.920       47.022       76.766       38.851     2211.092     5893.055     1509.415        0.788        0.481       78.224       45.515        0.339      349.548       30.057      866.009
07/05/2014  11:57:00       -9.138       35.641       26.410       20.277       39.635       24.978      411.166     1570.966      623.878        0.233        0.130       36.794       27.308        0.551      350.316       31.393      866.006
07/05/2014  11:58:00       22.561       24.415       40.091       31.923       37.475       36.490     1019.051     1404.389     1331.523        0.323        0.188       33.243       11.617        0.122      349.955       30.765      865.996
07/05/2014  11:59:00       37.551       -5.075       44.679       46.479       55.227       44.711     2160.252     3050.062     1999.061        0.532        0.360       37.893       40.927        1.167      349.916       30.696      865.979
07/05/2014  12:00:00      117.786      -54.313       29.540       88.340      175.937       67.870     7803.873    30953.693     4606.299        3.052        2.168      129.705       87.745        0.458      349.578       30.107      865.949
07/05/2014  12:01:00      166.722       66.535      133.758      106.844      113.414       64.339    11415.664    12862.740     4139.505        3.926        1.421      179.508       69.777        0.151      349.278       29.585      865.958
07/05/2014  12:02:00      159.310     -176.409       -6.586      104.131      123.467       60.100    10843.350    15244.115     3611.978        4.312        1.485      237.697       73.434        0.095      349.258       29.551      865.944
07/05/2014  12:03:00       56.831       74.185       98.343       68.252       90.953       58.884     4658.273     8272.431     3467.370        1.740        0.820       93.451       58.436        0.391      349.764       30.431      865.932
07/05/2014  12:04:00      165.127     -183.627       -7.402      122.691      155.520       67.903    15053.015    24186.335     4610.871        5.244        2.193      246.953       99.737        0.163      349.436       29.860      865.919
07/05/2014  12:05:00      184.888     -186.176      -23.671      115.629      149.446      104.266    13369.991    22334.039    10871.424        5.798        2.329      262.384      113.018        0.186      349.409       29.814      865.883
07/05/2014  12:06:00      112.632     -172.777      -25.139      109.126      161.638      106.781    11908.578    26126.797    11402.087        4.630        2.472      206.247       99.618        0.233      349.441       29.868      865.883
07/05/2014  12:07:00      122.709     -158.236        0.413      117.605      101.077       73.985    13830.860    10216.596     5473.767        3.480        1.476      200.240       75.961        0.144      349.445       29.876      865.892
07/05/2014  12:08:00      161.748       47.356      127.811      126.525      126.415       81.640    16008.478    15980.830     6665.022        4.169        1.933      168.537       86.610        0.264      349.572       30.096      865.873
07/05/2014  12:09:00       46.084      -72.102       60.520       85.286      117.023       88.736     7273.703    13694.378     7874.065        1.991        1.442       85.571       73.131        0.730      349.781       30.459      865.876
07/05/2014  12:10:00      166.614     -168.491      -15.905       76.772       97.734       48.961     5893.986     9552.001     2397.145        3.712        0.892      236.958       43.540        0.034      349.541       30.042      865.898
07/05/2014  12:11:00      116.696     -197.217      -27.367       60.330       84.385       42.723     3639.750     7120.890     1825.241        3.292        0.629      229.156       24.429        0.011      349.310       29.640      865.910
07/05/2014  12:12:00       23.281       -8.609       69.022       57.077      116.659       69.885     3257.838    13609.360     4883.898        1.356        1.088       24.821       83.906       11.427      349.845       30.572      865.910
07/05/2014  12:13:00      104.755      -40.312       29.868       88.649      116.382       74.168     7858.594    13544.757     5500.833        2.019        1.345      112.244       86.906        0.599      349.840       30.561      865.912
07/05/2014  12:14:00       15.645      -37.116       43.599       53.486       81.969       47.632     2860.707     6718.972     2268.800        0.768        0.592       40.279       50.878        1.596      349.476       29.932      865.913
07/05/2014  12:15:00        9.230      -26.336       55.290       65.722      109.438       62.274     4319.408    11976.651     3878.091        1.200        1.009       27.906       73.752        6.985      349.761       30.425      865.895
07/05/2014  12:16:00      -55.083      -76.971       -0.583       44.601       41.685       31.418     1989.291     1737.617      987.104        0.684        0.236       94.650       23.414        0.061      349.576       30.103      865.891
07/05/2014  12:17:00       -7.304       35.509       52.645       86.121       84.781       72.873     7416.843     7187.812     5310.438        1.200        0.996       36.253       72.055        3.951      349.885       30.642      865.892
07/05/2014  12:18:00       64.121       21.195       37.212       60.507       56.780       36.322     3661.100     3224.001     1319.313        0.707        0.410       67.534       26.355        0.152      349.550       30.061      865.889
07/05/2014  12:19:00       73.564      -37.207       54.429       84.001      118.176       83.463     7056.251    13965.658     6966.089        1.887        1.399       82.438       77.101        0.875      349.786       30.468      865.873
07/05/2014  12:20:00      153.375      109.450       67.834       59.620       53.606       62.798     3554.562     2873.620     3943.614        2.524        0.519      188.423       36.518        0.038      349.236       29.513      865.883
07/05/2014  12:21:00       86.472      -38.126       29.656       96.028       80.408       55.827     9221.406     6465.443     3116.600        1.430        0.940       94.504       53.935        0.326      349.561       30.079      865.864
07/05/2014  12:22:00       83.023      -36.757       42.132       48.366       92.905       46.145     2339.261     8631.388     2129.322        1.156        0.655       90.796       57.272        0.398      349.682       30.289      865.853
07/05/2014  12:23:00       55.690      -12.215       28.732       53.176       41.157       40.854     2827.662     1693.915     1669.032        0.513        0.310       57.014       35.009        0.377      349.868       30.611      865.836
07/05/2014  12:24:00       20.018      -51.389       20.677       21.468       29.188       29.406      460.879      851.937      864.693        0.282        0.109       55.151       16.961        0.095      349.713       30.343      865.824
07/05/2014  12:25:00      -27.095      -24.630       10.932       34.256       20.066       20.705     1173.455      402.662      428.701        0.173        0.100       36.617       19.012        0.270      349.925       30.712      865.816
07/05/2014  12:26:00       -8.371       23.044       47.268       17.699       41.484       37.482      313.254     1720.912     1404.907        0.314        0.172       24.518       32.622        1.770      350.357       31.462      865.810
07/05/2014  12:27:00       37.601       -5.094       39.651       44.676       66.105       40.288     1995.985     4369.812     1623.132        0.550        0.399       37.945       43.832        1.334      349.908       30.681      865.805
07/05/2014  12:28:00       47.350       50.808       26.797       43.288       49.707       47.966     1873.841     2470.738     2300.749        0.609        0.332       69.452       21.145        0.093      350.027       30.889      865.806
07/05/2014  12:29:00       42.213       47.567       -9.298       49.207       57.244       23.579     2421.346     3276.819      555.954        0.519        0.313       63.597       25.756        0.164      349.767       30.438      865.812
07/05/2014  12:30:00       -9.836       34.062       21.046       22.403       46.671       28.224      501.877     2178.208      796.602        0.259        0.174       35.453       24.512        0.478      350.452       31.629      865.802
07/05/2014  12:31:00       -5.784       19.072       31.694       16.013       19.468       18.440      256.404      379.007      340.027        0.119        0.049       19.930        4.605        0.053      350.787       32.210      865.802
07/05/2014  12:32:00       11.800      -15.955        8.398       34.075       46.722       44.831     1161.079     2182.917     2009.828        0.291        0.268       19.845       31.719        2.555      350.316       31.390      865.788
07/05/2014  12:33:00       68.451      -23.546       40.607      103.392      132.455       78.794    10689.998    17544.255     6208.479        2.066        1.722       72.388       95.045        1.724      350.177       31.148      865.774
07/05/2014  12:34:00       25.081      -83.035       39.341       56.797      118.604       89.279     3225.887    14066.819     7970.692        1.716        1.263       86.740       81.204        0.876      350.111       31.033      865.756
07/05/2014  12:35:00       22.995      -21.152       35.278       51.391       63.160       55.233     2641.043     3989.126     3050.639        0.595        0.484       31.244       48.478        2.408      350.123       31.057      865.764
07/05/2014  12:36:00      -61.378     -120.886       -2.795       58.439       74.903       30.730     3415.096     5610.426      944.341        1.418        0.498      135.576       16.257        0.014      349.764       30.431      865.762
07/05/2014  12:37:00       15.952     -122.812        9.862       67.870       99.113       55.600     4606.279     9823.292     3091.413        1.647        0.876      123.844       37.857        0.093      350.201       31.189      865.747
07/05/2014  12:38:00       57.551     -176.866      -30.545       52.272       74.346       46.675     2732.312     5527.372     2178.543        2.298        0.522      185.994       28.648        0.024      349.509       29.987      865.759
07/05/2014  12:39:00       40.409       30.511       42.858       41.513       58.001       40.451     1723.327     3364.146     1636.321        0.556        0.336       50.634       36.215        0.512      350.005       30.851      865.749
07/05/2014  12:40:00       34.602       18.834       41.950       30.649       53.804       42.514      939.390     2894.822     1807.427        0.448        0.282       39.396       39.698        1.015      349.700       30.320      865.728
07/05/2014  12:41:00       61.778       76.642       83.812       55.255       41.783       35.345     3053.164     1745.812     1249.236        1.138        0.302       98.441       27.411        0.078      349.688       30.302      865.709
07/05/2014  12:42:00      116.244       92.333       79.668       52.015       51.771       50.495     2705.606     2680.270     2549.774        1.816        0.397      148.452       27.017        0.033      349.655       30.241      865.700
07/05/2014  12:43:00       49.034      -23.708       39.605       42.320       94.354       41.436     1790.991     8902.633     1716.932        0.847        0.621       54.465       52.120        0.916      349.680       30.285      865.685
07/05/2014  12:44:00       65.962      -13.633       42.243       64.754      105.672       60.574     4193.017    11166.632     3669.236        1.267        0.951       67.356       69.325        1.059      349.980       30.806      865.676
07/05/2014  12:45:00       63.578     -109.594        2.896       60.382       86.209       59.610     3645.931     7432.040     3553.360        1.534        0.732      126.700       55.052        0.189      350.075       30.970      865.671
07/05/2014  12:46:00       20.657     -107.603        9.388       60.828       91.858       56.515     3700.066     8437.931     3193.938        1.371        0.767      109.568       51.960        0.225      350.105       31.022      865.665
07/05/2014  12:47:00       21.372       24.860       71.163       46.575       71.185       42.295     2169.193     5067.273     1788.837        0.758        0.451       32.784       34.917        1.134      350.551       31.800      865.674
07/05/2014  12:48:00       19.427     -110.562       11.619       70.166      105.016       59.281     4923.290    11028.283     3514.277        1.610        0.973      112.256       66.224        0.348      350.090       30.996      865.664
07/05/2014  12:49:00       13.092      -44.414       11.869       45.583       47.869       43.333     2077.786     2291.434     1877.751        0.426        0.312       46.304       32.380        0.489      350.476       31.669      865.651
07/05/2014  12:50:00        4.511       57.399       -7.476       44.229       87.467       40.637     1956.236     7650.479     1651.366        0.731        0.563       57.576       29.209        0.257      350.210       31.207      865.660
07/05/2014  12:51:00      -52.929       33.519      -25.238       55.919       69.593       22.091     3126.950     4843.185      487.999        0.651        0.423       62.649        9.821        0.025      350.102       31.018      865.649
07/05/2014  12:52:00       43.240       40.606       46.558       53.010       84.501       58.009     2810.088     7140.459     3365.056        0.950        0.666       59.318       46.639        0.618      350.430       31.588      865.634
07/05/2014  12:53:00       74.927       67.555       63.913       90.958       52.201       58.432     8273.436     2724.979     3414.312        1.434        0.721      100.885       53.946        0.286      350.104       31.021      865.631
07/05/2014  12:54:00       70.153       63.828       38.370       50.736       49.195       41.654     2574.155     2420.110     1735.092        0.860        0.336       94.845       21.340        0.051      350.280       31.329      865.633
07/05/2014  12:55:00       95.876       56.442       31.963       87.100       53.122       51.241     7586.344     2821.958     2625.686        1.321        0.652      111.256       15.619        0.020      350.410       31.553      865.628
07/05/2014  12:56:00       43.335       52.272       14.381       45.562       49.497       35.540     2075.909     2449.990     1263.065        0.530        0.289       67.899       18.887        0.077      350.323       31.403      865.623
07/05/2014  12:57:00       49.745       77.826       -1.928       61.566       58.039       32.650     3790.327     3368.489     1066.007        0.838        0.411       92.366       27.478        0.089      350.026       30.888      865.603
07/05/2014  12:58:00       39.261       33.878       19.519       35.104       33.977       26.704     1232.309     1154.469      713.113        0.308        0.155       51.857       21.312        0.169      350.291       31.348      865.600
07/05/2014  12:59:00       47.179        3.721       19.274       53.187       84.135       37.121     2828.818     7078.762     1377.973        0.695        0.564       47.326       38.409        0.659      350.313       31.385      865.607
07/05/2014  13:00:00       39.104      -54.489       19.922       60.723      109.788       58.639     3687.299    12053.342     3438.500        1.203        0.959       67.068       67.204        1.004      350.381       31.502      865.581
07/05/2014  13:01:00       46.824       -1.546       34.797       59.399       91.341       68.091     3528.211     8343.232     4636.404        0.995        0.825       46.850       70.839        2.286      350.403       31.542      865.562
07/05/2014  13:02:00       37.995        6.092       74.891       74.823       76.833       53.029     5598.448     5903.272     2812.051        1.070        0.716       38.481       45.227        1.381      350.479       31.675      865.558
07/05/2014  13:03:00      113.364       40.052       85.766      108.358      104.110       76.299    11741.453    10838.940     5821.598        2.510        1.420      120.232       84.171        0.490      350.157       31.114      865.551
07/05/2014  13:04:00       70.883       23.478       34.409       78.140       66.351       42.399     6105.921     4402.419     1797.694        0.953        0.615       74.670       26.574        0.127      350.158       31.117      865.550
07/05/2014  13:05:00       24.285       40.516       54.359       80.752       93.479       55.628     6520.831     8738.269     3094.520        1.177        0.918       47.237       48.230        1.042      350.121       31.052      865.541
07/05/2014  13:06:00      114.879      -64.749       65.867       86.229      134.381       88.669     7435.411    18058.267     7862.141        2.754        1.668      131.869       97.837        0.550      350.531       31.764      865.506
07/05/2014  13:07:00       78.972       54.100      118.852       78.543       87.833       58.779     6169.073     7714.718     3454.945        2.031        0.867       95.726       53.867        0.317      350.335       31.422      865.514
07/05/2014  13:08:00      159.670     -172.271      -32.019       67.226       68.513       35.361     4519.355     4694.043     1250.370        3.333        0.523      234.887       35.764        0.023      350.193       31.172      865.499
07/05/2014  13:09:00       -0.910     -160.319      -13.888      145.348       63.321       40.909    21126.020     4009.569     1673.517        2.635        1.340      160.322       36.863        0.053      350.177       31.146      865.513
07/05/2014  13:10:00     -148.617     -110.604      -13.403       76.198       54.308       35.361     5806.160     2949.348     1250.417        2.225        0.500      185.257       37.595        0.041      349.855       30.586      865.506
07/05/2014  13:11:00      -21.313      -70.972        3.952       83.814       78.488       47.475     7024.769     6160.329     2253.831        1.047        0.772       74.103       44.113        0.354      350.388       31.516      865.489
07/05/2014  13:12:00       68.171     -147.780        7.948       99.848       99.772       65.166     9969.608     9954.362     4246.604        2.536        1.209      162.746       81.275        0.249      350.440       31.605      865.478
07/05/2014  13:13:00       69.103      -45.570       56.654      102.299      147.080       85.270    10465.170    21632.454     7271.025        2.471        1.968       82.776       97.285        1.381      350.662       31.992      865.449
07/05/2014  13:14:00       13.720     -165.186      -24.485      169.034      130.239       78.659    28572.603    16962.092     6187.316        3.989        2.586      165.755       75.851        0.209      350.369       31.479      865.431
07/05/2014  13:15:00      -78.174     -194.271        9.930       64.954       89.090       42.356     4219.073     7936.974     1793.998        2.895        0.698      209.409       39.898        0.036      350.056       30.935      865.433
07/05/2014  13:16:00       75.962     -178.462      -18.186      109.192       91.612       53.079    11922.967     8392.786     2817.415        3.054        1.157      193.956       53.962        0.077      350.326       31.405      865.428
07/05/2014  13:17:00       -3.548     -176.300       -1.400       93.314       89.769       59.289     8707.503     8058.400     3515.148        2.569        1.014      176.336       48.257        0.075      350.482       31.677      865.426
07/05/2014  13:18:00       74.866      -91.456       53.600      125.376      137.791      108.684    15719.121    18986.381    11812.287        3.167        2.326      118.191      112.888        0.912      350.740       32.127      865.412
07/05/2014  13:19:00       64.853     -124.516        0.586       89.837       96.403       90.060     8070.757     9293.542     8110.801        2.259        1.274      140.392       63.699        0.206      350.263       31.296      865.438
07/05/2014  13:20:00       17.825     -100.720        8.127       63.930       66.082       42.718     4087.101     4366.792     1824.825        1.040        0.514      102.286       47.551        0.216      350.549       31.795      865.440
07/05/2014  13:21:00       10.672      -41.042       37.668       40.046       84.385       54.958     1603.716     7120.838     3020.403        0.748        0.587       42.406       51.646        1.483      350.569       31.831      865.423
07/05/2014  13:22:00      133.342     -150.012      -22.017       54.535       73.623       50.060     2974.103     5420.289     2505.963        2.583        0.545      200.708       40.139        0.040      350.029       30.888      865.420
07/05/2014  13:23:00       52.075       22.851        8.240       70.610       36.681       33.230     4985.717     1345.464     1104.223        0.537        0.372       56.868       19.984        0.123      350.252       31.280      865.404
07/05/2014  13:24:00       58.023      -37.319        3.941       50.985       57.184       34.284     2599.421     3270.046     1175.360        0.591        0.352       68.988       29.128        0.178      350.219       31.220      865.396
07/05/2014  13:25:00       63.607      -67.618       46.607       93.877      176.519       84.377     8812.822    31158.892     7119.525        2.893        2.355       92.833      111.321        1.438      350.432       31.593      865.377
07/05/2014  13:26:00       92.042     -215.828      -40.401       86.130      109.531       59.180     7418.365    11997.090     3502.268        3.980        1.146      234.635       49.825        0.045      350.122       31.048      865.378
07/05/2014  13:27:00      -54.254      -59.177        1.568       58.577       90.974       43.518     3431.294     8276.199     1893.817        1.002        0.680       80.283       45.667        0.324      350.661       31.991      865.371
07/05/2014  13:28:00      -13.582       -1.088       57.227       25.520       65.046       37.380      651.283     4230.988     1397.263        0.487        0.314       13.626       46.202       11.497      350.702       32.062      865.344
07/05/2014  13:29:00       52.054       78.765       95.796       58.770       59.851       44.227     3453.961     3582.156     1956.009        1.354        0.450       94.412       44.390        0.221      350.233       31.246      865.333
07/05/2014  13:30:00       56.947       71.386       26.566       47.554       27.903       25.724     2261.416      778.573      661.701        0.637        0.185       91.317       19.780        0.047      349.916       30.696      865.321
07/05/2014  13:31:00      -42.615       31.514       -8.554       39.999       21.704       25.969     1599.939      471.085      674.370        0.281        0.137       53.001       21.982        0.172      350.146       31.094      865.292
07/05/2014  13:32:00      -42.707      -19.206        4.375       36.950       31.418       23.006     1365.290      987.112      529.290        0.255        0.144       46.827       19.567        0.175      350.348       31.448      865.264
07/05/2014  13:33:00       60.384      -48.112        4.604       81.306       42.921       26.309     6610.693     1842.200      692.162        0.756        0.457       77.208       23.138        0.090      350.328       31.411      865.242
07/05/2014  13:34:00       47.928      -19.974       41.235       53.611       77.385       50.673     2874.106     5988.396     2567.803        0.791        0.572       51.923       50.843        0.959      350.701       32.061      865.204
07/05/2014  13:35:00       81.804       45.421       79.546       68.981       71.833       63.226     4758.439     5159.971     3997.542        1.450        0.696       93.568       63.441        0.460      350.399       31.534      865.208
07/05/2014  13:36:00       67.703       27.064       53.993       80.085       54.662       46.539     6413.556     2987.927     2165.914        0.990        0.578       72.912       36.704        0.253      350.408       31.551      865.195
07/05/2014  13:37:00      108.155       69.540       53.784       49.509       49.697       61.413     2451.163     2469.766     3771.566        1.406        0.435      128.582       40.189        0.098      350.107       31.027      865.170
07/05/2014  13:38:00      110.423       82.458       62.286       57.286       45.843       50.480     3281.647     2101.578     2548.221        1.540        0.397      137.813       27.834        0.041      350.116       31.043      865.134
07/05/2014  13:39:00       91.535       70.829       66.589       48.952       66.754       46.360     2396.344     4456.031     2149.280        1.341        0.450      115.739       39.708        0.118      349.969       30.787      865.119
07/05/2014  13:40:00      124.797       82.518       57.313       83.767       60.641       41.781     7016.858     3677.313     1745.659        1.905        0.622      149.611       38.278        0.065      350.231       31.241      865.119
07/05/2014  13:41:00       64.729       55.692       71.140       58.184       50.725       36.399     3385.340     2572.990     1324.872        0.982        0.364       85.390       30.548        0.128      350.408       31.550      865.120
07/05/2014  13:42:00       88.471      -72.031       14.418       72.756       76.128       46.823     5293.466     5795.444     2192.380        1.325        0.664      114.086       56.368        0.244      350.551       31.799      865.102
07/05/2014  13:43:00       31.855       95.539      125.200       82.469       75.998       67.065     6801.166     5775.685     4497.678        2.144        0.854      100.710       61.719        0.376      350.544       31.786      865.081
07/05/2014  13:44:00       84.107       34.797       67.715       57.435       70.559       61.039     3298.821     4978.600     3725.700        1.243        0.600       91.021       58.068        0.407      350.291       31.347      865.096
07/05/2014  13:45:00       19.257       93.865      124.097       60.951       86.396       84.505     3715.078     7464.197     7141.140        2.145        0.916       95.820       73.533        0.589      350.546       31.790      865.067
07/05/2014  13:46:00       54.764      -78.784       15.188       53.257       91.583       70.764     2836.323     8387.499     5007.489        1.283        0.812       95.948       68.807        0.514      350.984       32.552      865.067
07/05/2014  13:47:00      144.441     -187.286      -19.027      111.639      103.244       58.442    12463.208    10659.234     3415.448        4.142        1.327      236.515       50.540        0.046      350.606       31.891      865.080
07/05/2014  13:48:00       62.821       14.082       67.050       87.862       90.263       66.421     7719.651     8147.454     4411.721        1.446        1.014       64.380       57.189        0.789      350.915       32.432      865.057
07/05/2014  13:49:00       66.650      -36.572       36.076       77.243      101.111       65.179     5966.440    10223.440     4248.365        1.376        1.022       76.025       72.762        0.916      350.271       31.312      865.039
07/05/2014  13:50:00      -44.640      -83.223      -13.416       51.883       86.585       29.180     2691.897     7496.904      851.474        1.007        0.552       94.439       10.093        0.011      350.657       31.984      865.032
07/05/2014  13:51:00        9.704      -74.185       52.846       88.641      135.227       63.501     7857.290    18286.260     4032.365        1.928        1.509       74.817       57.346        0.587      350.940       32.474      864.994
07/05/2014  13:52:00       70.397      -89.451       44.613       70.503      131.249       76.637     4970.734    17226.420     5873.286        2.150        1.404      113.830       92.396        0.659      350.766       32.171      864.973
07/05/2014  13:53:00       71.350      -38.394        9.351       74.874      120.383       25.504     5606.118    14492.145      650.449        1.370        1.037       81.024       25.092        0.096      350.174       31.143      864.989
07/05/2014  13:54:00      -14.550       -7.138       12.725       48.484       23.143       25.111     2350.651      535.597      630.564        0.197        0.176       16.207       28.421        3.075      350.647       31.968      864.960
07/05/2014  13:55:00       63.798      -53.225       19.620       84.641       83.799       40.099     7164.160     7022.316     1607.893        1.154        0.790       83.085       22.690        0.075      350.904       32.414      864.934
07/05/2014  13:56:00       52.809     -294.642      -13.875      118.958       87.624       69.467    14151.009     7677.933     4825.708        5.822        1.333      299.337       48.059        0.026      350.538       31.773      864.921
07/05/2014  13:57:00      -71.620     -183.519      -11.210      134.078       91.078       75.660    17976.883     8295.187     5724.476        3.546        1.600      196.999       48.574        0.061      350.626       31.927      864.899
07/05/2014  13:58:00       59.441     -175.677      -14.278       78.978       57.769       57.178     6237.532     3337.272     3269.282        2.372        0.642      185.460       27.398        0.022      350.637       31.948      864.909
07/05/2014  13:59:00       -4.902     -260.076       -4.662      169.749      103.708       69.676    28814.577    10755.254     4854.796        5.605        2.221      260.122       50.283        0.037      350.453       31.625      864.910
07/05/2014  14:00:00     -190.152     -172.496      -11.712      106.570      142.487       50.045    11357.068    20302.549     2504.497        5.010        1.708      256.735       49.568        0.037      350.388       31.512      864.941
07/05/2014  14:01:00     -166.333     -116.649       10.347      150.092       86.806       58.611    22527.735     7535.367     3435.228        3.743        1.675      203.160       66.589        0.107      350.675       32.012      864.901
07/05/2014  14:02:00     -131.994      -84.957       11.219      115.841      105.687       53.002    13419.114    11169.643     2809.241        2.608        1.370      156.971       53.355        0.116      350.515       31.735      864.929
07/05/2014  14:03:00      -68.806      -55.763        6.330       97.148       80.100       51.616     9437.728     6415.933     2664.234        1.320        0.926       88.565       35.336        0.159      350.657       31.983      864.948
07/05/2014  14:04:00      -54.556      -18.448       17.166       53.228       45.634       43.029     2833.199     2082.503     1851.525        0.519        0.338       57.590       40.685        0.499      351.080       32.721      864.928
07/05/2014  14:05:00      -48.216      -29.279        2.021       49.181       46.417       30.208     2418.741     2154.512      912.543        0.434        0.274       56.410       29.709        0.277      350.866       32.349      864.916
07/05/2014  14:06:00      -40.876      -61.993       22.610       55.101       87.113       55.427     3036.103     7588.663     3072.133        0.986        0.685       74.256       62.917        0.718      350.865       32.345      864.914
07/05/2014  14:07:00      -12.844       -9.832       18.678       38.658       50.530       33.711     1494.477     2553.231     1136.436        0.290        0.259       16.175       27.714        2.936      350.911       32.426      864.907
07/05/2014  14:08:00      -12.072       -8.770       19.589       21.351       18.843       15.692      455.855      355.073      246.242        0.083        0.053       14.922       12.551        0.707      351.412       33.300      864.888
07/05/2014  14:09:00      -11.505        9.173       33.042       20.717       16.614       17.533      429.188      276.028      307.395        0.116        0.051       14.714        9.514        0.418      351.355       33.199      864.852
07/05/2014  14:10:00      -66.750      -10.195        3.137       50.087       46.324       20.665     2508.751     2145.939      427.054        0.482        0.254       67.524       17.192        0.065      350.846       32.312      864.842
07/05/2014  14:11:00       11.595       20.216       14.967       29.504       25.207       26.834      870.477      635.397      720.088        0.150        0.111       23.305       10.908        0.219      350.907       32.418      864.829
07/05/2014  14:12:00      -24.640       23.536       -5.148       65.652       38.829       24.616     4310.155     1507.682      605.965        0.380        0.321       34.074       26.953        0.626      350.901       32.408      864.818
07/05/2014  14:13:00      -40.954       64.866       14.593       59.967       43.166       32.883     3595.987     1863.324     1081.315        0.632        0.327       76.712       28.984        0.143      351.107       32.767      864.807
07/05/2014  14:14:00       15.251       68.344        0.535       99.831       62.994       39.767     9966.234     3968.240     1581.425        1.021        0.776       70.025       32.229        0.212      350.974       32.538      864.789
07/05/2014  14:15:00        7.068       79.771       -6.079       62.843       57.885       51.855     3949.186     3350.664     2688.973        0.822        0.499       80.083       47.683        0.355      350.994       32.570      864.791
07/05/2014  14:16:00        0.377        9.638       21.452       49.504       47.011       29.273     2450.668     2209.990      856.889        0.303        0.276        9.646       22.976        5.674      351.422       33.318      864.778
07/05/2014  14:17:00       42.900      -41.869       34.088       58.942       48.889       39.027     3474.214     2390.092     1523.072        0.607        0.369       59.945       19.385        0.105      350.968       32.525      864.767
07/05/2014  14:18:00       19.707       -1.046       14.494       35.353       28.797       27.524     1249.829      829.252      757.563        0.172        0.142       19.734        9.319        0.223      351.365       33.217      864.766
07/05/2014  14:19:00       12.433      -29.521        6.853       28.864       47.206       35.795      833.119     2228.400     1281.276        0.271        0.217       32.032       30.521        0.908      350.719       32.092      864.756
07/05/2014  14:20:00       21.994       26.462       25.653       34.329       31.550       31.156     1178.480      995.416      970.713        0.249        0.157       34.409       15.747        0.209      350.915       32.432      864.748
07/05/2014  14:21:00      -34.102       -7.611       18.134       70.368       40.939       30.692     4951.590     1676.035      942.014        0.456        0.378       34.941       21.299        0.372      351.464       33.391      864.726
07/05/2014  14:22:00      -46.207      -37.806        8.822       51.752       57.367       35.925     2678.239     3290.952     1290.618        0.545        0.363       59.703       20.095        0.113      350.986       32.557      864.713
07/05/2014  14:23:00        7.978        1.020       48.085       34.467       53.350       32.650     1187.959     2846.237     1066.023        0.374        0.255        8.043       26.832       11.129      351.211       32.950      864.728
07/05/2014  14:24:00       83.614     -138.074        5.941       72.708      117.584       45.362     5286.427    13825.888     2057.678        2.363        1.058      161.418       49.043        0.092      350.686       32.034      864.705
07/05/2014  14:25:00       92.116      -45.259       34.332       91.062       87.774       68.004     8292.371     7704.314     4624.522        1.616        1.031      102.634       76.164        0.551      350.939       32.474      864.683
07/05/2014  14:26:00       36.039     -114.070      -19.832       65.945       74.152       35.023     4348.784     5498.587     1226.596        1.289        0.554      119.627       41.449        0.120      350.495       31.701      864.680
07/05/2014  14:27:00       20.491       16.240       39.085       26.894       32.285       32.710      723.295     1042.300     1069.941        0.252        0.142       26.147       27.253        1.086      351.086       32.731      864.672
07/05/2014  14:28:00       60.549       68.408        7.361       36.444       38.417       34.086     1328.196     1475.870     1161.875        0.618        0.198       91.356       15.304        0.028      350.495       31.703      864.644
07/05/2014  14:29:00      -78.867      113.109       -9.836       58.969       58.230       41.302     3477.362     3390.716     1705.878        1.384        0.429      137.890       40.150        0.085      350.704       32.065      864.613
07/05/2014  14:30:00      -21.151      127.880       -9.451       35.068       47.192       35.687     1229.755     2227.057     1273.561        1.081        0.237      129.617       24.604        0.036      350.805       32.241      864.602
07/05/2014  14:31:00       32.678       39.227        3.470       31.561       59.956       32.791      996.127     3594.703     1075.238        0.414        0.283       51.055       17.151        0.113      350.842       32.306      864.605
07/05/2014  14:32:00       16.783      -44.695        6.488       22.958       21.096       20.992      527.067      445.057      440.668        0.187        0.071       47.742       13.436        0.079      351.009       32.598      864.605
07/05/2014  14:33:00      -55.352      -37.980        6.069       97.164       60.087       34.903     9440.841     3610.441     1218.229        0.940        0.713       67.129       43.073        0.412      351.281       33.069      864.584
07/05/2014  14:34:00     -102.666      -51.403       -0.440       90.839       61.660       33.820     8251.646     3801.941     1143.769        1.319        0.660      114.816       32.872        0.082      350.854       32.325      864.569
07/05/2014  14:35:00       90.684      -71.058       25.627       87.361       93.194       68.740     7631.893     8685.059     4725.248        1.748        1.052      115.208       71.390        0.384      351.042       32.652      864.536
07/05/2014  14:36:00       66.054      -61.031       19.807       68.403       84.633       58.043     4679.015     7162.731     3368.998        1.184        0.761       89.933       53.086        0.348      351.004       32.587      864.526
07/05/2014  14:37:00      119.514     -198.044      -27.243      113.566       98.563       78.463    12897.137     9714.753     6156.442        4.150        1.438      231.312       76.044        0.108      350.871       32.354      864.493
07/05/2014  14:38:00       29.849     -183.705      -19.859       75.438       92.503       58.398     5690.823     8556.758     3410.327        2.634        0.883      186.114       33.383        0.032      350.821       32.269      864.504
07/05/2014  14:39:00       90.768     -145.645        0.715      100.754      103.661       88.025    10151.352    10745.671     7748.444        2.904        1.432      171.613       83.180        0.235      350.926       32.450      864.483
07/05/2014  14:40:00       50.465       63.256       95.416       74.546       72.213       51.009     5557.158     5214.692     2601.893        1.451        0.669       80.921       49.111        0.368      351.001       32.582      864.483
07/05/2014  14:41:00      119.293      -93.384       16.601       87.507      140.089       53.574     7657.500    19624.796     2870.171        2.668        1.508      151.497       79.080        0.272      350.723       32.096      864.476
07/05/2014  14:42:00       76.813      -31.806       49.331       72.721      156.567       84.987     5288.344    24513.352     7222.850        2.318        1.851       83.137      113.898        1.877      350.760       32.162      864.464
07/05/2014  14:43:00       71.819        3.728       54.253       63.179      100.383       56.826     3991.551    10076.803     3229.217        1.270        0.865       71.915       69.975        0.947      350.785       32.205      864.444
07/05/2014  14:44:00      154.349      -82.207       34.858       80.428       90.401       56.332     6468.630     8172.349     3173.301        2.480        0.891      174.876       59.536        0.116      350.935       32.467      864.418
07/05/2014  14:45:00       70.634      -22.499       51.222       63.161       88.774       53.942     3989.289     7880.762     2909.758        1.145        0.739       74.131       68.461        0.853      351.068       32.699      864.406
07/05/2014  14:46:00       46.532      -95.812       23.510       98.884      107.241       61.745     9777.990    11500.662     3812.449        1.849        1.255      106.513       66.912        0.395      351.209       32.944      864.398
07/05/2014  14:47:00       22.699     -153.812       -3.787       83.487      113.142       56.015     6970.154    12801.072     3137.640        2.354        1.145      155.478       51.187        0.108      350.892       32.391      864.378
07/05/2014  14:48:00       36.942     -156.428      -16.393       90.981       79.886       52.716     8277.495     6381.800     2778.941        2.177        0.872      160.731       45.668        0.081      350.833       32.288      864.355
07/05/2014  14:49:00        4.486      -35.100        9.283       97.500       62.211       37.041     9506.292     3870.193     1372.020        0.804        0.737       35.385       31.126        0.774      351.197       32.925      864.341
07/05/2014  14:50:00      -87.260      -43.791       10.422       74.348       60.642       38.515     5527.657     3677.406     1483.377        1.016        0.534       97.632       45.766        0.220      351.137       32.819      864.336
07/05/2014  14:51:00      -38.121      -20.248        7.499       17.004       36.340       23.282      289.136     1320.628      542.074        0.204        0.108       43.165       13.352        0.096      351.271       33.053      864.353
07/05/2014  14:52:00       25.198      -68.707        5.020       40.069       67.965       41.534     1605.562     4619.205     1725.103        0.666        0.397       73.182       40.481        0.306      351.112       32.776      864.351
07/05/2014  14:53:00       72.527      -74.817       -2.340       61.993       60.695       38.877     3843.106     3683.824     1511.450        0.995        0.452      104.201       39.538        0.144      350.982       32.550      864.333
07/05/2014  14:54:00       31.404      -49.616       25.664       49.122       58.176       34.141     2412.979     3384.481     1165.597        0.553        0.348       58.719       34.608        0.347      351.025       32.624      864.303
07/05/2014  14:55:00       41.335       -4.245       18.493       48.650       44.910       31.757     2366.818     2016.912     1008.526        0.373        0.270       41.552       23.263        0.313      350.851       32.321      864.295
07/05/2014  14:56:00       62.992       59.621        6.609       61.553       44.702       38.833     3788.773     1998.246     1507.989        0.743        0.365       86.733       29.537        0.116      351.120       32.790      864.292
07/05/2014  14:57:00       86.574       73.521        2.814       68.251       48.708       29.728     4658.153     2372.479      883.766        1.041        0.396      113.580       16.907        0.022      351.012       32.602      864.294
07/05/2014  14:58:00       21.166       13.004       32.236       41.609       22.106       26.620     1731.282      488.674      708.635        0.229        0.146       24.842       26.927        1.175      351.584       33.600      864.306
07/05/2014  14:59:00        7.204        1.503        7.860       51.143       58.747       35.993     2615.642     3451.194     1295.522        0.374        0.368        7.360       33.605       20.850      351.036       32.644      864.310
07/05/2014  15:00:00      -18.452       93.259      -28.411       47.408       44.352       20.574     2247.530     1967.065      423.287        0.724        0.232       95.067       22.067        0.054      350.842       32.306      864.299
07/05/2014  15:01:00       65.392       42.082        8.547       43.847       52.772       33.006     1922.537     2784.914     1089.392        0.596        0.290       77.762       24.190        0.097      350.955       32.502      864.298
07/05/2014  15:02:00      -23.584       76.706        8.206       41.009       62.083       28.728     1681.729     3854.343      825.288        0.643        0.318       80.249       32.470        0.164      351.290       33.087      864.297
07/05/2014  15:03:00      -83.171       22.052       -0.439       66.331       47.566       41.329     4399.767     2262.553     1708.072        0.789        0.419       86.044       38.878        0.204      351.263       33.039      864.298
07/05/2014  15:04:00     -161.259      -47.680      -13.602       35.928       41.846       30.273     1290.824     1751.064      916.430        1.621        0.198      168.160       12.616        0.006      351.083       32.724      864.301
07/05/2014  15:05:00     -206.358      -67.205       -8.608       64.112       83.682       40.320     4110.334     7002.698     1625.674        2.995        0.637      217.025       41.068        0.036      351.241       32.998      864.283
07/05/2014  15:06:00      -91.585      -93.309        2.268       59.971       56.736       33.520     3596.551     3218.925     1123.587        1.252        0.397      130.745       28.368        0.047      351.156       32.854      864.279
07/05/2014  15:07:00       -2.135     -104.445       14.009       29.172       64.058       27.888      850.995     4103.482      777.738        0.842        0.287      104.467       20.819        0.040      351.050       32.668      864.269
07/05/2014  15:08:00      -41.187      -31.785        6.161       66.230       37.673       22.617     4386.423     1419.278      511.535        0.453        0.316       52.025       12.865        0.061      351.384       33.250      864.259
07/05/2014  15:09:00     -133.396     -151.240      -10.438       96.984       83.188       48.808     9405.931     6920.255     2382.191        2.974        0.935      201.663       37.941        0.035      351.204       32.935      864.237
07/05/2014  15:10:00     -143.790       -8.042       23.017      154.884      147.912       72.100    23989.199    21878.050     5198.476        3.616        2.553      144.015       82.805        0.331      351.496       33.442      864.203
07/05/2014  15:11:00     -157.125       93.826      -21.337       60.081       70.082       43.249     3609.694     4911.548     1870.504        2.217        0.520      183.008       40.405        0.049      351.441       33.347      864.232
07/05/2014  15:12:00     -136.938      254.870      -29.154       59.372       99.951       42.701     3525.033     9990.119     1823.388        4.995        0.767      289.328       36.554        0.016      351.067       32.694      864.234
07/05/2014  15:13:00      -90.158      156.951      -19.814       61.917       66.903       34.565     3833.763     4475.983     1194.736        2.133        0.475      181.003       41.731        0.053      350.943       32.478      864.226
07/05/2014  15:14:00     -119.654       84.283      -15.122       77.597       80.186       38.765     6021.269     6429.867     1502.727        1.780        0.698      146.358       39.059        0.071      351.287       33.080      864.226
07/05/2014  15:15:00     -384.033      -94.494      -20.234      168.490      121.474       70.465    28388.917    14755.816     4965.334       10.246        2.406      395.488       79.602        0.041      351.493       33.438      864.169
07/05/2014  15:16:00     -362.657     -216.920        8.471      195.583      146.778       94.188    38252.540    21543.745     8871.342       12.365        3.433      422.581      111.616        0.070      351.381       33.241      864.120
07/05/2014  15:17:00     -360.305     -201.353      -14.371      155.239      115.922       72.537    24099.270    13437.975     5261.684       10.668        2.140      412.750       80.731        0.038      351.019       32.611      864.149
07/05/2014  15:18:00     -323.570     -115.452      -17.961      140.040      158.039       58.702    19611.120    24976.416     3445.973        8.318        2.402      343.550       59.090        0.030      351.036       32.640      864.126
07/05/2014  15:19:00     -437.982     -195.842       -6.124      185.891      128.953       67.575    34555.502    16628.749     4566.345       14.298        2.788      479.773       52.626        0.012      351.313       33.123      864.114
07/05/2014  15:20:00     -262.026      -72.322        1.449      202.867       82.432       61.340    41155.189     6794.991     3762.540        6.279        2.586      271.823       73.296        0.073      351.060       32.682      864.105
07/05/2014  15:21:00     -244.202     -124.928        4.377      138.864      104.051       51.524    19283.339    10826.515     2654.767        5.401        1.638      274.302       62.222        0.051      351.215       32.951      864.102
07/05/2014  15:22:00     -173.034      -88.763        2.217      125.033       88.486       51.103    15633.304     7829.798     2611.560        3.195        1.304      194.473       48.055        0.061      351.560       33.556      864.092
07/05/2014  15:23:00     -383.354      -65.880        0.140      195.441      152.448       83.623    38197.357    23240.504     6992.769       10.985        3.422      388.974      102.027        0.069      351.225       32.970      864.080
07/05/2014  15:24:00     -220.602      -85.825        0.748      168.501      112.048       68.943    28392.497    12554.686     4753.205        5.086        2.285      236.709       69.324        0.086      351.350       33.189      864.084
07/05/2014  15:25:00     -200.160     -173.886        8.196      180.157      126.604       66.993    32456.365    16028.666     4488.063        6.166        2.649      265.142       72.717        0.075      351.390       33.259      864.060
07/05/2014  15:26:00     -124.894     -194.771       42.624      185.114      151.231       98.287    34267.049    22870.826     9660.239        6.106        3.340      231.375      112.419        0.236      351.455       33.371      864.043
07/05/2014  15:27:00     -280.398     -228.654      -19.917      137.075      132.350       74.852    18789.584    17516.484     5602.892        8.660        2.095      361.809       77.436        0.046      351.345       33.177      864.061
07/05/2014  15:28:00     -311.647     -167.455       -6.770      173.274      147.498       70.977    30023.955    21755.749     5037.667        9.100        2.841      353.786       75.237        0.045      351.170       32.873      864.044
07/05/2014  15:29:00     -267.888     -157.437        9.351      209.999      167.826       85.471    44099.574    28165.716     7305.349        8.809        3.979      310.725       83.754        0.073      351.314       33.126      864.023
07/05/2014  15:30:00     -381.046     -292.821      -11.594      199.016      213.511      106.417    39607.247    45587.133    11324.484       16.378        4.826      480.562      111.965        0.054      351.088       32.730      864.025
07/05/2014  15:31:00     -323.185     -181.477        1.621      156.527      124.456       80.111    24500.828    15489.178     6417.736        9.189        2.320      370.652       79.584        0.046      351.200       32.924      864.041
07/05/2014  15:32:00     -204.773     -106.046        6.113      163.589      151.299       60.028    26761.331    22891.267     3603.350        5.323        2.663      230.603       71.248        0.095      351.264       33.037      864.033
07/05/2014  15:33:00     -378.610     -251.203      -15.864      242.269      164.719       87.576    58694.490    27132.261     7669.634       15.008        4.675      454.366      116.978        0.066      351.233       32.982      864.045
07/05/2014  15:34:00     -582.430     -160.575      -27.924      232.214      183.368       87.724    53923.243    33623.724     7695.567       23.050        4.762      604.160       96.128        0.025      351.118       32.783      864.038
07/05/2014  15:35:00     -277.353      -80.013       -5.856      226.046      107.539       73.272    51096.687    11564.582     5368.765        7.568        3.402      288.664      101.783        0.124      351.131       32.806      864.088
07/05/2014  15:36:00      -77.427      -64.641        9.747       83.299       66.429       55.951     6938.739     4412.794     3130.548        1.237        0.724      100.863       56.742        0.316      351.296       33.096      864.061
07/05/2014  15:37:00     -104.078     -242.256      -10.764       92.661      113.281       53.248     8586.100    12832.581     2835.343        4.694        1.213      263.666       31.636        0.014      351.176       32.883      864.021
07/05/2014  15:38:00     -199.888     -198.874       14.229      128.831      112.952       74.865    16597.314    12758.238     5604.800        5.733        1.748      281.969       71.110        0.064      351.186       32.902      864.026
07/05/2014  15:39:00     -261.269     -197.283       -5.401      135.252       84.247       56.944    18293.170     7097.531     3242.657        6.792        1.432      327.387       60.546        0.034      351.096       32.745      864.018
07/05/2014  15:40:00     -168.829     -158.242        7.251      121.012      114.500       56.888    14644.006    13110.197     3236.298        4.229        1.550      231.396       56.959        0.061      351.368       33.220      864.016
07/05/2014  15:41:00     -149.407      -47.111        2.000      115.670      139.196       61.701    13379.577    19375.456     3807.068        3.055        1.828      156.659       59.988        0.147      351.454       33.370      864.026
07/05/2014  15:42:00     -383.755       36.960      -32.471      141.169      156.825       68.906    19928.685    24594.006     4748.054        9.947        2.464      385.531       58.877        0.023      351.358       33.202      863.986
07/05/2014  15:43:00     -385.020     -110.954       -3.588      208.077      138.483       76.975    43296.196    19177.668     5925.165       11.447        3.420      400.688       86.231        0.046      351.360       33.207      863.989
07/05/2014  15:44:00     -476.974     -179.318       -3.011      156.007      114.145       64.194    24338.065    13029.182     4120.912       15.057        2.074      509.567       55.299        0.012      350.872       32.354      863.991
07/05/2014  15:45:00     -240.929     -149.610      -15.562      117.853       92.200       52.651    13889.359     8500.821     2772.168        5.291        1.258      283.602       56.255        0.039      350.847       32.310      863.975
07/05/2014  15:46:00     -321.516      -79.359      -15.878      131.788      165.188       61.734    17367.999    27287.231     3811.133        7.919        2.423      331.166       57.903        0.031      351.246       33.006      863.926
07/05/2014  15:47:00     -287.627      -55.115       -1.029      224.416      135.170       68.857    50362.448    18271.009     4741.334        7.956        3.669      292.860       73.900        0.064      351.602       33.629      863.914
07/05/2014  15:48:00     -437.538      -58.907       -1.816      200.501      135.411       84.018    40200.630    18336.015     7059.048       13.024        3.280      441.485       87.803        0.040      351.409       33.290      863.933
07/05/2014  15:49:00     -429.887      -62.552       -7.309      215.285      111.964       84.795    46347.688    12535.998     7190.149       12.741        3.304      434.414      101.297        0.054      351.526       33.495      863.965
07/05/2014  15:50:00     -299.817      -26.725       -5.194      160.279      100.521       69.737    25689.297    10104.487     4863.298        6.564        2.033      301.005       83.793        0.077      351.600       33.624      863.982
07/05/2014  15:51:00     -410.577     -122.257       -9.319      196.517      167.145       79.285    38618.904    27937.372     6286.118       12.821        3.642      428.393       91.756        0.046      351.270       33.049      863.947
07/05/2014  15:52:00     -181.457     -153.339       23.397      222.288      153.498       85.263    49411.747    23561.672     7269.696        6.860        4.012      237.570      106.591        0.201      351.580       33.590      863.940
07/05/2014  15:53:00     -323.867     -300.615       15.092      207.389      179.146       92.214    43010.329    32093.251     8503.351       13.953        4.180      441.881       98.619        0.050      351.144       32.827      863.949
07/05/2014  15:54:00     -518.459     -206.219       -6.086      252.494      168.636       91.606    63753.103    28438.249     8391.673       20.596        5.029      557.966       97.136        0.030      351.027       32.623      863.929
07/05/2014  15:55:00     -349.354     -295.910       -1.557      246.530      195.439       90.936    60777.104    38196.597     8269.294       15.841        5.362      457.833       99.457        0.047      351.028       32.626      863.921
07/05/2014  15:56:00     -421.993     -121.249      -16.324      263.705      127.976       98.819    69540.096    16377.964     9765.182       14.435        4.784      439.067      109.797        0.063      351.078       32.713      863.957
07/05/2014  15:57:00     -390.584     -133.018      -16.082      219.777      186.204       84.132    48302.127    34671.804     7078.209       13.027        4.503      412.613      102.135        0.061      351.069       32.697      863.922
07/05/2014  15:58:00     -316.145     -179.725      -16.258      200.332      131.179       76.391    40132.929    17207.811     5835.516        9.783        3.159      363.660       78.729        0.047      351.222       32.961      863.936
07/05/2014  15:59:00     -287.826      -66.841       -3.511      125.573      130.452       66.157    15768.567    17017.718     4376.683        6.224        1.858      295.485       61.034        0.043      351.282       33.068      863.934
07/05/2014  16:00:00     -474.195      -64.629      -43.820      201.332      133.411       79.655    40534.707    17798.412     6344.880       14.781        3.234      478.579       81.529        0.029      351.219       32.958      863.920
07/05/2014  16:01:00     -428.828     -157.067      -18.264      162.040      105.740       64.083    26256.864    11181.023     4106.652       12.521        2.077      456.688       63.685        0.019      350.957       32.502      863.921
07/05/2014  16:02:00     -281.831      -57.208      -19.939      131.631      105.681       56.245    17326.740    11168.397     3163.514        5.737        1.583      287.579       56.652        0.039      351.239       32.994      863.901
07/05/2014  16:03:00     -399.571       17.086      -30.392      169.032      125.944       61.697    28571.859    15861.777     3806.529       10.455        2.412      399.936       70.758        0.031      351.215       32.954      863.894
07/05/2014  16:04:00     -361.654     -109.179      -14.718      132.072      109.272       63.709    17442.942    11940.332     4058.801        8.818        1.672      377.775       61.906        0.027      351.044       32.656      863.875
07/05/2014  16:05:00     -160.470     -106.632       10.036      161.904      109.857       72.745    26212.828    12068.618     5291.770        4.039        2.179      192.668       91.207        0.224      351.097       32.749      863.850
07/05/2014  16:06:00     -111.021      -19.445       -0.683      144.324      136.752       51.007    20829.405    18700.985     2601.677        2.741        2.107      112.711       56.642        0.253      351.432       33.330      863.871
07/05/2014  16:07:00     -215.597     -104.314       -6.761      135.816      128.993       71.903    18446.069    16639.192     5169.993        4.883        2.013      239.507       80.886        0.114      351.378       33.237      863.909
07/05/2014  16:08:00     -177.874      -98.749        8.800      206.593      125.412       84.134    42680.626    15728.087     7078.586        5.347        3.274      203.447      108.124        0.282      351.469       33.396      863.900
07/05/2014  16:09:00     -162.362       24.237        6.110      139.112       84.620       57.805    19352.159     7160.569     3341.436        2.842        1.493      164.161       64.025        0.152      351.354       33.196      863.892
07/05/2014  16:10:00     -224.232     -124.726        1.322      162.730      111.749       55.361    26481.176    12487.934     3064.889        5.393        2.102      256.587       72.848        0.081      351.521       33.487      863.887
07/05/2014  16:11:00     -412.615     -133.268      -22.252      181.216      165.757       76.610    32839.216    27475.287     5869.059       12.733        3.309      433.603       87.176        0.040      351.314       33.125      863.891
07/05/2014  16:12:00     -317.292      -51.814      -11.060      157.010      122.335       61.822    24652.173    14965.797     3821.918        7.345        2.172      321.494       52.396        0.027      351.029       32.630      863.901
07/05/2014  16:13:00     -226.885       -1.413      -17.909       55.867       57.681       39.107     3121.094     3327.129     1529.364        2.989        0.399      226.889       28.508        0.016      351.021       32.615      863.867
07/05/2014  16:14:00     -196.487      -58.510      -10.658       77.099       77.382       39.528     5944.257     5987.974     1562.424        2.782        0.675      205.014       46.295        0.051      351.381       33.244      863.877
07/05/2014  16:15:00     -178.136      -21.041      -21.619      107.585       99.967       52.395    11574.520     9993.456     2745.189        2.847        1.216      179.374       36.264        0.041      351.431       33.330      863.861
07/05/2014  16:16:00     -377.587      -65.623      -31.616      194.894      165.186       74.027    37983.697    27286.571     5480.061       10.930        3.538      383.247       77.852        0.041      351.363       33.209      863.847
07/05/2014  16:17:00     -572.079      -13.724      -50.615      279.049      180.987       85.699    77868.461    32756.419     7344.278       22.398        5.898      572.243       89.675        0.025      351.199       32.926      863.861
07/05/2014  16:18:00     -365.920       68.942      -29.191      163.630      153.516       80.352    26774.635    23567.190     6456.410        9.814        2.840      372.357       83.500        0.050      351.013       32.600      863.880
07/05/2014  16:19:00     -325.460      -81.580      -30.477      174.617      120.075       72.142    30491.084    14418.109     5204.424        8.180        2.506      335.529       75.444        0.051      350.966       32.518      863.861
07/05/2014  16:20:00     -254.391      -39.965      -15.481      141.621      104.290       66.007    20056.567    10876.369     4356.986        5.091        1.764      257.511       63.484        0.061      351.175       32.882      863.871
07/05/2014  16:21:00     -109.516       22.053      -17.709       96.728       70.815       40.135     9356.214     5014.799     1610.842        1.439        0.799      111.714       25.778        0.053      351.287       33.080      863.860
07/05/2014  16:22:00     -179.375      -43.397       15.070      182.432       79.986       64.356    33281.591     6397.773     4141.677        3.905        2.191      184.550       82.234        0.199      351.485       33.424      863.863
07/05/2014  16:23:00     -200.426       46.800      -19.506      106.480      104.710       65.955    11338.067    10964.134     4350.014        3.469        1.333      205.818       59.309        0.083      351.526       33.495      863.868
07/05/2014  16:24:00     -484.699       50.954      -51.428      213.472      142.257       77.984    45570.217    20236.970     6081.428       15.602        3.594      487.370       92.576        0.036      351.273       33.054      863.880
07/05/2014  16:25:00     -527.608       -3.759      -43.861      226.004      146.765       79.713    51077.721    21539.975     6354.190       17.963        3.949      527.621       85.202        0.026      351.144       32.828      863.835
07/05/2014  16:26:00     -452.756      -74.195      -27.257      184.773      161.744       82.077    34141.090    26161.192     6736.675       13.913        3.352      458.795       88.760        0.037      351.198       32.922      863.832
07/05/2014  16:27:00     -341.236      -82.154      -13.855      146.462      130.644       66.689    21451.136    17067.910     4447.483        8.317        2.148      350.986       68.751        0.038      351.161       32.857      863.862
07/05/2014  16:28:00     -445.471      -27.880      -40.580      123.337      140.043       61.191    15212.074    19612.038     3744.291       11.971        1.928      446.343       65.525        0.022      350.948       32.486      863.833
07/05/2014  16:29:00     -537.624     -165.230      -18.012      189.397      134.607       77.606    35871.111    18119.041     6022.767       18.833        3.001      562.442       78.884        0.020      351.000       32.578      863.814
07/05/2014  16:30:00     -388.508      -72.029      -10.626      183.375      169.449       81.189    33626.304    28712.874     6591.595       11.257        3.447      395.128       83.974        0.045      351.118       32.783      863.806
07/05/2014  16:31:00     -471.582      -53.956      -20.125      204.576      170.335       93.673    41851.519    29014.138     8774.623       15.266        3.982      474.659       87.481        0.034      351.165       32.864      863.793
07/05/2014  16:32:00     -618.373     -159.686      -32.758      235.124      188.178      109.353    55283.324    35411.091    11957.980       25.579        5.133      638.658      124.598        0.038      350.986       32.554      863.808
07/05/2014  16:33:00     -424.210     -156.094      -35.240      203.994      191.919       94.190    41613.493    36832.857     8871.831       14.643        4.366      452.017       85.093        0.035      350.945       32.482      863.841
07/05/2014  16:34:00     -237.384     -146.905       -4.508      191.820      152.927       86.310    36795.100    23386.659     7449.385        7.278        3.382      279.163       81.471        0.085      351.158       32.854      863.813
07/05/2014  16:35:00     -559.766     -177.103      -39.948      198.866      162.565       90.509    39547.854    26427.265     8191.832       21.022        3.708      587.114       93.767        0.026      351.008       32.590      863.815
07/05/2014  16:36:00     -300.360      -74.250      -11.990      176.216      196.409       87.896    31052.203    38576.573     7725.738        8.660        3.868      309.401       83.751        0.073      351.274       33.054      863.774
07/05/2014  16:37:00     -299.807      -98.034       18.597      187.743      132.530       82.617    35247.516    17564.202     6825.580        7.973        2.982      315.429       83.771        0.071      351.270       33.047      863.788
07/05/2014  16:38:00     -259.039     -229.602       -6.483      142.252      143.445       76.000    20235.648    20576.582     5776.043        8.322        2.329      346.148       60.547        0.031      351.206       32.935      863.785
07/05/2014  16:39:00     -389.339      -87.331      -27.539      186.267      151.456       80.909    34695.407    22938.872     6546.247       11.206        3.209      399.014       82.567        0.043      351.332       33.155      863.805
07/05/2014  16:40:00     -289.548       45.240      -17.599      232.746      100.285       83.982    54170.683    10057.150     7052.962        7.873        3.564      293.061      105.706        0.130      351.212       32.948      863.797
07/05/2014  16:41:00     -382.863       44.754      -26.217      123.998      131.457       58.200    15375.592    17280.843     3387.246        9.265        1.802      385.469       53.733        0.019      351.198       32.922      863.780
07/05/2014  16:42:00     -256.435     -144.182       13.034      245.175      177.944      100.429    60110.868    31663.901    10085.961        9.427        5.093      294.190      116.664        0.157      351.221       32.963      863.752
07/05/2014  16:43:00     -239.925     -208.824       15.786      207.631      177.709       95.171    43110.797    31580.635     9057.569        9.257        4.187      318.075       89.178        0.079      351.138       32.817      863.739
07/05/2014  16:44:00     -281.566     -266.629        5.770      181.010      189.619       90.734    32764.525    35955.240     8232.595       11.367        3.848      387.777      109.952        0.080      351.158       32.852      863.735
07/05/2014  16:45:00     -366.918     -216.371      -12.900      193.807      135.914       77.402    37561.037    18472.719     5991.059       12.181        3.101      425.963       80.919        0.036      351.030       32.628      863.725
07/05/2014  16:46:00     -450.459     -255.253      -34.704      167.363      136.137       68.440    28010.359    18533.354     4684.043       16.024        2.561      517.752       52.164        0.010      350.952       32.492      863.769
07/05/2014  16:47:00     -397.883     -246.325      -21.000      250.225      182.357      113.684    62612.320    33253.940    12924.066       16.409        5.440      467.961      119.898        0.066      350.953       32.496      863.731
07/05/2014  16:48:00     -488.622      -98.046      -21.232      213.941      222.892       86.958    45770.671    49681.020     7561.737       17.590        5.151      498.362       92.078        0.034      351.126       32.797      863.800
07/05/2014  16:49:00     -458.201     -177.274      -19.792      185.962      169.407       87.527    34581.964    28698.705     7661.003       15.634        3.547      491.298       91.882        0.035      350.890       32.386      863.766
07/05/2014  16:50:00     -439.005     -131.430      -31.065      206.128      179.283       82.478    42488.695    32142.307     6802.583       14.619        4.072      458.256       91.974        0.040      350.973       32.530      863.771
07/05/2014  16:51:00     -406.250      -49.456      -28.852      149.060      162.501       72.210    22218.954    26406.596     5214.328       11.107        2.692      409.249       71.867        0.031      351.264       33.037      863.787
07/05/2014  16:52:00     -440.076     -115.167      -14.539      174.415      189.246       89.725    30420.734    35814.040     8050.608       14.070        3.714      454.895       83.651        0.034      351.013       32.600      863.796
07/05/2014  16:53:00     -338.046      -17.133      -25.390      158.182      169.354       83.802    25021.443    28680.635     7022.759        8.796        3.036      338.480       71.526        0.045      351.065       32.690      863.783
07/05/2014  16:54:00     -470.849     -126.460      -15.055      161.318      117.380       66.782    26023.655    13778.124     4459.797       14.108        2.213      487.536       59.656        0.015      351.021       32.613      863.750
07/05/2014  16:55:00     -415.988     -172.067        0.347      193.197      165.031       82.250    37325.100    27235.346     6765.066       13.698        3.566      450.170       86.831        0.037      351.018       32.608      863.761
07/05/2014  16:56:00     -355.465       66.029      -15.897      219.910      110.576       71.204    48360.313    12227.002     5069.964        9.830        3.283      361.546       83.910        0.054      351.041       32.648      863.721
07/05/2014  16:57:00     -226.560      -42.469        5.671      180.995      122.264       72.704    32759.191    14948.520     5285.899        5.307        2.650      230.506       87.475        0.144      351.314       33.125      863.683
07/05/2014  16:58:00     -686.712     -100.884      -50.016      223.500      204.127      102.198    49952.353    41667.824    10444.333       29.314        5.103      694.083      112.049        0.026      351.091       32.735      863.684
07/05/2014  16:59:00     -602.360     -106.321      -13.005      277.957      208.692      123.863    77259.874    43552.516    15341.922       25.521        6.808      611.671      134.292        0.048      350.920       32.439      863.710
07/05/2014  17:00:00     -460.104     -163.336      -19.122      226.116      186.679       94.035    51128.389    34849.097     8842.573       16.676        4.741      488.236      112.795        0.053      350.943       32.478      863.742
07/05/2014  17:01:00     -229.198      -91.979        5.024      168.978      136.288       74.493    28553.558    18574.472     5549.144        5.684        2.634      246.965       69.977        0.080      351.083       32.724      863.720
07/05/2014  17:02:00     -288.984     -236.634        4.112      190.069      160.278       98.884    36126.269    25689.076     9778.103       10.555        3.580      373.507       95.475        0.065      351.146       32.831      863.714
07/05/2014  17:03:00     -386.890     -212.257       -7.248      241.715      200.612       97.732    58426.128    40245.269     9551.578       15.149        5.411      441.290      107.547        0.059      350.958       32.505      863.709
07/05/2014  17:04:00     -500.783      -86.196      -20.454      235.977      188.974       88.150    55685.359    35711.063     7770.362       17.888        4.958      508.147       90.398        0.032      350.914       32.427      863.662
07/05/2014  17:05:00     -468.127      -67.832      -13.985      218.155      160.776       83.949    47591.392    25848.854     7047.414       15.220        4.024      473.016       90.704        0.037      351.060       32.682      863.645
07/05/2014  17:06:00     -425.827     -172.067       -1.830      206.111      165.490       97.766    42481.935    27386.945     9558.182       14.517        3.971      459.277      109.819        0.057      351.101       32.754      863.651
07/05/2014  17:07:00     -402.831      -94.469      -13.208      281.443      178.539       99.148    79210.344    31876.260     9830.350       14.612        6.046      413.760      126.960        0.094      351.096       32.744      863.652
07/05/2014  17:08:00     -479.814      -59.863      -14.891      212.366      228.857       94.739    45099.196    52375.396     8975.475       17.022        5.323      483.533       88.306        0.033      350.939       32.472      863.649
07/05/2014  17:09:00     -466.173     -118.901      -25.648      230.793      131.334       84.949    53265.262    17248.616     7216.376       15.491        3.887      481.097      105.680        0.048      350.908       32.418      863.642
07/05/2014  17:10:00     -272.564      -81.437       11.013      188.358      150.941       85.535    35478.566    22783.199     7316.278        7.330        3.279      284.470      100.045        0.124      351.059       32.681      863.639
07/05/2014  17:11:00     -342.946      -49.175      -25.608      223.568      111.198       78.081    49982.665    12365.079     6096.601        9.455        3.422      346.454       96.861        0.078      351.266       33.040      863.655
07/05/2014  17:12:00     -260.844      -43.130       11.691      154.378      107.309       65.334    23832.451    11515.117     4268.596        5.482        1.981      264.386       77.316        0.086      351.338       33.167      863.645
07/05/2014  17:13:00     -361.278     -206.177      -17.148      186.883      119.059       91.396    34925.073    14174.978     8353.207       11.538        2.873      415.970       97.429        0.055      351.032       32.634      863.631
07/05/2014  17:14:00     -415.402     -140.095      -11.929      216.150      176.721       96.148    46720.798    31230.352     9244.450       13.975        4.360      438.389      101.744        0.054      350.881       32.370      863.641
07/05/2014  17:15:00     -203.014      -53.190       14.073      172.184      165.650       81.325    29647.433    27439.775     6613.769        5.396        3.185      209.867       84.697        0.163      351.004       32.584      863.623
07/05/2014  17:16:00     -385.586     -217.226        4.467      222.471      143.640      100.944    49493.492    20632.564    10189.670       13.809        4.016      442.565      117.694        0.071      350.844       32.306      863.594
07/05/2014  17:17:00     -344.116     -125.435        0.589      206.208      135.196       71.677    42521.921    18277.998     5137.577       10.003        3.297      366.265       78.261        0.046      351.088       32.732      863.583
07/05/2014  17:18:00     -446.273     -246.655        6.521      267.933      185.000      118.345    71788.246    34225.178    14005.557       19.001        6.001      509.900      144.340        0.080      350.922       32.440      863.568
07/05/2014  17:19:00     -411.524     -234.319        1.134      256.036      236.898      133.714    65554.192    56120.434    17879.377       18.188        6.978      473.558      117.854        0.062      350.828       32.278      863.566
07/05/2014  17:20:00     -486.228     -380.551      -27.517      214.028      176.764      121.605    45807.856    31245.681    14787.773       23.690        4.592      617.443      109.165        0.031      350.792       32.216      863.579
07/05/2014  17:21:00     -424.535     -297.855      -20.839      226.399      218.616       94.723    51256.513    47792.861     8972.470       18.868        5.401      518.602      108.143        0.043      350.829       32.281      863.587
07/05/2014  17:22:00     -360.623      -60.446       -8.835      148.999      172.056       69.251    22200.579    29603.291     4795.693        9.518        2.830      365.654       69.407        0.036      350.991       32.562      863.608
07/05/2014  17:23:00     -339.280      -32.831      -10.075      243.365      122.471      100.685    59226.432    14999.203    10137.523       10.031        4.218      340.864      125.436        0.135      351.087       32.729      863.589
07/05/2014  17:24:00     -277.028     -210.809        7.743      236.798      160.847      101.849    56073.249    25871.675    10373.237       10.677        4.616      348.117      126.724        0.133      350.972       32.529      863.576
07/05/2014  17:25:00     -497.649     -196.215      -23.646      253.810      218.340       92.882    64419.697    47672.215     8627.087       20.370        6.036      534.935      114.220        0.046      350.866       32.345      863.561
07/05/2014  17:26:00     -300.051     -135.670        1.476      169.646      145.436       84.629    28779.854    21151.639     7162.009        8.276        2.855      329.298       79.716        0.059      350.944       32.481      863.555
07/05/2014  17:27:00     -515.243     -101.319      -12.052      222.022      232.553      103.235    49293.690    54080.731    10657.519       19.494        5.702      525.110       95.797        0.033      350.944       32.480      863.542
07/05/2014  17:28:00     -373.850     -198.131      -16.590      170.834      185.718       93.480    29184.157    34491.153     8738.467       12.584        3.621      423.107       79.032        0.035      350.924       32.445      863.526
07/05/2014  17:29:00     -435.270      -51.637        0.076      189.857      144.829       89.466    36045.549    20975.310     8004.169       12.856        3.251      438.322       87.794        0.040      350.804       32.238      863.519
07/05/2014  17:30:00     -537.699     -136.477      -20.464      197.087      134.850       88.341    38843.228    18184.558     7804.134       18.649        3.242      554.749       90.062        0.026      350.832       32.285      863.541
07/05/2014  17:31:00     -226.134      -72.442        6.127      146.946      151.132       70.722    21593.255    22840.765     5001.568        5.292        2.472      237.454       68.497        0.083      351.076       32.708      863.547
07/05/2014  17:32:00     -288.077     -113.598       -6.919      189.121      133.256       77.300    35766.670    17757.221     5975.341        7.771        2.975      309.666       86.439        0.078      351.054       32.671      863.537
07/05/2014  17:33:00     -307.300     -202.238       -1.362      211.309      138.701       75.697    44651.310    19237.937     5729.964       10.247        3.481      367.877       79.329        0.047      350.983       32.547      863.533
07/05/2014  17:34:00     -315.057     -168.876      -10.225      187.627      146.524       78.477    35204.010    21469.398     6158.712        9.535        3.142      357.463       93.010        0.068      350.949       32.489      863.494
07/05/2014  17:35:00     -354.450      -72.152      -16.061      182.968      172.125       61.441    33477.382    29626.928     3774.950        9.898        3.344      361.719       73.552        0.041      351.076       32.710      863.505
07/05/2014  17:36:00     -284.896      -74.501       13.383      221.079      180.295       97.413    48876.115    32506.219     9489.366        8.887        4.544      294.476      117.692        0.160      351.075       32.709      863.505
07/05/2014  17:37:00     -375.788      -96.232      -11.943      167.537      124.387       79.334    28068.810    15472.037     6293.878       10.022        2.492      387.914       78.488        0.041      351.034       32.636      863.510
07/05/2014  17:38:00     -446.978      -73.783       -0.262      266.662      189.492      109.141    71108.799    35907.378    11911.704       16.206        5.946      453.027      128.106        0.080      351.014       32.603      863.480
07/05/2014  17:39:00     -489.729     -142.351      -30.429      254.241      198.005       97.387    64638.571    39206.004     9484.305       18.716        5.666      509.998       79.588        0.024      350.846       32.310      863.467
07/05/2014  17:40:00     -512.446     -243.288       -9.935      243.843      208.143      114.853    59459.553    43323.355    13191.294       21.891        5.799      567.265      119.460        0.044      350.762       32.163      863.504
07/05/2014  17:41:00     -340.073     -209.343        3.723      233.165      175.370       88.352    54366.008    30754.560     7806.153       12.619        4.646      399.342       96.273        0.058      350.721       32.092      863.486
07/05/2014  17:42:00     -315.326      -97.966       -6.125      259.876      256.277      123.847    67535.647    65678.108    15337.991       12.878        7.428      330.194      151.058        0.209      350.818       32.262      863.478
07/05/2014  17:43:00     -264.840      -65.469       15.959      189.157      140.562       74.908    35780.532    19757.680     5611.164        6.791        3.057      272.812       93.643        0.118      350.982       32.545      863.483
07/05/2014  17:44:00     -424.063      -45.089      -30.592      167.777      142.512       75.989    28149.130    20309.581     5774.263       11.851        2.712      426.454       83.499        0.038      350.892       32.389      863.513
07/05/2014  17:45:00     -550.294     -129.671       -0.824      414.793      199.070      137.457   172053.464    39628.926    18894.457       27.507       11.529      565.366      186.229        0.109      350.725       32.099      863.484
07/05/2014  17:46:00     -269.756     -202.174       18.207      201.491      141.981      107.043    40598.430    20158.517    11458.196        9.308        3.611      337.109      115.192        0.117      350.845       32.309      863.492
07/05/2014  17:47:00     -404.583     -188.698      -13.360      206.129      178.192      101.829    42489.023    31752.504    10369.089       14.203        4.231      446.424      111.927        0.063      350.791       32.214      863.457
07/05/2014  17:48:00     -391.511     -123.464      -14.555      242.505      184.113       98.482    58808.850    33897.536     9698.608       13.555        5.120      410.517      113.609        0.077      350.800       32.230      863.478
07/05/2014  17:49:00     -291.099     -155.673       -6.367      186.752      144.466       92.009    34876.227    20870.541     8465.706        8.660        3.211      330.110       94.413        0.082      350.865       32.344      863.441
07/05/2014  17:50:00     -437.071     -152.633      -21.094      246.783      189.843       91.397    60901.704    36040.242     8353.422       16.002        5.265      462.955       84.855        0.034      350.858       32.331      863.454
07/05/2014  17:51:00     -106.563      -34.935        7.135      178.541      108.614       77.924    31876.921    11796.957     6072.213        3.118        2.487      112.143       83.142        0.550      350.979       32.541      863.431
07/05/2014  17:52:00     -260.964     -142.825       15.964      168.808      188.556       74.566    28496.121    35553.206     5560.083        7.917        3.480      297.491       96.629        0.106      351.013       32.600      863.460
07/05/2014  17:53:00     -540.514     -318.979      -17.934      214.792      197.244       93.500    46135.636    38905.152     8742.231       24.399        4.689      627.617       87.829        0.020      350.669       32.002      863.434
07/05/2014  17:54:00     -269.292     -117.744        9.922      176.384      123.809       76.218    31111.206    15328.748     5809.210        6.936        2.612      293.908       88.551        0.091      350.920       32.439      863.471
07/05/2014  17:55:00     -541.219     -253.275      -18.615      290.788      236.239      122.441    84557.764    55808.824    14991.786       25.636        7.768      597.550      141.170        0.056      350.731       32.109      863.456
07/05/2014  17:56:00     -345.147     -179.131      -25.773      233.677      135.024       83.606    54604.747    18231.450     6989.917       11.584        3.991      388.863       98.719        0.064      350.752       32.145      863.470
07/05/2014  17:57:00     -392.357     -168.691      -12.469      199.712      119.088       80.613    39884.922    14181.920     6498.428       12.155        3.028      427.084       83.579        0.038      350.720       32.089      863.467
07/05/2014  17:58:00     -253.566      -80.941       -9.712      165.405      102.735       78.778    27358.848    10554.417     6206.030        5.752        2.206      266.171       74.651        0.079      350.814       32.255      863.493
07/05/2014  17:59:00     -431.333        4.182      -18.008      189.092      163.005       83.140    35755.866    26570.475     6912.212       12.780        3.462      431.353       86.674        0.040      350.773       32.183      863.501
07/05/2014  18:00:00     -409.592      -97.915       -3.908      216.949      145.656       88.428    47066.741    21215.755     7819.488       12.672        3.805      421.133       94.067        0.050      350.835       32.290      863.490
07/05/2014  18:01:00     -503.055     -250.538      -23.800      245.850      202.829      112.346    60442.042    41139.439    12621.601       21.528        5.710      561.990      133.316        0.056      350.612       31.902      863.467
07/05/2014  18:02:00     -539.207     -168.497      -33.315      187.155      177.549       93.240    35026.854    31523.739     8693.679       19.773        3.762      564.921       87.723        0.024      350.624       31.922      863.478
07/05/2014  18:03:00     -409.903     -207.941      -18.398      274.117      168.448       97.408    75139.877    28374.658     9488.307       16.228        5.650      459.630      113.077        0.061      350.545       31.787      863.456
07/05/2014  18:04:00     -546.374     -262.946      -25.996      233.457      171.108      114.060    54502.212    29277.820    13009.765       23.255        4.839      606.354      102.841        0.029      350.539       31.774      863.448
07/05/2014  18:05:00     -444.928      -69.799      -19.914      211.563      155.830       87.270    44758.830    24282.905     7616.137       13.993        3.833      450.369      105.782        0.055      350.620       31.917      863.464
07/05/2014  18:06:00     -257.391      -44.655       -6.094      178.203      114.068       68.620    31756.399    13011.455     4708.739        5.887        2.474      261.236       74.692        0.082      350.792       32.214      863.487
07/05/2014  18:07:00     -399.305     -153.009      -29.747      201.762      152.305       87.743    40707.787    23196.881     7698.772       12.766        3.580      427.617       97.228        0.052      350.702       32.058      863.482
07/05/2014  18:08:00     -223.653     -148.724       13.569      231.625      172.965       82.970    53650.314    29917.003     6884.065        8.137        4.523      268.588      110.564        0.169      350.798       32.227      863.480
07/05/2014  18:09:00     -484.880     -273.184      -19.341      194.658      179.445       99.660    37891.918    32200.601     9932.168       19.506        4.001      556.541      108.480        0.038      350.584       31.853      863.497
07/05/2014  18:10:00     -275.261     -244.606       -6.819      174.573      174.108       95.424    30475.839    30313.488     9105.796       10.276        3.495      368.240       91.859        0.062      350.572       31.831      863.483
07/05/2014  18:11:00     -371.441      -43.047      -18.209      178.640      138.883       75.496    31912.243    19288.349     5699.663        9.852        2.845      373.927       78.064        0.044      350.740       32.125      863.522
07/05/2014  18:12:00     -622.220     -120.292      -17.653      269.258      217.828       94.399    72500.134    47448.977     8911.098       26.538        6.443      633.741      101.565        0.026      350.518       31.739      863.494
07/05/2014  18:13:00     -427.280     -121.899       -6.223      215.948      157.054       96.119    46633.494    24665.882     9238.806       13.899        4.027      444.329      109.915        0.061      350.600       31.879      863.515
07/05/2014  18:14:00     -525.540     -223.650      -21.413      231.017      179.177      106.748    53368.735    32104.317    11395.096       21.175        4.843      571.149      122.525        0.046      350.495       31.699      863.499
07/05/2014  18:15:00     -426.830     -175.652       -2.742      264.303      220.167      112.218    69855.825    48473.420    12592.918       17.196        6.546      461.559      135.247        0.086      350.497       31.701      863.500
07/05/2014  18:16:00     -483.020     -254.534      -25.214      215.576      210.731       89.032    46472.885    44407.606     7926.656       19.875        4.940      545.981       84.140        0.024      350.393       31.522      863.494
07/05/2014  18:17:00     -283.935      -46.571        8.421      179.612      169.266       77.339    32260.393    28650.837     5981.314        7.486        3.345      287.729       77.708        0.073      350.557       31.806      863.496
07/05/2014  18:18:00     -421.168     -198.287       -6.472      269.707      193.374      112.882    72741.736    37393.601    12742.421       16.979        6.144      465.511      144.527        0.096      350.466       31.648      863.498
07/05/2014  18:19:00     -221.398      -80.811       10.783      176.079      152.506       82.890    31003.843    23258.152     6870.728        5.839        3.057      235.685       85.557        0.132      350.565       31.820      863.523
07/05/2014  18:20:00     -177.103     -118.840       16.817      154.953      144.077       77.576    24010.444    20758.316     6017.964        4.827        2.539      213.280       86.191        0.163      350.614       31.906      863.540
07/05/2014  18:21:00     -447.487     -113.260      -33.574      182.390      149.200       81.359    33266.126    22260.709     6619.223       13.816        3.107      461.598       86.701        0.035      350.477       31.665      863.540
07/05/2014  18:22:00     -266.562      -38.551      -22.453      154.022      125.443       68.342    23722.847    15736.000     4670.608        5.858        2.206      269.335       56.392        0.044      350.644       31.958      863.523
07/05/2014  18:23:00     -279.593      -94.011       15.031      209.496      198.943       95.030    43888.370    39578.311     9030.619        8.985        4.625      294.975      106.162        0.130      350.535       31.768      863.493
07/05/2014  18:24:00     -360.586     -124.519      -13.656      192.681      166.138       88.541    37125.833    27601.912     7839.525       10.913        3.628      381.481       89.218        0.055      350.594       31.870      863.523
07/05/2014  18:25:00     -369.899      -55.291       -5.012      217.537      120.200       79.850    47322.265    14448.049     6375.975       10.402        3.407      374.009       98.629        0.070      350.653       31.973      863.552
07/05/2014  18:26:00     -456.402     -109.363      -10.756      224.118      222.566      101.481    50228.721    49535.511    10298.330       16.520        5.503      469.322       98.412        0.044      350.472       31.657      863.508
07/05/2014  18:27:00     -394.930     -146.881      -19.384      315.512      209.265      115.641    99547.653    43791.958    13372.860       16.729        7.836      421.360      123.311        0.086      350.423       31.573      863.482
07/05/2014  18:28:00     -281.473     -177.618       -3.471      207.005      160.319       98.034    42850.938    25702.236     9610.607        9.446        3.908      332.829      111.199        0.112      350.447       31.615      863.489
07/05/2014  18:29:00     -300.891     -101.583        2.026      212.433      143.085       95.467    45127.628    20473.334     9113.985        8.777        3.736      317.576      108.230        0.116      350.513       31.729      863.498
07/05/2014  18:30:00     -224.468      -71.912       -2.678      141.462      135.072       65.410    20011.511    18244.430     4278.438        4.904        2.127      235.706       66.986        0.081      350.574       31.835      863.517
07/05/2014  18:31:00     -332.549      -56.937      -12.512      176.330      145.592       72.222    31092.289    21196.891     5215.964        8.574        2.875      337.388       83.079        0.061      350.634       31.940      863.531
07/05/2014  18:32:00     -533.244     -180.297      -50.044      205.503      142.261       85.380    42231.412    20238.159     7289.815       19.455        3.488      562.899       60.358        0.011      350.422       31.571      863.514
07/05/2014  18:33:00     -673.045     -150.357      -36.620      206.597      182.969       98.648    42682.491    33477.699     9731.392       28.140        4.295      689.635      102.548        0.022      350.367       31.475      863.513
07/05/2014  18:34:00     -473.424     -140.013      -14.305      250.589      155.855       81.774    62795.068    24290.713     6686.932       16.884        4.689      493.694       85.842        0.030      350.312       31.381      863.507
07/05/2014  18:35:00     -479.299     -111.760      -20.479      268.082      185.894      110.579    71868.169    34556.402    12227.654       18.062        5.933      492.156      138.517        0.079      350.365       31.472      863.483
07/05/2014  18:36:00     -509.379     -107.179      -14.226      274.708      196.015      111.761    75464.742    38421.791    12490.463       19.875        6.319      520.533      138.253        0.071      350.392       31.520      863.468
07/05/2014  18:37:00     -371.781     -158.881        0.711      216.902      182.484       91.965    47046.627    33300.430     8457.530       12.612        4.440      404.308       93.424        0.053      350.385       31.506      863.502
07/05/2014  18:38:00     -489.267     -171.812       -9.846      292.831      183.001       95.191    85750.106    33489.424     9061.248       19.863        6.415      518.557      115.968        0.050      350.341       31.430      863.495
07/05/2014  18:39:00     -352.121     -156.480       -3.866      201.023      203.896       99.978    40410.396    41573.759     9995.673       12.022        4.599      385.325      100.902        0.069      350.328       31.408      863.507
07/05/2014  18:40:00     -597.353     -180.510      -24.529      265.670      229.556      111.149    70580.762    52696.002    12354.099       26.280        6.782      624.031      125.827        0.041      350.293       31.348      863.480
07/05/2014  18:41:00     -486.477     -200.528      -12.811      217.815      211.695       92.583    47443.483    44814.642     8571.589       18.892        5.041      526.186      100.305        0.036      350.369       31.480      863.508
07/05/2014  18:42:00     -503.788     -184.618      -15.840      237.988      212.671       94.238    56638.510    45229.147     8880.743       19.942        5.537      536.550       86.264        0.026      350.260       31.290      863.517
07/05/2014  18:43:00     -257.858      -87.431        7.843      152.249      128.160       81.714    23179.796    16424.928     6677.154        6.023        2.314      272.277       81.046        0.089      350.367       31.477      863.521
07/05/2014  18:44:00     -263.882     -126.080      -10.297      143.168      129.791       65.530    20497.149    16845.766     4294.204        6.363        2.082      292.455       72.065        0.061      350.409       31.549      863.563
07/05/2014  18:45:00     -189.173      -86.320       -0.322      161.868      147.305       74.387    26201.142    21698.632     5533.398        4.833        2.672      207.936       77.695        0.140      350.367       31.477      863.557
07/05/2014  18:46:00     -454.018     -198.713      -23.871      260.529      181.206      100.814    67875.472    32835.602    10163.447       17.851        5.544      495.600      108.061        0.048      350.278       31.321      863.560
07/05/2014  18:47:00     -255.545     -210.309       -8.266      203.825      198.159      106.104    41544.502    39266.805    11258.027       10.082        4.603      330.957      130.665        0.156      350.308       31.375      863.523
07/05/2014  18:48:00     -353.981      -82.089      -17.557      245.024      146.306       87.455    60036.947    21405.405     7648.413       11.071        4.455      363.375       89.603        0.061      350.322       31.398      863.554
07/05/2014  18:49:00     -278.675     -184.153        4.781      158.231      126.681       81.974    25037.018    16048.024     6719.816        7.969        2.390      334.024       75.714        0.051      350.360       31.464      863.577
07/05/2014  18:50:00     -399.085     -177.528      -11.578      261.798      220.193       97.158    68538.342    48484.898     9439.759       15.867        6.323      436.790      113.428        0.067      350.260       31.290      863.580
07/05/2014  18:51:00     -403.804     -279.379       -9.456      225.536      172.377      107.244    50866.572    29713.691    11501.217       16.663        4.604      491.030      125.039        0.065      350.185       31.159      863.572
07/05/2014  18:52:00     -294.488     -148.927        2.557      206.091      153.771       86.540    42473.484    23645.571     7489.165        9.125        3.680      330.004       94.836        0.083      350.217       31.214      863.566
07/05/2014  18:53:00     -268.505     -179.861      -17.078      147.938      139.704       78.906    21885.587    19517.152     6226.197        7.617        2.381      323.180       80.424        0.062      350.254       31.278      863.597
07/05/2014  18:54:00     -284.097     -144.705      -11.219      155.342       91.446       48.005    24131.280     8362.409     2304.524        6.828        1.740      318.827       33.889        0.011      350.266       31.300      863.609
07/05/2014  18:55:00     -354.076     -110.973      -10.629      203.137      153.394       78.364    41264.451    23529.761     6140.962       10.435        3.547      371.059       96.330        0.067      350.246       31.264      863.607
07/05/2014  18:56:00     -415.755      -28.331      -12.655      213.012      163.288       93.276    45374.046    26663.114     8700.458       12.726        4.037      416.719       94.972        0.052      350.229       31.236      863.632
07/05/2014  18:57:00     -373.137     -126.589      -11.222      266.148      189.991      105.781    70834.659    36096.520    11189.695       13.673        5.906      394.025      131.892        0.112      350.178       31.147      863.625
07/05/2014  18:58:00     -495.866     -100.853      -32.468      219.400      162.220       92.593    48136.242    26315.343     8573.459       17.005        4.151      506.018       99.363        0.039      350.173       31.138      863.636
07/05/2014  18:59:00     -501.369     -146.820      -24.934      217.686      176.638       91.526    47387.080    31201.108     8376.923       18.024        4.348      522.424       84.758        0.026      350.133       31.069      863.663
07/05/2014  19:00:00     -386.744     -117.690      -10.876      194.951      180.293       92.349    38005.720    32505.708     8528.343       12.128        3.952      404.255      102.113        0.064      350.178       31.148      863.648
07/05/2014  19:01:00     -298.672     -239.207        0.871      216.999      159.493       89.517    47088.504    25438.083     8013.260       11.347        4.027      382.656       96.757        0.064      350.114       31.036      863.665
07/05/2014  19:02:00     -301.195     -204.372       -6.035      126.264       92.433       67.430    15942.629     8543.863     4546.869        8.077        1.452      363.987       67.991        0.035      350.100       31.012      863.661
07/05/2014  19:03:00     -231.385     -109.359       -4.148      163.706      126.399       65.084    26799.621    15976.726     4235.974        5.626        2.351      255.927       78.275        0.094      350.234       31.245      863.677
07/05/2014  19:04:00     -202.490      -81.728       21.756      201.391      184.735       93.011    40558.282    34126.900     8651.055        6.573        4.167      218.361      108.173        0.245      350.172       31.138      863.660
07/05/2014  19:05:00     -513.177      -65.470      -39.229      218.221      176.855      102.591    47620.496    31277.791    10524.972       17.928        4.471      517.336      116.592        0.051      350.104       31.018      863.657
07/05/2014  19:06:00     -400.497      -89.697       -9.384      217.399      165.239      100.072    47262.189    27303.768    10014.409       12.654        4.229      410.419      115.225        0.079      350.066       30.951      863.650
07/05/2014  19:07:00     -270.413      -76.825        2.590      177.080      134.550       78.031    31357.224    18103.568     6088.762        6.728        2.777      281.114       87.052        0.096      350.116       31.039      863.661
07/05/2014  19:08:00     -471.529     -208.843       -3.384      281.284      245.704      113.696    79120.865    60370.455    12926.772       20.917        7.621      515.708      135.502        0.069      349.992       30.823      863.671
07/05/2014  19:09:00     -444.197      -95.390      -25.065      189.372      218.334       82.896    35861.649    47669.591     6871.733       14.871        4.520      454.323       78.038        0.030      349.992       30.824      863.662
07/05/2014  19:10:00     -327.547     -171.225       11.549      286.406      196.881       87.781    82028.317    38762.164     7705.494       13.260        6.425      369.601       97.947        0.070      349.960       30.770      863.692
07/05/2014  19:11:00     -462.376     -201.525      -19.186      251.992      150.937       91.126    63500.117    22782.102     8303.925       17.466        4.729      504.384      104.429        0.043      349.920       30.700      863.690
07/05/2014  19:12:00     -478.085     -261.501       -9.873      235.723      165.806      103.585    55565.331    27491.655    10729.774       19.540        4.689      544.930      109.819        0.041      349.903       30.669      863.674
07/05/2014  19:13:00     -434.057      -24.933      -24.167      169.679      181.475       88.745    28790.992    32933.017     7875.642       12.959        3.480      434.772       79.799        0.034      349.933       30.722      863.711
07/05/2014  19:14:00     -384.220      -96.239      -20.039      252.773      209.279       78.857    63894.132    43797.705     6218.471       13.558        5.696      396.089      100.992        0.065      349.880       30.629      863.712
07/05/2014  19:15:00     -513.492        3.876      -27.537      252.461      162.840       98.997    63736.453    26517.006     9800.419       18.223        5.003      513.506      120.212        0.055      349.888       30.645      863.735
07/05/2014  19:16:00     -386.146     -158.695        3.948      176.723      144.628       77.733    31231.126    20917.190     6042.473       11.624        2.910      417.484       83.138        0.040      349.912       30.685      863.707
07/05/2014  19:17:00     -327.811     -137.474        4.868      255.237      193.844       93.349    65145.672    37575.407     8714.021       11.889        5.572      355.470      110.076        0.096      349.926       30.710      863.732
07/05/2014  19:18:00     -281.859     -136.479       -5.326      194.241      175.483       90.978    37729.576    30794.219     8276.943        8.744        3.840      313.163      101.612        0.105      349.903       30.669      863.720
07/05/2014  19:19:00     -326.096      -55.440      -23.078      229.609      157.158       70.388    52720.192    24698.613     4954.480        9.615        4.119      330.775       85.420        0.067      349.921       30.702      863.767
07/05/2014  19:20:00     -322.729      -67.919        3.812      172.039      146.038       77.108    29597.418    21327.029     5945.666        8.282        2.844      329.799       76.963        0.054      349.914       30.689      863.789
07/05/2014  19:21:00     -380.359      -88.016      -12.966      200.661      183.617       82.206    40264.702    33715.063     6757.824       11.665        4.037      390.410       87.169        0.050      349.865       30.604      863.787
07/05/2014  19:22:00     -446.066      -20.618      -21.111      235.402      158.959       88.621    55414.239    25267.943     7853.712       14.418        4.427      446.542       92.830        0.043      349.813       30.514      863.783
07/05/2014  19:23:00     -337.211     -184.189       -9.615      221.222      119.604       88.584    48939.036    14305.056     7847.066       10.940        3.555      384.235      103.953        0.073      349.834       30.549      863.791
07/05/2014  19:24:00     -287.907     -145.546       11.938      316.266      188.683      124.927   100024.283    35601.408    15606.695       12.770        7.562      322.605      161.603        0.251      349.754       30.409      863.765
07/05/2014  19:25:00     -232.397     -119.484        1.535      182.644      159.717       89.724    33358.949    25509.493     8050.484        6.759        3.346      261.314       98.445        0.142      349.813       30.514      863.803
07/05/2014  19:26:00     -325.878     -128.292      -10.057      123.287      132.690       71.467    15199.756    17606.638     5107.479        8.033        1.896      350.221       60.524        0.030      349.783       30.460      863.835
07/05/2014  19:27:00     -392.274     -234.117      -42.638      230.642      156.329       97.174    53195.776    24438.765     9442.843       14.878        4.354      456.826      104.393        0.052      349.734       30.374      863.828
07/05/2014  19:28:00     -246.498     -140.059       -7.556      156.185      137.873       84.787    24393.857    19009.087     7188.809        6.550        2.530      283.510       80.768        0.081      349.748       30.399      863.841
07/05/2014  19:29:00     -297.816      -75.306      -10.533      140.272      105.789       56.625    19676.179    11191.375     3206.431        6.427        1.704      307.189       73.343        0.057      349.755       30.411      863.861
07/05/2014  19:30:00     -229.871     -141.100        8.636      125.452      103.207       61.103    15738.268    10651.726     3733.578        5.147        1.506      269.722       59.126        0.048      349.758       30.417      863.859
07/05/2014  19:31:00     -310.755      -66.415        8.772      194.016      136.749       80.725    37642.304    18700.195     6516.475        8.195        3.143      317.772       87.081        0.075      349.711       30.334      863.867
07/05/2014  19:32:00     -385.236     -149.842      -23.734      202.201      185.090       97.952    40885.195    34258.219     9594.517       12.807        4.237      413.352      103.154        0.062      349.685       30.289      863.869
07/05/2014  19:33:00     -271.618     -182.789        2.538      246.601      180.439       92.768    60812.185    32558.065     8605.960       10.457        5.099      327.397      103.971        0.101      349.617       30.174      863.857
07/05/2014  19:34:00     -408.346      -47.360      -10.532      200.537      132.295       75.719    40215.157    17502.081     5733.293       11.626        3.173      411.083       83.198        0.041      349.671       30.266      863.875
07/05/2014  19:35:00     -392.458     -141.655      -16.352      195.857      174.070       85.722    38359.862    30300.352     7348.227       12.517        3.800      417.240       73.201        0.031      349.660       30.248      863.854
07/05/2014  19:36:00     -438.352     -112.013      -17.301      249.926      193.141       90.071    62462.905    37303.434     8112.773       15.642        5.394      452.437      101.267        0.050      349.637       30.207      863.871
07/05/2014  19:37:00     -365.762     -161.824      -19.316      216.462      184.118      100.223    46855.887    33899.334    10044.574       12.556        4.540      399.961      104.672        0.068      349.616       30.172      863.892
07/05/2014  19:38:00     -332.506     -163.597       -6.392      227.555      148.642      104.041    51781.307    22094.517    10824.586       11.102        4.235      370.573      119.184        0.103      349.624       30.186      863.894
07/05/2014  19:39:00     -406.761     -199.035        0.748      176.872      137.019       84.353    31283.696    18774.084     7115.471       13.111        2.859      452.846       94.807        0.044      349.596       30.138      863.908
07/05/2014  19:40:00     -232.397      -78.668        2.455      179.020      165.721       75.679    32048.221    27463.529     5727.351        6.271        3.262      245.351       77.320        0.099      349.601       30.146      863.909
07/05/2014  19:41:00     -259.332     -216.204        0.175      208.459      176.542      109.702    43454.974    31166.958    12034.420       10.031        4.333      337.635      122.330        0.131      349.571       30.093      863.914
07/05/2014  19:42:00     -307.372     -189.075       -3.790      163.141      132.433       71.826    26615.060    17538.422     5158.914        8.977        2.466      360.870       87.952        0.059      349.559       30.075      863.921
07/05/2014  19:43:00     -254.095     -173.362        8.886      161.871      106.919       76.460    26202.107    11431.743     5846.084        6.908        2.174      307.602       83.179        0.073      349.554       30.065      863.934
07/05/2014  19:44:00     -343.219     -200.830       -9.539      237.769      146.663       91.517    56534.236    21510.039     8375.359       12.231        4.321      397.658      111.054        0.078      349.550       30.058      863.934
07/05/2014  19:45:00     -410.792     -264.863       -1.586      305.588      232.387      139.252    93384.323    54003.667    19391.005       20.281        8.339      488.777      165.232        0.114      349.522       30.008      863.896
07/05/2014  19:46:00     -433.751     -275.688       -6.482      270.882      208.887      102.874    73377.174    43633.895    10583.023       19.587        6.380      513.950      101.092        0.039      349.515       29.995      863.900
07/05/2014  19:47:00     -339.000     -128.943      -13.750      162.342      110.284       71.335    26354.980    12162.474     5088.727        8.766        2.180      362.695       69.708        0.037      349.533       30.028      863.929
07/05/2014  19:48:00     -350.893     -117.306       -3.552      180.414      185.238       84.254    32549.121    34313.106     7098.671       10.542        3.698      369.982       97.401        0.069      349.489       29.952      863.949
07/05/2014  19:49:00     -556.818     -213.237      -36.514      207.063      178.759       89.367    42875.141    31954.785     7986.392       21.982        4.141      596.252      101.398        0.029      349.460       29.901      863.963
07/05/2014  19:50:00     -475.589     -177.979       -8.454      202.090      175.769      101.112    40840.389    30894.905    10223.678       16.993        4.098      507.800      106.580        0.044      349.460       29.900      863.951
07/05/2014  19:51:00     -307.425      -31.787       11.783      192.472      149.651       88.122    37045.366    22395.543     7765.422        8.142        3.360      309.064       95.974        0.096      349.451       29.886      863.999
07/05/2014  19:52:00     -411.794     -169.939      -10.524      260.971      156.175       82.900    68106.089    24390.711     6872.384       14.895        4.968      445.481      109.850        0.061      349.412       29.818      864.016
07/05/2014  19:53:00     -355.631     -144.119       -6.311      197.853      127.773       87.834    39145.703    16325.871     7714.753       10.522        3.159      383.723      103.694        0.073      349.409       29.812      864.036
07/05/2014  19:54:00     -373.494     -281.809       -7.638      276.897      166.919      103.465    76671.685    27861.930    10705.015       16.709        5.762      467.882      115.552        0.061      349.363       29.731      864.032
07/05/2014  19:55:00     -308.700     -131.970        0.424      152.300      180.945       84.447    23195.427    32741.085     7131.232        8.788        3.153      335.726       76.571        0.052      349.366       29.737      864.070
07/05/2014  19:56:00     -374.004     -151.393      -21.995      205.061      153.659       76.486    42050.092    23611.131     5850.113       11.739        3.576      403.483      104.800        0.067      349.333       29.681      864.087
07/05/2014  19:57:00     -395.355     -158.952       -2.368      235.670      181.437       80.226    55540.200    32919.526     6436.132       13.822        4.745      426.112      103.346        0.059      349.305       29.632      864.079
07/05/2014  19:58:00     -319.660     -149.061        0.026      211.034      144.057       83.561    44535.351    20752.496     6982.501        9.832        3.614      352.706      103.726        0.086      349.294       29.612      864.094
07/05/2014  19:59:00     -370.511     -163.798      -20.276      217.614      156.334       92.518    47355.699    24440.278     8559.665       12.242        4.018      405.103       88.909        0.048      349.264       29.562      864.072
07/05/2014  20:00:00     -355.123      -15.231       -7.686      216.570      152.214       77.332    46902.762    23169.246     5980.210       10.122        3.803      355.449       91.000        0.066      349.232       29.506      864.105
07/05/2014  20:01:00     -219.490     -118.441        5.043      145.302      110.133       61.771    21112.618    12129.282     3815.600        4.964        1.853      249.407       65.021        0.068      349.219       29.485      864.113
07/05/2014  20:02:00     -362.031     -110.528       -7.323      147.579      140.824       66.447    21779.605    19831.491     4415.217        9.467        2.301      378.528       64.201        0.029      349.203       29.455      864.118
07/05/2014  20:03:00     -177.271      -45.389       14.241      147.775      111.084       69.462    21837.398    12339.739     4824.997        3.634        1.950      182.989       80.921        0.196      349.146       29.358      864.110
07/05/2014  20:04:00     -446.925      -63.189      -30.802      196.172      106.171       75.470    38483.462    11272.252     5695.663       13.006        2.773      451.370       94.193        0.044      349.167       29.392      864.128
07/05/2014  20:05:00     -200.857      -81.006        4.523      194.650      152.721       81.254    37888.707    23323.833     6602.213        5.736        3.391      216.577       98.612        0.207      349.119       29.311      864.122
07/05/2014  20:06:00     -237.115      -78.621       -9.152      172.501      136.043       79.685    29756.581    18507.638     6349.748        5.854        2.731      249.810       86.961        0.121      349.110       29.293      864.130
07/05/2014  20:07:00     -316.586      -94.864      -11.197      124.006      198.259       68.255    15377.439    39306.729     4658.714        8.434        2.967      330.494       55.262        0.028      349.138       29.342      864.159
07/05/2014  20:08:00     -286.773     -124.066       -8.350      147.200      168.828       77.451    21667.931    28502.995     5998.655        7.693        2.808      312.460       59.648        0.036      349.136       29.338      864.157
07/05/2014  20:09:00     -377.451      -71.723      -19.657      222.951      185.429       74.335    49707.353    34383.936     5525.694       11.879        4.481      384.205       85.088        0.049      349.095       29.268      864.180
07/05/2014  20:10:00     -265.811      -83.772        8.941      277.548      128.516       84.950    77033.001    16516.278     7216.563        8.924        5.038      278.699      118.395        0.180      349.085       29.253      864.196
07/05/2014  20:11:00     -314.575     -109.383      -11.643      191.991      145.390       81.501    36860.689    21138.376     6642.490        8.784        3.232      333.050       78.216        0.055      349.080       29.241      864.176
07/05/2014  20:12:00     -339.481      -49.235      -15.693      215.206      127.700       87.091    46313.771    16307.312     7584.775        9.405        3.510      343.032       98.273        0.082      349.060       29.207      864.205
07/05/2014  20:13:00     -359.961       23.561      -20.812      178.030      117.797       75.591    31694.623    13876.100     5713.976        9.091        2.564      360.731       91.107        0.064      349.048       29.188      864.233
07/05/2014  20:14:00     -259.655     -123.037       -1.410      150.094      145.233       68.443    22528.239    21092.643     4684.413        6.543        2.415      287.331       79.871        0.077      349.033       29.161      864.241
07/05/2014  20:15:00     -194.533      -51.851      -10.827      118.040       99.823       57.840    13933.460     9964.647     3345.444        3.394        1.362      201.325       39.080        0.038      349.029       29.154      864.284
07/05/2014  20:16:00     -263.031      -98.241       -3.456      126.508       85.775       51.993    16004.176     7357.274     2703.290        5.245        1.303      280.779       62.099        0.049      349.025       29.147      864.293
07/05/2014  20:17:00     -265.642       29.262       -6.970      158.366       92.977       62.341    25079.782     8644.653     3886.428        5.453        1.881      267.249       70.912        0.070      349.022       29.142      864.330
07/05/2014  20:18:00     -242.920      -36.350       -7.343      158.001      126.173       68.610    24964.413    15919.521     4707.268        5.298        2.280      245.625       77.527        0.100      348.995       29.096      864.341
07/05/2014  20:19:00     -198.391      -65.564       -8.474      123.261       73.169       48.835    15193.154     5353.670     2384.828        3.333        1.147      208.944       54.916        0.069      348.971       29.052      864.390
07/05/2014  20:20:00     -211.817       31.282      -24.833       68.158      101.735       40.130     4645.521    10349.957     1610.386        3.153        0.830      214.114       29.700        0.019      348.964       29.041      864.417
07/05/2014  20:21:00     -273.543      -27.134      -29.809      101.185       84.025       50.096    10238.496     7060.125     2509.650        4.813        0.990      274.885       48.908        0.032      349.000       29.105      864.434
07/05/2014  20:22:00     -137.781      -27.291       13.313      143.764       86.766       52.671    20668.117     7528.403     2774.216        2.543        1.549      140.458       59.082        0.177      348.883       28.902      864.434
07/05/2014  20:23:00     -231.845      -39.533       -9.750       93.594       69.507       50.646     8759.890     4831.166     2565.021        3.578        0.808      235.191       50.849        0.047      348.941       29.000      864.506
07/05/2014  20:24:00     -223.772        5.786      -10.825      136.640      108.067       71.197    18670.382    11678.450     5068.966        4.282        1.771      223.846       56.705        0.064      348.918       28.962      864.526
07/05/2014  20:25:00     -180.156        2.745        1.693      193.418       91.566       75.707    37410.699     8384.400     5731.533        4.199        2.576      180.177       97.854        0.295      348.893       28.919      864.569
07/05/2014  20:26:00     -250.087      -34.682      -21.534       98.748       78.388       53.466     9751.188     6144.713     2858.607        4.148        0.938      252.480       45.968        0.033      348.937       28.995      864.595
07/05/2014  20:27:00      -69.183       25.930        0.461       85.234       49.242       42.207     7264.854     2424.804     1781.436        0.846        0.574       73.882       49.598        0.451      348.825       28.804      864.640
07/05/2014  20:28:00     -123.175       86.880       -8.488       65.935       67.126       40.106     4347.376     4505.920     1608.489        1.663        0.523      150.732       21.986        0.021      348.781       28.726      864.642
07/05/2014  20:29:00     -118.336       75.508        2.140       81.344       69.263       39.870     6616.902     4797.314     1589.604        1.635        0.650      140.374       36.213        0.067      348.776       28.718      864.646
07/05/2014  20:30:00     -174.215      193.319      -44.028       52.952       79.643       38.559     2803.893     6342.940     1486.786        4.015        0.532      260.236       40.184        0.024      348.825       28.800      864.654
07/05/2014  20:31:00      -37.317       79.285      -17.882       37.500       66.744       24.432     1406.222     4454.755      596.936        0.723        0.323       87.628       28.231        0.104      348.695       28.580      864.679
07/05/2014  20:32:00     -118.817      112.695      -12.687      101.670       82.359       42.758    10336.730     6783.065     1828.281        2.296        0.947      163.761       36.230        0.049      348.679       28.551      864.706
07/05/2014  20:33:00     -164.827      182.406      -20.706      122.673      117.579       47.636    15048.578    13824.863     2269.142        4.600        1.557      245.845       36.604        0.022      348.695       28.574      864.721
07/05/2014  20:34:00     -254.923      166.806      -47.024      140.450      126.575       59.365    19726.252    16021.237     3524.183        6.714        1.964      304.647       55.844        0.034      348.731       28.639      864.735
07/05/2014  20:35:00     -159.136      137.807      -12.594       80.969       78.006       57.175     6556.059     6084.932     3268.927        3.019        0.795      210.511       47.181        0.050      348.678       28.547      864.762
07/05/2014  20:36:00     -116.133       99.474      -26.877       49.803       45.520       31.972     2480.384     2072.090     1022.218        1.484        0.279      152.912       26.565        0.030      348.658       28.514      864.800
07/05/2014  20:37:00      -92.001      137.111      -18.593       55.474       51.967       35.424     3077.392     2700.527     1254.892        1.732        0.352      165.117       29.334        0.032      348.607       28.424      864.821
07/05/2014  20:38:00      -70.571      224.566      -27.784       63.997       73.113       34.498     4095.581     5345.468     1190.122        3.340        0.532      235.394       31.500        0.018      348.787       28.732      864.823
07/05/2014  20:39:00      -62.622      142.487      -20.741       32.755       41.580       19.883     1072.891     1728.935      395.331        1.393        0.160      155.641       13.505        0.008      348.698       28.582      864.810
07/05/2014  20:40:00     -100.623       56.974       -6.583       44.975       19.245       22.256     2022.711      370.351      495.337        0.815        0.144      115.633       21.734        0.035      348.772       28.713      864.809
07/05/2014  20:41:00      -66.661       75.789      -19.022       34.112       38.178       29.499     1163.629     1457.530      870.203        0.702        0.175      100.934       29.750        0.087      348.728       28.636      864.812
07/05/2014  20:42:00      -96.288       96.570      -18.033       56.444       41.315       29.804     3185.944     1706.961      888.268        1.235        0.289      136.371       34.262        0.063      348.711       28.605      864.827
07/05/2014  20:43:00     -111.698       86.006       -5.398       76.029       61.839       39.260     5780.446     3824.119     1541.333        1.552        0.557      140.973       33.194        0.055      348.650       28.500      864.855
07/05/2014  20:44:00     -125.515       50.574      -25.937      111.595       89.838       35.202    12453.505     8070.863     1239.203        2.037        1.088      135.321       28.668        0.045      348.766       28.700      864.845
07/05/2014  20:45:00     -104.180      171.940      -17.730       71.642      115.019       45.668     5132.532    13229.310     2085.548        3.059        1.022      201.039       32.139        0.026      348.712       28.605      864.864
07/05/2014  20:46:00     -113.801       85.741      -19.503       50.041       42.862       36.126     2504.137     1837.170     1305.084        1.316        0.282      142.486       26.273        0.034      348.692       28.574      864.879
07/05/2014  20:47:00     -203.840      110.114      -33.408      111.644      109.971       54.359    12464.349    12093.662     2954.883        4.115        1.376      231.681       44.434        0.037      348.730       28.637      864.880
07/05/2014  20:48:00     -154.110       68.565      -22.995       80.724       69.042       39.025     6516.317     4766.794     1522.967        2.089        0.640      168.674       26.729        0.025      348.713       28.610      864.883
07/05/2014  20:49:00     -150.181       54.409      -31.680       77.242       68.022       47.596     5966.375     4626.994     2265.356        1.969        0.643      159.733       36.085        0.051      348.692       28.571      864.895
07/05/2014  20:50:00     -101.597      156.313      -12.073       78.890       80.700       51.450     6223.650     6512.513     2647.069        2.514        0.769      186.429       48.918        0.069      348.571       28.364      864.902
07/05/2014  20:51:00     -162.790      187.064      -37.979      103.357      105.672       60.372    10682.733    11166.601     3644.769        4.421        1.275      247.978       72.505        0.085      348.639       28.479      864.898
07/05/2014  20:52:00      -75.157      138.861      -24.324       77.580       86.092       43.034     6018.580     7411.815     1851.918        2.040        0.764      157.896       44.855        0.081      348.512       28.261      864.896
07/05/2014  20:53:00     -221.775      238.131      -38.413       91.966       96.386       52.822     8457.797     9290.190     2790.180        6.395        1.027      325.409       41.378        0.016      348.609       28.427      864.908
07/05/2014  20:54:00     -120.209      157.943      -28.511      102.204       88.587       51.476    10445.567     7847.726     2649.797        3.057        1.047      198.485       64.685        0.106      348.528       28.288      864.911
07/05/2014  20:55:00     -149.385      226.818      -44.505       71.995       91.729       46.292     5183.314     8414.135     2142.955        4.574        0.787      271.593       40.559        0.022      348.649       28.495      864.920
07/05/2014  20:56:00     -229.461       67.741      -36.179       91.031      143.351       45.903     8286.648    20549.397     2107.106        4.474        1.547      239.251       39.906        0.028      348.586       28.386      864.956
07/05/2014  20:57:00     -228.460       84.253      -34.999       89.336      108.361       44.674     7980.847    11742.016     1995.790        4.111        1.086      243.500       38.416        0.025      348.604       28.418      864.980
07/05/2014  20:58:00     -179.442       25.702      -28.339      121.957       90.283       53.812    14873.476     8151.081     2895.680        2.979        1.296      181.273       34.923        0.037      348.588       28.391      865.003
07/05/2014  20:59:00     -179.205      115.485      -24.293       92.093       83.057       47.312     8481.029     6898.438     2238.453        3.183        0.881      213.193       43.620        0.042      348.447       28.146      865.004
07/05/2014  21:00:00     -152.191      108.707      -22.318       61.643       62.550       35.033     3799.856     3912.563     1227.310        2.221        0.447      187.028       30.253        0.026      348.455       28.160      865.000
07/05/2014  21:01:00     -150.088      118.443      -20.271       54.229       63.483       40.172     2940.801     4030.139     1613.828        2.277        0.429      191.195       30.431        0.025      348.457       28.166      864.990
07/05/2014  21:02:00     -177.516       49.708      -18.991       62.256       54.287       40.861     3875.844     2947.098     1669.640        2.142        0.425      184.344       35.560        0.037      348.472       28.192      865.000
07/05/2014  21:03:00     -228.874      -19.624      -14.934       92.060       80.217       41.539     8475.131     6434.813     1725.522        3.481        0.832      229.714       31.370        0.019      348.415       28.092      865.023
07/05/2014  21:04:00     -234.576      -18.652      -10.995       98.677       71.282       44.066     9737.159     5081.178     1941.781        3.612        0.838      235.317       44.879        0.036      348.330       27.946      865.040
07/05/2014  21:05:00     -202.008       79.944      -29.799       54.240      107.790       44.217     2942.024    11618.696     1955.175        3.230        0.826      217.252       38.150        0.031      348.323       27.930      865.056
07/05/2014  21:06:00     -210.184      116.079      -36.356       92.289      114.896       54.168     8517.255    13201.024     2934.163        4.181        1.233      240.108       48.627        0.041      348.307       27.904      865.043
07/05/2014  21:07:00     -183.110      180.824      -35.632      100.784       86.498       57.353    10157.441     7481.818     3289.311        4.421        1.046      257.345       55.993        0.047      348.390       28.047      865.020
07/05/2014  21:08:00     -142.731      164.810      -16.564       84.339      132.893       45.856     7113.114    17660.629     2102.759        3.734        1.344      218.024       39.013        0.032      348.362       27.998      865.009
07/05/2014  21:09:00     -192.448      212.429      -38.219      107.847      145.266       62.164    11631.051    21102.289     3864.413        6.010        1.830      286.639       58.867        0.042      348.419       28.097      865.000
07/05/2014  21:10:00     -173.842      147.679      -33.795       62.651       91.899       38.488     3925.110     8445.431     1481.317        3.351        0.693      228.101       37.713        0.027      348.345       27.971      864.967
07/05/2014  21:11:00     -270.185      -84.727      -17.121       75.182       98.723       37.246     5652.275     9746.261     1387.259        4.863        0.839      283.158       33.499        0.014      348.309       27.906      864.993
07/05/2014  21:12:00     -345.997      -91.595      -18.860      143.331      101.499       53.199    20543.685    10302.043     2830.089        8.106        1.684      357.916       53.282        0.022      348.213       27.740      865.016
07/05/2014  21:13:00     -261.630       -9.132      -20.906       82.027       75.063       48.160     6728.447     5634.400     2319.419        4.182        0.734      261.789       49.350        0.036      348.159       27.647      864.992
07/05/2014  21:14:00     -300.691      -48.108      -15.386      129.354       99.635       62.939    16732.385     9927.050     3961.279        6.179        1.531      304.515       68.189        0.050      348.122       27.585      864.982
07/05/2014  21:15:00     -464.369     -205.315      -21.088      144.518      161.719       78.326    20885.313    26153.045     6134.993       15.570        2.659      507.733       66.333        0.017      348.169       27.665      864.960
07/05/2014  21:16:00     -339.326     -100.913      -13.409      148.735      141.834       65.703    22122.214    20116.874     4316.854        8.602        2.328      354.014       61.894        0.031      348.154       27.640      864.972
07/05/2014  21:17:00     -310.277       12.931      -29.135      130.606       90.347       48.991    17057.973     8162.626     2400.107        6.245        1.381      310.546       57.048        0.034      348.128       27.593      864.982
07/05/2014  21:18:00     -361.683      -71.195      -30.513      163.112      115.748       62.698    26605.499    13397.647     3931.065        9.037        2.197      368.624       71.446        0.038      348.209       27.734      864.983
07/05/2014  21:19:00     -240.862      -68.665       -9.286      112.007      117.958       55.655    12545.583    13914.118     3097.532        4.618        1.478      250.459       47.001        0.035      348.107       27.557      864.989
07/05/2014  21:20:00     -283.418      -37.443      -17.822      119.768       91.353       52.355    14344.304     8345.453     2741.090        5.373        1.272      285.881       51.524        0.032      348.114       27.571      864.992
07/05/2014  21:21:00     -331.684      -25.240      -16.068      119.286      124.690       54.008    14229.080    15547.503     2916.862        7.180        1.635      332.643       49.320        0.022      348.080       27.511      865.026
07/05/2014  21:22:00     -392.685      -78.927      -25.195      153.650      131.253       72.362    23608.333    17227.400     5236.194       10.356        2.304      400.538       69.253        0.030      348.108       27.560      865.001
07/05/2014  21:23:00     -340.495      -42.527      -13.089      147.109      120.900       62.842    21640.911    14616.824     3949.115        7.906        2.010      343.141       66.100        0.037      348.061       27.478      864.996
07/05/2014  21:24:00     -359.799      -11.181      -13.589      128.249      122.254       73.157    16447.699    14946.059     5351.997        8.325        1.837      359.973       70.512        0.038      348.071       27.495      864.986
07/05/2014  21:25:00     -172.360      -41.001       -1.808       89.109      100.562       49.638     7940.450    10112.790     2463.919        2.595        1.026      177.169       42.662        0.058      347.998       27.371      864.964
07/05/2014  21:26:00     -185.287      -31.201        9.859      113.145       85.304       56.221    12801.828     7276.826     3160.761        2.932        1.162      187.895       47.432        0.064      347.994       27.364      865.010
07/05/2014  21:27:00     -335.188      -87.050      -19.535      155.224       92.648       67.172    24094.590     8583.572     4512.111        7.874        1.860      346.307       56.512        0.027      348.037       27.437      865.041
07/05/2014  21:28:00     -348.464      -62.807      -10.058      164.565      122.295       71.766    27081.752    14956.080     5150.350        8.632        2.359      354.079       82.957        0.055      348.092       27.533      865.077
07/05/2014  21:29:00     -175.283      -54.511        3.390      167.964      118.141       72.714    28211.982    13957.237     5287.306        4.057        2.373      183.563       76.339        0.173      348.058       27.475      865.044
07/05/2014  21:30:00     -160.930     -116.691      -11.049      123.016      135.029       54.272    15132.820    18232.887     2945.478        3.797        1.816      198.785       53.877        0.073      348.080       27.513      865.065
07/05/2014  21:31:00     -306.855      -22.729      -26.673      153.740      148.062       68.621    23636.028    21922.491     4708.792        7.282        2.513      307.695       63.918        0.043      348.052       27.463      865.086
07/05/2014  21:32:00     -324.283      -55.992      -24.071      100.951      123.832       58.979    10191.197    15334.418     3478.520        6.893        1.450      329.081       50.995        0.024      348.038       27.437      865.097
07/05/2014  21:33:00     -169.149       18.436      -10.914      111.089      100.438       44.706    12340.862    10087.693     1998.657        2.674        1.221      170.151       50.601        0.088      347.978       27.338      865.126
07/05/2014  21:34:00     -271.380        5.194      -22.060       96.920      104.924       51.237     9393.558    11009.010     2625.265        4.859        1.151      271.430       47.589        0.031      347.905       27.209      865.166
07/05/2014  21:35:00     -324.747      -21.943      -27.043      117.927       97.174       49.858    13906.680     9442.715     2485.853        6.625        1.292      325.487       53.745        0.027      347.995       27.367      865.147
07/05/2014  21:36:00     -233.414      -14.527      -16.561      105.571      135.687       47.605    11145.204    18410.839     2266.206        4.339        1.591      233.866       47.352        0.041      347.953       27.292      865.123
07/05/2014  21:37:00     -125.975       61.865      -16.731      116.264       89.857       41.552    13517.416     8074.312     1726.544        2.164        1.166      140.345       37.788        0.072      347.947       27.283      865.107
07/05/2014  21:38:00     -244.766     -140.926       -5.814      104.942      118.008       64.333    11012.745    13925.998     4138.753        5.444        1.454      282.437       58.930        0.044      347.899       27.199      865.120
07/05/2014  21:39:00     -231.676     -112.706       -5.499      143.327       85.345       49.168    20542.689     7283.721     2417.495        4.832        1.512      257.637       59.279        0.053      347.903       27.206      865.118
07/05/2014  21:40:00     -323.272      -19.853      -11.547      187.554      111.780       78.372    35176.537    12494.707     6142.143        7.941        2.691      323.882       90.259        0.078      347.876       27.161      865.130
07/05/2014  21:41:00     -384.189     -101.741      -31.927      155.638      157.666       58.221    24223.125    24858.584     3389.654       10.571        2.624      397.432       58.801        0.022      347.944       27.276      865.125
07/05/2014  21:42:00     -268.956      -97.262      -18.150      128.937       84.212       55.524    16624.660     7091.646     3082.928        5.446        1.340      286.002       60.347        0.045      347.917       27.230      865.136
07/05/2014  21:43:00      -93.868      -54.443       25.023      146.930       91.871       62.745    21588.435     8440.326     3936.878        2.318        1.698      108.514       76.057        0.491      347.817       27.059      865.152
07/05/2014  21:44:00     -212.424      -68.387       -6.999      105.260      119.752       48.655    11079.584    14340.656     2367.292        3.881        1.389      223.160       49.511        0.049      347.840       27.097      865.158
07/05/2014  21:45:00     -321.242       32.617      -26.248      206.837      154.210       76.067    42781.627    23780.653     5786.148        8.864        3.617      322.893       83.767        0.067      347.820       27.062      865.140
07/05/2014  21:46:00     -160.916     -132.674       32.743      239.781      172.494      110.928    57494.975    29754.312    12304.914        7.204        4.978      208.558      129.823        0.387      347.802       27.032      865.098
07/05/2014  21:47:00     -300.045      -89.602       -1.591      149.456      119.716       67.367    22337.144    14331.805     4538.340        6.963        2.060      313.139       67.490        0.046      347.791       27.013      865.136
07/05/2014  21:48:00     -101.718      -41.298       13.284      140.012       84.327       62.436    19603.458     7110.970     3898.234        2.142        1.531      109.782       74.849        0.465      347.688       26.836      865.173
07/05/2014  21:49:00     -235.925       -7.405      -16.341      133.895      122.874       53.310    17927.920    15098.056     2841.961        4.592        1.793      236.041       60.091        0.065      347.743       26.931      865.174
07/05/2014  21:50:00     -226.753     -120.605        0.986      178.007      156.895       55.840    31686.418    24616.140     3118.058        6.268        2.971      256.832       74.535        0.084      347.744       26.934      865.174
07/05/2014  21:51:00     -104.756      -44.520       36.418      143.810      123.335       64.050    20681.332    15211.606     4102.396        2.713        2.000      113.824       79.178        0.484      347.664       26.796      865.176
07/05/2014  21:52:00     -324.019      -16.947      -15.972      163.054      145.000       63.734    26586.488    21024.923     4061.978        7.859        2.584      324.462       66.653        0.042      347.746       26.935      865.196
07/05/2014  21:53:00     -299.673      -69.185      -11.979      129.565      123.682       64.706    16787.112    15297.166     4186.909        6.550        1.814      307.556       57.136        0.035      347.780       26.993      865.197
07/05/2014  21:54:00     -366.816      -94.759      -29.935      138.936      106.604       64.752    19303.224    11364.444     4192.810        8.964        1.743      378.858       64.003        0.029      347.779       26.992      865.192
07/05/2014  21:55:00     -160.677      -91.527       20.581      104.656       92.251       53.808    10952.794     8510.241     2895.280        2.848        1.118      184.917       57.536        0.097      347.689       26.840      865.207
07/05/2014  21:56:00     -190.644      -73.883      -17.598       91.565       74.208       45.084     8384.076     5506.838     2032.569        2.902        0.796      204.460       42.769        0.044      347.698       26.854      865.203
07/05/2014  21:57:00     -266.289      -17.732      -20.372      116.238      104.984       55.388    13511.274    11021.646     3067.796        4.962        1.380      266.879       45.362        0.029      347.675       26.811      865.219
07/05/2014  21:58:00     -258.640      -25.964      -14.752      145.414       90.534       63.560    21145.217     8196.473     4039.845        5.058        1.669      259.940       70.645        0.074      347.638       26.749      865.231
07/05/2014  21:59:00     -291.080      -41.300      -23.883      121.810      119.797       53.131    14837.618    14351.242     2822.929        5.950        1.601      293.995       57.991        0.039      347.615       26.710      865.249
07/05/2014  22:00:00     -341.106      -22.757      -24.535       93.622       96.007       56.031     8765.003     9217.350     3139.475        6.929        1.056      341.865       46.684        0.019      347.661       26.787      865.272
07/05/2014  22:01:00     -280.645       -7.611      -19.035      137.005       75.322       59.787    18770.473     5673.329     3574.528        5.360        1.401      280.748       57.173        0.041      347.686       26.832      865.266
07/05/2014  22:02:00     -244.351        7.151        0.164       95.952       92.923       50.658     9206.729     8634.697     2566.185        4.008        1.020      244.455       50.310        0.042      347.630       26.736      865.289
07/05/2014  22:03:00     -265.245       19.843       -6.839      132.470      115.677       51.428    17548.282    13381.241     2644.863        5.218        1.679      265.987       56.855        0.046      347.610       26.701      865.291
07/05/2014  22:04:00     -122.853       36.483       -0.975       87.336       70.980       48.403     7627.604     5038.210     2342.864        1.571        0.750      128.155       49.161        0.147      347.523       26.553      865.290
07/05/2014  22:05:00     -379.089       29.311      -38.498      142.066      109.074       56.575    20182.872    11897.143     3200.697        9.066        1.764      380.220       57.309        0.023      347.621       26.720      865.298
07/05/2014  22:06:00     -299.717      -33.187      -24.954      112.827      132.968       47.095    12730.023    17680.540     2217.972        6.209        1.631      301.549       48.583        0.026      347.631       26.737      865.298
07/05/2014  22:07:00     -185.867      -13.144      -17.527       70.091       87.632       42.318     4912.687     7679.387     1790.799        2.470        0.719      186.331       38.506        0.043      347.610       26.703      865.313
07/05/2014  22:08:00     -182.084       25.050      -22.214       83.495       66.295       32.327     6971.492     4395.071     1045.050        2.334        0.621      183.799       30.053        0.027      347.605       26.693      865.297
07/05/2014  22:09:00     -251.906      -58.341      -10.838      118.510       77.050       55.285    14044.719     5936.744     3056.430        4.500        1.152      258.574       57.865        0.050      347.565       26.623      865.303
07/05/2014  22:10:00     -317.330      -70.844      -18.294      125.223       98.374       47.578    15680.701     9677.364     2263.685        6.683        1.381      325.142       29.209        0.008      347.572       26.635      865.293
07/05/2014  22:11:00     -166.941       27.394       -5.017      121.597       72.788       38.462    14785.780     5298.126     1479.296        2.510        1.078      169.173       31.969        0.036      347.559       26.614      865.280
07/05/2014  22:12:00     -274.722       54.238      -20.851      138.863      101.840       64.406    19282.819    10371.450     4148.113        5.632        1.690      280.025       64.459        0.053      347.515       26.537      865.282
07/05/2014  22:13:00     -249.011      -59.859      -27.430      104.098       94.555       54.403    10836.492     8940.589     2959.659        4.454        1.137      256.105       33.276        0.017      347.511       26.528      865.295
07/05/2014  22:14:00     -185.206      -84.136       -4.001      124.992      135.432       54.567    15623.077    18341.701     2977.560        3.916        1.847      203.421       56.919        0.078      347.454       26.431      865.289
07/05/2014  22:15:00     -208.643       13.049      -14.190      131.340       81.047       37.538    17250.123     6568.567     1409.112        3.456        1.261      209.050       39.899        0.036      347.489       26.493      865.307
07/05/2014  22:16:00      -84.146        9.338       10.818       87.888       43.602       37.505     7724.366     1901.175     1406.601        0.916        0.552       84.663       46.851        0.306      347.466       26.455      865.297
07/05/2014  22:17:00      -75.348        8.169       -6.825       49.366       60.559       23.860     2437.043     3667.342      569.305        0.623        0.334       75.789       24.720        0.106      347.439       26.410      865.295
07/05/2014  22:18:00     -168.589       12.315       -6.112       73.791       70.533       47.301     5445.042     4974.935     2237.383        2.063        0.633      169.038       39.739        0.055      347.420       26.374      865.306
07/05/2014  22:19:00     -122.454       92.642      -23.259       50.697       61.791       34.007     2570.178     3818.154     1156.461        1.583        0.377      153.550       29.316        0.036      347.389       26.321      865.318
07/05/2014  22:20:00      -68.523       87.184      -10.533       76.392      102.004       43.445     5835.725    10404.805     1887.499        1.526        0.906      110.890       41.919        0.143      347.345       26.244      865.325
07/05/2014  22:21:00      -78.537       -3.022       10.647       47.402       48.118       43.708     2246.925     2315.374     1910.422        0.638        0.324       78.595       31.230        0.158      347.274       26.126      865.322
07/05/2014  22:22:00     -116.557        3.045       -3.960       72.166       68.183       53.047     5207.904     4648.883     2813.976        1.314        0.634      116.597       40.866        0.123      347.370       26.290      865.331
07/05/2014  22:23:00     -183.943      -46.160      -11.127       90.162       87.055       48.112     8129.146     7578.492     2314.791        2.705        0.901      189.646       51.609        0.074      347.415       26.365      865.318
07/05/2014  22:24:00      -77.717       40.627       -3.494       54.255       37.307       33.240     2943.658     1391.823     1104.908        0.657        0.272       87.696       22.701        0.067      347.364       26.280      865.333
07/05/2014  22:25:00      -96.494       -4.396       -6.596       32.167       31.286       18.681     1034.687      978.786      348.974        0.587        0.118       96.594        4.940        0.003      347.299       26.168      865.346
07/05/2014  22:26:00     -110.662       46.414      -13.033       54.873       95.875       38.459     3011.001     9192.048     1479.101        1.412        0.684      120.001       44.281        0.136      347.317       26.197      865.329
07/05/2014  22:27:00      -68.066       43.826      -10.447       42.173       44.457       26.870     1778.541     1976.412      722.019        0.557        0.224       80.955       17.602        0.047      347.284       26.143      865.346
07/05/2014  22:28:00      -47.391       24.761       -9.852       46.683       33.155       22.765     2179.339     1099.281      518.257        0.338        0.190       53.469       24.586        0.211      347.240       26.068      865.344
07/05/2014  22:29:00      -31.351       29.760       -6.885       29.716       43.878       16.146      883.068     1925.317      260.707        0.249        0.153       43.226       15.177        0.123      347.214       26.020      865.335
07/05/2014  22:30:00       -1.316       61.975        6.586       24.990       30.276       35.984      624.477      916.611     1294.877        0.336        0.142       61.989       22.220        0.128      347.186       25.974      865.327
07/05/2014  22:31:00      -48.473       89.648      -17.329       27.898       38.229       20.885      778.311     1461.474      436.181        0.668        0.134      101.913       19.751        0.038      347.133       25.882      865.351
07/05/2014  22:32:00      -78.181       78.573      -14.267       45.426       31.340       23.735     2063.545      982.203      563.334        0.805        0.180      110.842       16.157        0.021      347.153       25.916      865.367
07/05/2014  22:33:00        8.535      199.050      -28.149       47.719       46.526       28.038     2277.099     2164.636      786.139        2.286        0.261      199.233       16.016        0.006      347.272       26.119      865.349
07/05/2014  22:34:00      -13.546      175.931      -18.848       38.011       37.466       21.912     1444.856     1403.704      480.136        1.741        0.166      176.451       16.703        0.009      347.302       26.170      865.343
07/05/2014  22:35:00       43.217       97.024      -14.900       27.762       66.078       30.167      770.735     4366.317      910.051        0.877        0.302      106.214       29.868        0.079      347.139       25.893      865.341
07/05/2014  22:36:00       36.900       54.950       -5.967       27.255       31.680       20.656      742.809     1003.593      426.682        0.329        0.109       66.190       18.527        0.078      347.048       25.737      865.367
07/05/2014  22:37:00       26.895      109.238      -14.881       41.723       44.871       28.704     1740.839     2013.415      823.919        0.873        0.229      112.500       23.020        0.042      346.998       25.648      865.381
07/05/2014  22:38:00       26.126       89.842      -13.911       31.177       30.513       22.524      972.008      931.033      507.330        0.568        0.121       93.563       21.513        0.053      347.011       25.671      865.380
07/05/2014  22:39:00       19.548       86.781      -14.107       35.763       41.334       21.938     1279.022     1708.522      481.295        0.579        0.173       88.956       23.382        0.069      347.000       25.651      865.392
07/05/2014  22:40:00       50.721       41.955        2.862       37.409       34.354       23.290     1399.417     1180.163      542.408        0.373        0.156       65.824       19.991        0.092      347.004       25.661      865.410
07/05/2014  22:41:00       62.154       75.735       -0.440       32.420       51.558       28.594     1051.066     2658.212      817.618        0.706        0.226       97.974       32.283        0.109      346.927       25.527      865.411
07/05/2014  22:42:00       61.600      115.022       -3.844       35.526       50.761       33.971     1262.118     2576.719     1154.037        1.102        0.250      130.478       33.661        0.067      346.927       25.526      865.391
07/05/2014  22:43:00       61.912       78.327       -5.072       38.664       37.892       26.955     1494.867     1435.805      726.576        0.682        0.183       99.840       21.924        0.048      346.871       25.431      865.391
07/05/2014  22:44:00       38.122       66.105       -3.484       42.952       33.570       25.240     1844.910     1126.927      637.063        0.472        0.180       76.310       19.345        0.064      346.812       25.328      865.421
07/05/2014  22:45:00       49.808      122.747       -7.094       66.279       82.814       41.810     4392.847     6858.156     1748.086        1.530        0.650      132.467       45.447        0.118      346.903       25.484      865.405
07/05/2014  22:46:00       74.040       95.807        4.818       71.399       55.142       40.458     5097.881     3040.655     1636.814        1.223        0.489      121.082       33.642        0.077      346.759       25.236      865.390
07/05/2014  22:47:00       42.723       88.748       -4.807       49.074       60.428       36.378     2408.288     3651.489     1323.325        0.855        0.369       98.496       33.006        0.112      346.765       25.247      865.401
07/05/2014  22:48:00      -25.744      173.680      -28.055       57.209       61.175       26.003     3272.919     3742.339      676.140        1.965        0.385      175.578       29.909        0.029      346.841       25.379      865.410
07/05/2014  22:49:00       36.899      190.208      -25.113       42.663       35.317       30.295     1820.129     1247.322      917.768        2.108        0.199      193.754       18.899        0.010      346.815       25.334      865.419
07/05/2014  22:50:00       51.293      106.207      -11.550       41.317       74.515       42.644     1707.097     5552.423     1818.500        1.156        0.454      117.945       41.383        0.123      346.804       25.315      865.406
07/05/2014  22:51:00      130.909       64.491        8.810       63.074       48.926       34.492     3978.378     2393.752     1189.732        1.447        0.378      145.932       18.090        0.015      346.790       25.291      865.398
07/05/2014  22:52:00       88.815       45.850       33.747       42.345       40.895       33.975     1793.091     1672.442     1154.276        0.787        0.231       99.951       17.271        0.030      346.715       25.162      865.415
07/05/2014  22:53:00       58.208       33.041        9.358       43.649       28.485       22.124     1905.214      811.368      489.465        0.389        0.160       66.931       14.919        0.050      346.620       25.001      865.450
07/05/2014  22:54:00       81.443       22.138        9.172       50.782       35.906       27.327     2578.796     1289.258      746.782        0.591        0.231       84.398       13.541        0.026      346.579       24.930      865.461
07/05/2014  22:55:00       14.771        4.320       -1.920       37.075       23.474       17.881     1374.590      551.013      319.717        0.124        0.112       15.389       18.634        1.466      346.551       24.881      865.485
07/05/2014  22:56:00       57.133       37.406       -4.296       27.492       23.692       19.505      755.827      561.300      380.452        0.319        0.085       68.289       14.772        0.047      346.477       24.753      865.499
07/05/2014  22:57:00       88.811       43.504        0.382       26.866       18.679       18.417      721.788      348.913      339.189        0.559        0.070       98.894       10.862        0.012      346.483       24.762      865.502
07/05/2014  22:58:00      133.834       66.349        1.376       31.176       22.231       18.553      971.942      494.225      344.226        1.206        0.091      149.378        2.266        0.000      346.657       25.061      865.503
07/05/2014  22:59:00      109.285       66.319       32.582       38.823       27.561       31.332     1507.211      759.615      981.718        1.033        0.162      127.833       23.412        0.034      346.696       25.129      865.491
07/05/2014  23:00:00      119.134       47.888       13.213       48.194       30.185       27.045     2322.645      911.111      731.446        1.031        0.198      128.398       14.574        0.013      346.683       25.106      865.501
07/05/2014  23:01:00      151.454       83.942       29.053       42.704       39.017       24.039     1823.613     1522.352      577.852        1.738        0.196      173.161       16.970        0.010      346.655       25.058      865.511
07/05/2014  23:02:00      141.092       81.412       14.783       36.978       26.435       28.272     1367.365      698.831      799.293        1.481        0.143      162.895       22.687        0.019      346.520       24.826      865.505
07/05/2014  23:03:00      101.602       43.640        7.597       40.016       32.565       26.159     1601.256     1060.510      684.267        0.782        0.167      110.578       13.630        0.015      346.366       24.562      865.513
07/05/2014  23:04:00      130.282       56.837       15.974       56.631       44.746       32.868     3207.014     2002.216     1080.332        1.337        0.314      142.140       10.865        0.006      346.437       24.685      865.518
07/05/2014  23:05:00      126.422       65.765        9.498       37.738       38.530       23.454     1424.138     1484.573      550.076        1.193        0.173      142.505       11.734        0.007      346.394       24.609      865.529
07/05/2014  23:06:00       89.980       57.596       18.180       30.753       24.905       22.786      945.729      620.266      519.193        0.691        0.104      106.835       14.733        0.019      346.372       24.573      865.540
07/05/2014  23:07:00       51.196       59.679        3.679       37.258       38.639       25.612     1388.142     1492.947      655.970        0.487        0.177       78.629       20.840        0.070      346.367       24.564      865.550
07/05/2014  23:08:00      -25.497      238.954      -28.793       60.803       56.153       33.197     3696.968     3153.209     1102.045        3.326        0.398      240.310       28.625        0.014      346.606       24.971      865.558
07/05/2014  23:09:00      -92.037      256.651      -36.753       50.355       67.038       32.250     2535.579     4494.146     1040.093        4.188        0.403      272.655       28.885        0.011      346.575       24.917      865.558
07/05/2014  23:10:00      -40.232      253.439      -37.155       49.178       54.776       25.772     2418.487     3000.461      664.220        3.666        0.304      256.612       20.226        0.006      346.701       25.133      865.545
07/05/2014  23:11:00      -48.086      193.203      -10.586       61.234       94.987       44.163     3749.647     9022.534     1950.354        2.723        0.736      199.097       48.210        0.059      346.521       24.827      865.528
07/05/2014  23:12:00       14.329      159.181      -28.316       52.740       51.692       28.976     2781.457     2672.107      839.613        1.632        0.315      159.824       27.113        0.029      346.523       24.830      865.510
07/05/2014  23:13:00      -18.929      162.608      -22.376       37.105       46.526       26.728     1376.791     2164.667      714.379        1.578        0.213      163.706       21.062        0.017      346.545       24.871      865.513
07/05/2014  23:14:00      -71.505      140.940      -29.114       48.010       62.009       21.925     2304.977     3845.116      480.701        1.623        0.332      158.041       23.547        0.022      346.475       24.749      865.523
07/05/2014  23:15:00      -42.096      231.528      -42.002       49.106      128.692       34.208     2411.372    16561.590     1170.180        3.864        1.007      235.324       47.526        0.041      346.621       24.999      865.545
07/05/2014  23:16:00      -26.738       59.919      -12.170       63.225       60.816       30.507     3997.415     3698.564      930.652        0.654        0.431       65.614       29.212        0.198      346.512       24.815      865.532
07/05/2014  23:17:00      -96.661      122.094      -17.024       93.498       71.456       38.732     8741.896     5105.915     1500.167        1.994        0.767      155.725       35.974        0.053      346.498       24.786      865.539
07/05/2014  23:18:00      -12.120      142.481      -12.080       34.437       51.910       37.049     1185.930     2694.687     1372.644        1.292        0.263      142.996       33.280        0.054      346.461       24.726      865.534
07/05/2014  23:19:00     -100.220       93.610      -15.899       82.243       66.485       44.093     6763.932     4420.214     1944.183        1.609        0.656      137.139       36.706        0.072      346.474       24.747      865.568
07/05/2014  23:20:00     -113.643       82.982      -40.991       40.876      144.268       29.529     1670.862    20813.192      871.985        2.241        1.168      140.715       25.730        0.033      346.508       24.802      865.572
07/05/2014  23:21:00     -149.067      -19.238      -14.897       73.219       55.407       28.550     5360.976     3069.942      815.118        1.603        0.462      150.303       36.329        0.058      346.445       24.698      865.588
07/05/2014  23:22:00     -185.757       16.533      -17.325       54.511       58.544       32.153     2971.466     3427.410     1033.824        2.125        0.372      186.492       30.055        0.026      346.381       24.586      865.590
07/05/2014  23:23:00     -151.726      -43.425       -2.815       58.295       79.254       34.768     3398.292     6281.247     1208.786        1.790        0.544      157.818       31.823        0.041      346.320       24.482      865.572
07/05/2014  23:24:00      -60.051       35.494       -3.206       34.303       52.455       32.940     1176.716     2751.555     1085.053        0.494        0.251       69.757       22.178        0.101      346.190       24.260      865.576
07/05/2014  23:25:00      -80.031        1.327       -2.986       30.963       24.148       23.775      958.738      583.106      565.236        0.426        0.105       80.042       21.202        0.070      346.242       24.348      865.569
07/05/2014  23:26:00      -87.660       50.245      -13.871       61.813       49.358       28.039     3820.833     2436.216      786.171        0.872        0.352      101.039       35.956        0.127      346.229       24.325      865.563
07/05/2014  23:27:00      -79.869       36.905       -7.183       67.010       59.606       29.631     4490.357     3552.855      878.011        0.836        0.446       87.983       31.317        0.127      346.116       24.131      865.578
07/05/2014  23:28:00     -104.679       31.722      -11.402       63.016       40.559       33.310     3971.020     1645.019     1109.559        0.941        0.336      109.380       31.611        0.084      346.121       24.139      865.581
07/05/2014  23:29:00      -52.492       66.447        5.772       54.409       51.845       39.815     2960.344     2687.880     1585.221        0.722        0.362       84.679       40.971        0.234      345.994       23.923      865.573
07/05/2014  23:30:00      -85.848       31.568       -0.846       51.509       96.151       44.977     2653.205     9245.110     2022.960        1.114        0.696       91.468       34.389        0.141      346.043       24.006      865.584
07/05/2014  23:31:00     -105.742       17.928       -4.192       41.247       85.830       31.261     1701.345     7366.786      977.244        1.078        0.502      107.251       26.156        0.059      346.074       24.057      865.587
07/05/2014  23:32:00     -144.965       48.628      -17.228       96.111       57.925       40.852     9237.403     3355.294     1668.907        1.897        0.713      152.903       42.901        0.079      346.038       23.996      865.608
07/05/2014  23:33:00     -126.640       52.131      -29.325       39.314       56.815       28.298     1545.553     3227.946      800.749        1.259        0.279      136.951       22.554        0.027      346.132       24.160      865.615
07/05/2014  23:34:00     -271.713     -114.070      -13.113       58.637       57.306       38.564     3438.313     3283.930     1487.152        4.761        0.410      294.686       29.934        0.010      346.057       24.025      865.603
07/05/2014  23:35:00     -215.708      -63.438      -22.171       78.917       43.262       30.654     6227.826     1871.613      939.644        3.004        0.452      224.843       34.406        0.023      346.079       24.066      865.633
07/05/2014  23:36:00     -159.142      -25.541      -10.792       59.926       56.198       31.480     3591.097     3158.254      991.007        1.692        0.387      161.179       24.903        0.024      345.995       23.922      865.637
07/05/2014  23:37:00     -153.899       -9.696       -8.889       72.604       59.100       31.637     5271.288     3492.858     1000.896        1.681        0.488      154.204       37.817        0.060      345.936       23.823      865.644
07/05/2014  23:38:00     -148.532      -22.903      -13.589       49.374       52.065       34.017     2437.786     2710.758     1157.151        1.454        0.315      150.287       29.831        0.039      345.945       23.838      865.650
07/05/2014  23:39:00     -172.672        3.452      -15.204       71.274       43.524       30.613     5079.978     1894.322      937.161        1.898        0.396      172.706       33.576        0.038      345.935       23.820      865.645
07/05/2014  23:40:00     -122.423      -27.189        2.675       52.529       59.795       30.800     2759.269     3575.416      948.652        1.151        0.364      125.406       25.758        0.042      345.859       23.691      865.643
07/05/2014  23:41:00     -113.954       15.220      -15.248       40.776       58.642       27.896     1662.706     3438.870      778.194        0.966        0.294      114.965       26.796        0.054      345.904       23.768      865.656
07/05/2014  23:42:00     -109.949      -33.812      -13.433       43.036       51.264       25.649     1852.055     2628.029      657.866        0.927        0.257      115.030       22.043        0.037      345.889       23.744      865.648
07/05/2014  23:43:00      -77.041       76.778      -17.268       57.080       38.037       36.437     3258.105     1446.826     1327.685        0.908        0.302      108.767       26.905        0.061      345.815       23.614      865.641
07/05/2014  23:44:00     -129.721      109.989      -34.961       44.367       72.538       33.790     1968.398     5261.697     1141.764        1.926        0.419      170.074       32.233        0.036      345.978       23.893      865.639
07/05/2014  23:45:00      -76.196       39.424       -2.297       50.263       48.877       32.510     2526.398     2388.979     1056.916        0.667        0.299       85.791       28.235        0.108      345.879       23.725      865.618
07/05/2014  23:46:00     -139.087       82.152      -31.416       50.464       40.413       27.649     2546.635     1633.225      764.447        1.601        0.247      161.537       14.887        0.008      345.994       23.922      865.631
07/05/2014  23:47:00      -64.677       32.087       -3.023       56.863       54.420       35.105     3233.393     2961.510     1232.354        0.632        0.371       72.199       33.983        0.222      345.877       23.723      865.623
07/05/2014  23:48:00     -126.489       72.560      -14.031       54.134       55.570       41.814     2930.514     3088.059     1748.427        1.461        0.388      145.823       46.374        0.101      345.890       23.744      865.625
07/05/2014  23:49:00     -174.569       97.141      -32.899       70.680       76.071       40.941     4995.601     5786.770     1676.163        2.672        0.623      199.776       35.350        0.031      345.899       23.758      865.640
07/05/2014  23:50:00     -138.275       34.863      -21.258       41.041       68.890       32.651     1684.385     4745.866     1066.111        1.414        0.375      142.602       29.441        0.043      345.917       23.791      865.630
07/05/2014  23:51:00      -89.003       11.630      -12.083       53.643       42.334       25.442     2877.565     1792.135      647.292        0.676        0.266       89.759       24.983        0.077      345.908       23.776      865.620
07/05/2014  23:52:00      -69.530       62.467      -10.858       51.218       43.924       37.236     2623.268     1929.358     1386.545        0.740        0.297       93.469       29.332        0.098      345.848       23.674      865.627
07/05/2014  23:53:00     -110.047       28.088      -19.914       70.205       71.895       35.681     4928.804     5168.867     1273.160        1.233        0.569      113.575       42.691        0.141      345.896       23.753      865.626
07/05/2014  23:54:00     -166.610      -37.602      -14.181       72.150       75.846       33.786     5205.621     5752.681     1141.501        2.073        0.605      170.800       24.308        0.020      345.913       23.783      865.625
07/05/2014  23:55:00     -105.449      -49.220       -5.168      101.175       74.661       46.259    10236.421     5574.318     2139.890        1.576        0.898      116.370       50.095        0.185      345.854       23.682      865.623
07/05/2014  23:56:00     -150.982      -26.393      -15.214       55.790       75.822       30.009     3112.572     5748.910      900.515        1.674        0.488      153.272       27.130        0.031      345.857       23.686      865.619
07/05/2014  23:57:00     -209.119       37.089      -36.099       67.361       83.466       39.081     4537.456     6966.641     1527.361        2.972        0.652      212.383       35.442        0.028      345.881       23.725      865.619
07/05/2014  23:58:00     -118.608       34.006      -24.612       57.641       72.505       32.130     3322.534     5256.971     1032.316        1.272        0.481      123.387       29.964        0.059      345.812       23.610      865.626
07/05/2014  23:59:00      -96.751      108.938      -14.905       63.571       89.127       43.893     4041.250     7943.534     1926.596        1.768        0.696      145.700       44.712        0.094      345.773       23.543      865.628
